[[{"header":{"parameterUnit":"m.s-1","parameterCategory":1,"la1":30.6,"la2":29.2853,"lo1":-89.7004,"lo2":-87.6739,"dy":0.0162,"dx":0.0183,"nx":112,"ny":82,"refTime":"2024-09-10T00:00:00:Z","depth":0,"parameterNumber":2,"parameterNumberName":"U-component_of_WINDS"},"data":[0.0,0.0,0.0,0.0,0.0,0.0,0.0,0.0,0.0,0.0,0.0,0.0,0.0,0.0,0.0,0.0,0.0,0.0,0.0,0.0,0.0,0.0,0.0,0.0,0.0,0.0,0.0,0.0,0.0,0.0,0.0,0.0,0.0,0.0,0.0,0.0,0.0,0.0,0.0,0.0,0.0,0.0,0.0,0.0,0.0,0.0,0.0,0.0,0.0,0.0,0.0,0.0,0.0,0.0,0.0,0.0,0.0,0.0,0.0,0.0,0.0,0.0,0.0,0.0,0.0,0.0,0.0,0.0,0.0,0.0,0.0,0.0,0.0,0.0,0.0,0.0,0.0,0.0,0.0,0.0,0.0,0.0,0.0,0.0,0.0,0.0,0.0,0.0,0.0,0.0,0.0,-1.5706,-1.7218,-1.8244,-1.8728,-1.8352,-1.7068,-1.4525,0.0,0.0,0.0,0.0,0.0,0.0,0.0,0.0,0.0,0.0,0.0,0.0,0.0,0.0,0.0,0.0,0.0,0.0,0.0,0.0,0.0,0.0,0.0,0.0,0.0,0.0,0.0,0.0,0.0,0.0,0.0,0.0,0.0,0.0,0.0,0.0,0.0,0.0,0.0,0.0,0.0,0.0,0.0,0.0,0.0,0.0,0.0,0.0,0.0,0.0,0.0,0.0,0.0,0.0,0.0,0.0,0.0,0.0,0.0,0.0,0.0,0.0,0.0,0.0,0.0,0.0,0.0,0.0,0.0,0.0,0.0,0.0,0.0,0.0,0.0,0.0,0.0,0.0,0.0,0.0,0.0,0.0,0.0,0.0,0.0,0.0,0.0,0.0,0.0,0.0,0.0,0.0,0.0,0.0,0.0,0.0,0.0,0.0,0.0,0.0,0.0,0.0,0.0,0.0,-1.3622,-1.6785,-1.7365,-1.7536,-1.7624,-1.7978,-1.6957,-1.4019,0.0,0.0,0.0,0.0,0.0,0.0,0.0,0.0,0.0,0.0,0.0,0.0,0.0,0.0,0.0,0.0,0.0,0.0,0.0,0.0,0.0,0.0,0.0,0.0,0.0,0.0,0.0,0.0,0.0,0.0,0.0,0.0,0.0,0.0,0.0,0.0,0.0,0.0,0.0,0.0,0.0,0.0,0.0,0.0,0.0,0.0,0.0,0.0,0.0,0.0,0.0,0.0,0.0,0.0,0.0,0.0,0.0,0.0,0.0,0.0,0.0,0.0,0.0,0.0,0.0,0.0,0.0,0.0,0.0,0.0,0.0,0.0,0.0,0.0,0.0,0.0,0.0,0.0,0.0,0.0,0.0,0.0,0.0,0.0,0.0,0.0,0.0,0.0,0.0,0.0,0.0,0.0,0.0,0.0,0.0,0.0,0.0,0.0,0.0,0.0,0.0,0.0,0.0,-1.3684,-1.5015,-1.7149,-1.7388,-1.7388,-1.7388,-1.7339,-1.6158,-1.3578,-1.2786,0.0,0.0,0.0,0.0,0.0,0.0,0.0,0.0,0.0,0.0,0.0,0.0,0.0,0.0,0.0,0.0,0.0,0.0,0.0,0.0,0.0,0.0,0.0,0.0,0.0,0.0,0.0,0.0,0.0,0.0,0.0,0.0,0.0,0.0,0.0,0.0,0.0,0.0,0.0,0.0,0.0,0.0,0.0,0.0,0.0,0.0,0.0,0.0,0.0,0.0,0.0,0.0,0.0,0.0,0.0,0.0,0.0,0.0,0.0,0.0,0.0,0.0,0.0,0.0,0.0,0.0,0.0,0.0,0.0,0.0,0.0,0.0,0.0,0.0,0.0,0.0,0.0,0.0,0.0,0.0,0.0,0.0,0.0,0.0,0.0,0.0,0.0,0.0,0.0,0.0,0.0,0.0,0.0,0.0,0.0,0.0,0.0,0.0,0.0,0.0,0.0,0.0,-1.5304,-1.622,-1.7087,-1.7174,-1.7174,-1.7174,-1.6534,-1.5304,-1.3323,-1.2124,0.0,0.0,0.0,0.0,0.0,0.0,0.0,0.0,0.0,0.0,0.0,0.0,0.0,0.0,0.0,0.0,0.0,0.0,0.0,0.0,0.0,0.0,0.0,0.0,0.0,0.0,0.0,0.0,0.0,0.0,0.0,0.0,0.0,0.0,0.0,0.0,0.0,0.0,0.0,0.0,0.0,0.0,0.0,0.0,0.0,0.0,0.0,0.0,0.0,0.0,0.0,0.0,0.0,0.0,0.0,0.0,0.0,0.0,0.0,0.0,0.0,0.0,0.0,0.0,0.0,0.0,0.0,0.0,0.0,0.0,0.0,0.0,0.0,0.0,0.0,0.0,0.0,0.0,0.0,0.0,0.0,0.0,0.0,0.0,0.0,0.0,0.0,0.0,0.0,0.0,0.0,0.0,0.0,0.0,0.0,0.0,0.0,0.0,0.0,0.0,0.0,0.0,-1.5139,-1.6497,-1.6572,-1.6572,-1.6572,-1.6572,-1.5593,-1.4488,-1.3273,-1.1401,0.0,0.0,0.0,0.0,0.0,0.0,0.0,0.0,0.0,0.0,0.0,0.0,0.0,0.0,0.0,0.0,0.0,0.0,0.0,0.0,0.0,0.0,0.0,0.0,0.0,0.0,0.0,0.0,0.0,0.0,0.0,0.0,0.0,0.0,0.0,0.0,0.0,0.0,0.0,0.0,0.0,0.0,0.0,0.0,0.0,0.0,0.0,0.0,0.0,0.0,0.0,0.0,0.0,0.0,0.0,0.0,0.0,0.0,0.0,0.0,0.0,0.0,0.0,0.0,0.0,0.0,0.0,0.0,0.0,0.0,0.0,0.0,0.0,0.0,0.0,0.0,0.0,0.0,0.0,0.0,0.0,0.0,0.0,0.0,0.0,0.0,0.0,0.0,0.0,0.0,0.0,0.0,0.0,0.0,0.0,0.0,0.0,0.0,0.0,0.0,0.0,0.0,-1.4551,-1.5756,0.0,-1.6522,-1.6522,-1.6522,-1.6132,-1.499,-1.2822,0.0,0.0,0.0,0.0,0.0,0.0,0.0,0.0,0.0,0.0,0.0,0.0,0.0,0.0,0.0,0.0,0.0,0.0,0.0,0.0,0.0,0.0,0.0,0.0,0.0,0.0,0.0,0.0,0.0,0.0,0.0,0.0,0.0,0.0,0.0,0.0,0.0,0.0,0.0,0.0,0.0,0.0,0.0,0.0,0.0,0.0,0.0,0.0,0.0,0.0,0.0,0.0,0.0,0.0,0.0,0.0,0.0,0.0,0.0,0.0,0.0,0.0,0.0,0.0,0.0,0.0,0.0,0.0,0.0,0.0,0.0,0.0,0.0,0.0,0.0,0.0,0.0,0.0,0.0,0.0,0.0,0.0,0.0,0.0,0.0,0.0,0.0,0.0,0.0,0.0,0.0,0.0,0.0,0.0,0.0,0.0,0.0,0.0,0.0,0.0,0.0,0.0,-1.296,-1.45,-1.568,0.0,-1.6522,-1.6522,-1.6522,-1.6032,-1.4789,-1.2554,0.0,0.0,0.0,0.0,0.0,0.0,0.0,0.0,0.0,0.0,0.0,0.0,0.0,0.0,0.0,0.0,0.0,0.0,0.0,0.0,0.0,0.0,0.0,0.0,0.0,0.0,0.0,0.0,0.0,0.0,0.0,0.0,0.0,0.0,0.0,0.0,0.0,0.0,0.0,0.0,0.0,0.0,0.0,0.0,0.0,0.0,0.0,0.0,0.0,0.0,0.0,0.0,0.0,0.0,0.0,0.0,0.0,0.0,0.0,0.0,0.0,0.0,0.0,0.0,0.0,0.0,0.0,0.0,0.0,0.0,0.0,0.0,0.0,0.0,0.0,0.0,0.0,0.0,0.0,0.0,0.0,0.0,0.0,0.0,0.0,0.0,0.0,0.0,0.0,0.0,0.0,0.0,0.0,0.0,0.0,0.0,0.0,0.0,0.0,0.0,0.0,0.0,-1.306,-1.5114,-1.6522,-1.6522,-1.6522,-1.6522,-1.6522,-1.5054,-1.3632,0.0,0.0,0.0,0.0,0.0,0.0,0.0,0.0,0.0,0.0,0.0,0.0,0.0,0.0,0.0,0.0,0.0,0.0,0.0,0.0,0.0,0.0,0.0,0.0,0.0,0.0,0.0,0.0,0.0,0.0,0.0,0.0,0.0,0.0,0.0,0.0,0.0,0.0,0.0,0.0,0.0,0.0,0.0,0.0,0.0,0.0,0.0,0.0,0.0,0.0,0.0,0.0,0.0,0.0,0.0,0.0,0.0,0.0,0.0,0.0,0.0,0.0,0.0,0.0,0.0,0.0,0.0,0.0,0.0,0.0,0.0,0.0,0.0,0.0,0.0,0.0,0.0,0.0,0.0,0.0,0.0,0.0,0.0,0.0,0.0,0.0,0.0,0.0,0.0,0.0,0.0,0.0,0.0,0.0,0.0,0.0,0.0,0.0,0.0,0.0,0.0,0.0,0.0,-1.306,-1.5114,-1.6522,-1.6522,-1.6522,-1.6522,-1.6522,-1.607,-1.4827,-1.2554,0.0,0.0,0.0,0.0,0.0,0.0,0.0,0.0,0.0,0.0,0.0,0.0,0.0,0.0,0.0,0.0,0.0,0.0,0.0,0.0,0.0,0.0,0.0,0.0,0.0,0.0,0.0,0.0,0.0,0.0,0.0,0.0,0.0,0.0,0.0,0.0,0.0,0.0,0.0,0.0,0.0,0.0,0.0,0.0,0.0,0.0,0.0,0.0,0.0,0.0,0.0,0.0,0.0,0.0,0.0,0.0,0.0,0.0,0.0,0.0,0.0,0.0,0.0,0.0,0.0,0.0,0.0,0.0,0.0,0.0,0.0,0.0,0.0,0.0,0.0,0.0,0.0,0.0,0.0,0.0,0.0,0.0,0.0,0.0,0.0,0.0,0.0,0.0,0.0,0.0,0.0,0.0,0.0,0.0,0.0,0.0,0.0,0.0,0.0,0.0,0.0,0.0,-1.306,-1.5114,-1.6522,-1.6522,-1.6522,-1.6522,-1.6522,-1.6308,-1.5203,-1.2881,0.0,0.0,0.0,0.0,0.0,0.0,0.0,0.0,0.0,0.0,0.0,0.0,0.0,0.0,0.0,0.0,0.0,0.0,0.0,0.0,0.0,0.0,0.0,0.0,0.0,0.0,0.0,0.0,0.0,0.0,0.0,0.0,0.0,0.0,0.0,0.0,0.0,0.0,0.0,0.0,0.0,0.0,0.0,0.0,0.0,0.0,0.0,0.0,0.0,0.0,0.0,0.0,0.0,0.0,0.0,0.0,0.0,0.0,0.0,0.0,0.0,0.0,0.0,0.0,0.0,0.0,0.0,0.0,0.0,0.0,0.0,0.0,0.0,0.0,0.0,0.0,0.0,0.0,0.0,0.0,0.0,0.0,0.0,0.0,0.0,0.0,0.0,0.0,0.0,0.0,0.0,0.0,0.0,0.0,0.0,0.0,0.0,0.0,0.0,0.0,0.0,0.0,-1.306,-1.5114,-1.6522,-1.6522,-1.6522,-1.6522,-1.6522,-1.6057,-1.509,-1.3448,0.0,0.0,0.0,0.0,0.0,0.0,0.0,0.0,0.0,0.0,0.0,0.0,0.0,0.0,0.0,0.0,0.0,0.0,0.0,0.0,0.0,0.0,0.0,0.0,0.0,0.0,0.0,0.0,0.0,0.0,0.0,0.0,0.0,0.0,0.0,0.0,0.0,0.0,0.0,0.0,0.0,0.0,0.0,0.0,0.0,0.0,0.0,0.0,0.0,0.0,0.0,0.0,0.0,0.0,0.0,0.0,0.0,0.0,0.0,0.0,-1.1751,0.0,0.0,0.0,0.0,0.0,0.0,0.0,0.0,0.0,0.0,0.0,0.0,0.0,0.0,0.0,0.0,0.0,0.0,0.0,0.0,0.0,0.0,0.0,0.0,0.0,0.0,0.0,0.0,0.0,0.0,0.0,0.0,0.0,0.0,0.0,0.0,0.0,0.0,0.0,0.0,0.0,-1.306,-1.5114,-1.6522,-1.6522,-1.6522,-1.6522,-1.6522,-1.6409,-1.5819,-1.4601,-1.337,0.0,0.0,0.0,0.0,0.0,0.0,0.0,0.0,0.0,0.0,0.0,0.0,0.0,0.0,0.0,0.0,0.0,0.0,0.0,0.0,0.0,0.0,0.0,0.0,0.0,0.0,0.0,0.0,0.0,0.0,0.0,0.0,0.0,0.0,0.0,0.0,0.0,0.0,0.0,0.0,0.0,0.0,0.0,0.0,0.0,0.0,0.0,0.0,0.0,0.0,0.0,0.0,0.0,0.0,0.0,0.0,0.0,0.0,0.0,0.0,-1.3107,0.0,0.0,0.0,0.0,0.0,0.0,0.0,0.0,0.0,0.0,0.0,0.0,0.0,0.0,0.0,0.0,0.0,0.0,0.0,0.0,0.0,0.0,0.0,0.0,0.0,0.0,0.0,0.0,0.0,0.0,0.0,0.0,0.0,0.0,0.0,0.0,0.0,0.0,0.0,0.0,-1.3483,-1.5316,-1.6522,-1.6522,-1.6522,-1.6522,-1.6522,-1.6522,-1.6158,-1.5356,-1.4237,0.0,0.0,0.0,0.0,0.0,0.0,0.0,0.0,0.0,0.0,0.0,0.0,0.0,0.0,0.0,0.0,0.0,0.0,0.0,0.0,0.0,0.0,0.0,0.0,0.0,0.0,0.0,0.0,0.0,0.0,0.0,0.0,0.0,0.0,0.0,0.0,0.0,0.0,0.0,0.0,0.0,0.0,0.0,0.0,0.0,0.0,0.0,0.0,0.0,0.0,0.0,0.0,0.0,-1.7287,-1.7827,-1.8643,-1.8731,-1.9032,-1.9346,-1.7501,-1.6484,-1.6045,-1.4979,0.0,0.0,0.0,0.0,0.0,0.0,0.0,0.0,0.0,0.0,0.0,0.0,0.0,0.0,0.0,0.0,0.0,0.0,0.0,0.0,0.0,0.0,0.0,0.0,-1.6522,-1.6647,0.0,0.0,0.0,0.0,0.0,0.0,0.0,0.0,0.0,0.0,0.0,0.0,-1.4085,-1.5555,-1.6522,-1.6522,-1.6522,-1.6522,-1.6522,-1.6522,-1.6321,-1.5869,-1.4928,-1.3921,0.0,0.0,0.0,0.0,0.0,0.0,0.0,0.0,0.0,0.0,0.0,0.0,0.0,0.0,0.0,0.0,0.0,0.0,0.0,0.0,0.0,0.0,0.0,0.0,0.0,0.0,0.0,0.0,0.0,0.0,0.0,0.0,-0.9861,-1.1684,0.0,0.0,0.0,0.0,0.0,0.0,0.0,0.0,0.0,0.0,0.0,0.0,0.0,-1.6679,-1.8246,-1.8783,-1.9171,-1.9384,-2.0363,-2.0665,-2.0416,-2.084,-2.1091,-2.1142,-2.0853,0.0,-1.779,-1.666,0.0,0.0,0.0,0.0,0.0,0.0,0.0,0.0,0.0,0.0,0.0,0.0,0.0,0.0,0.0,0.0,0.0,0.0,0.0,0.0,0.0,0.0,-1.7765,-1.7765,-1.794,-1.7953,0.0,-1.5469,-1.343,-1.2291,-1.1688,0.0,0.0,0.0,0.0,0.0,0.0,0.0,-1.4664,-1.5793,-1.6522,-1.6522,-1.6522,-1.6522,-1.6522,-1.6522,-1.6484,-1.6409,-1.5819,-1.5191,-1.4614,-1.3496,0.0,0.0,0.0,0.0,0.0,0.0,0.0,0.0,0.0,0.0,0.0,0.0,0.0,0.0,0.0,0.0,0.0,0.0,0.0,0.0,0.0,0.0,0.0,0.0,0.0,0.0,0.0,0.0,0.0,-0.9652,-1.1385,-1.3132,-1.2713,-1.2181,0.0,0.0,0.0,0.0,0.0,0.0,0.0,0.0,0.0,-1.7877,-1.853,-1.9208,-1.9936,-2.079,-2.1368,-2.1681,-2.251,-2.2774,-2.2548,-2.2786,-2.2723,-2.241,-2.241,-2.1694,-2.0401,-1.8957,-1.7903,-1.7099,0.0,0.0,0.0,0.0,-1.6183,-1.6471,-1.7074,-1.7099,0.0,-1.6162,0.0,0.0,0.0,0.0,0.0,0.0,0.0,0.0,0.0,0.0,-1.8668,-1.8668,-1.8894,-1.902,-1.8731,-1.7702,-1.6421,0.0,-1.4274,-1.3421,-1.1927,0.0,0.0,0.0,0.0,0.0,-1.5693,-1.6509,-1.6999,-1.6999,-1.671,-1.6522,-1.6522,-1.6522,-1.6522,-1.6522,-1.6283,-1.5906,-1.5354,-1.4576,-1.337,0.0,0.0,0.0,0.0,0.0,0.0,0.0,0.0,0.0,0.0,0.0,0.0,0.0,0.0,0.0,0.0,0.0,0.0,0.0,0.0,0.0,0.0,0.0,0.0,0.0,0.0,0.0,0.0,-1.143,-1.3028,-1.4538,-1.4596,-1.4256,0.0,0.0,0.0,0.0,0.0,0.0,-1.7275,-1.7903,-1.8794,-1.9985,-2.0865,-2.143,-2.1732,-2.2548,-2.3163,-2.3516,-2.4004,-2.4205,-2.4205,-2.4205,-2.3966,-2.3503,-2.3503,-2.3339,-2.2811,-2.0978,-1.9924,-1.9346,-1.838,-1.8003,-1.8053,-1.8455,-1.8706,-1.8945,-1.9748,-1.9773,-1.9334,-1.8656,-1.794,-1.7225,-1.6559,0.0,0.0,0.0,0.0,-1.7677,-1.8116,-1.8945,-1.9623,-1.9484,-1.9748,-1.9874,-1.9334,-1.9221,-1.8769,0.0,-1.6622,-1.5768,-1.3986,0.0,0.0,0.0,0.0,-1.6321,-1.6886,-1.7325,-1.7539,-1.74,-1.6999,-1.6685,-1.6522,-1.6522,-1.6522,-1.6522,-1.6522,-1.6333,-1.5919,-1.5517,-1.4576,-1.3069,0.0,0.0,0.0,0.0,0.0,0.0,0.0,0.0,0.0,0.0,0.0,0.0,0.0,0.0,0.0,0.0,0.0,0.0,0.0,0.0,0.0,0.0,0.0,0.0,0.0,0.0,0.0,0.0,0.0,-1.6258,-1.6873,0.0,0.0,0.0,0.0,-1.6303,-1.7375,-1.848,-1.9572,-2.0188,-2.1242,-2.2815,-2.2927,-2.3527,-2.4607,-2.4669,-2.4707,-2.4732,-2.477,-2.4782,-2.4782,-2.4782,-2.4757,-2.4732,-2.4732,-2.472,-2.4519,-2.2309,-2.1079,-2.0567,-1.9911,-1.9673,-1.9685,-1.971,-2.0075,-2.0605,-2.0655,-2.0655,-2.0718,-2.1129,-2.0539,-1.9723,-2.0225,-1.9648,0.0,0.0,-2.0012,-2.0517,-2.0555,-2.0928,-2.123,-2.0769,-2.0655,-2.0464,-1.9886,-1.9761,-1.9434,0.0,-1.8091,-1.7877,-1.725,0.0,-1.7162,-1.7137,-1.7225,-1.7501,-1.8053,-1.8141,-1.7965,-1.7438,-1.735,-1.7112,-1.6559,-1.6522,-1.6522,-1.6522,-1.6522,-1.6509,-1.6471,-1.6446,-1.5906,-1.4815,-1.3672,0.0,0.0,0.0,0.0,0.0,0.0,0.0,0.0,0.0,0.0,0.0,0.0,0.0,0.0,0.0,0.0,0.0,0.0,0.0,0.0,0.0,0.0,0.0,0.0,0.0,0.0,0.0,0.0,-1.7869,-1.8317,0.0,-1.8342,-1.8518,-1.8781,-1.9158,-1.956,-2.0426,-2.187,-2.2146,-2.2849,-2.418,-2.4217,-2.4418,-2.482,-2.5159,-2.5322,-2.5322,-2.5699,-2.5686,-2.5322,-2.5322,-2.5146,-2.482,-2.482,-2.482,-2.4757,-2.3966,-2.3314,-2.2711,-2.1782,-2.1418,-2.1418,-2.1418,-2.1543,-2.1732,-2.1732,-2.1732,-2.1694,-2.1543,-2.1217,-2.0928,-2.1129,-2.0928,-2.0652,-2.084,-2.1041,-2.1192,-2.1192,-2.1343,-2.1443,-2.1242,-2.1192,-2.1041,-2.0476,-2.0351,-2.0137,-1.9371,-1.8957,-1.8555,-1.8003,-1.7903,-1.779,-1.7438,-1.799,-1.8505,-1.8706,-1.8731,-1.8656,-1.8455,-1.7802,-1.73,-1.7087,-1.6735,-1.6522,-1.6522,-1.6522,-1.6522,-1.6522,-1.6522,-1.617,-1.5417,-1.4664,-1.3195,0.0,0.0,0.0,0.0,0.0,0.0,0.0,0.0,0.0,0.0,0.0,0.0,0.0,0.0,0.0,0.0,0.0,0.0,0.0,0.0,0.0,0.0,0.0,0.0,0.0,0.0,-1.7426,-1.9095,-1.9623,-1.9924,-2.0075,-2.0263,-2.069,-2.1443,-2.1493,-2.2146,-2.3627,-2.3703,-2.413,-2.5059,-2.5084,-2.5172,-2.5372,-2.5724,-2.5887,-2.5887,-2.6276,-2.6264,-2.5887,-2.5887,-2.5699,-2.5372,-2.5372,-2.5372,-2.536,-2.5159,-2.487,-2.4443,-2.3527,-2.315,-2.3138,-2.2949,-2.2874,-2.2849,-2.2661,-2.2585,-2.2523,-2.2171,-2.2046,-2.2046,-2.2046,-2.2046,-2.2046,-2.2046,-2.2046,-2.2046,-2.2046,-2.2046,-2.1995,-2.1807,-2.1769,-2.1606,-2.1066,-2.0941,-2.0828,-2.0439,-1.9786,-1.9171,-1.8807,-1.8744,-1.8618,-1.8254,-1.8819,-1.9284,-1.9284,-1.9284,-1.9221,-1.8995,-1.8367,-1.779,-1.7413,-1.7024,-1.6722,-1.6522,-1.6522,-1.6522,-1.6522,-1.6333,-1.607,-1.5706,-1.4789,-1.3596,-1.214,0.0,0.0,0.0,0.0,0.0,0.0,0.0,0.0,0.0,0.0,0.0,0.0,0.0,0.0,0.0,0.0,0.0,0.0,0.0,0.0,0.0,0.0,0.0,-1.5421,-1.7505,-1.9284,-1.9811,-2.084,-2.1317,-2.0869,-2.1255,-2.202,-2.304,-2.3128,-2.3616,-2.4795,-2.4845,-2.5084,-2.5598,-2.5624,-2.5887,-2.6521,-2.6533,-2.6533,-2.6533,-2.6533,-2.6533,-2.6533,-2.6533,-2.6533,-2.6533,-2.6533,-2.6533,-2.6483,-2.585,-2.5624,-2.5573,-2.5034,-2.482,-2.4757,-2.4217,-2.4017,-2.3941,-2.3364,-2.3103,-2.3103,-2.3078,-2.3078,-2.3078,-2.3078,-2.3078,-2.3078,-2.3078,-2.3078,-2.3078,-2.3078,-2.3078,-2.294,-2.2472,-2.2334,-2.2184,-2.1631,-2.1506,-2.1506,-2.1493,-2.0602,-1.9849,-1.9823,-1.9811,-1.9798,-1.9798,-1.9798,0.0,-1.9798,-1.9798,-1.961,-1.9058,-1.8983,-1.8593,-1.7501,-1.7388,-1.7137,-1.6559,-1.6522,-1.6522,-1.6522,-1.6007,-1.5718,-1.5718,-1.4124,-1.3235,-1.3223,0.0,0.0,0.0,0.0,0.0,0.0,0.0,0.0,0.0,0.0,0.0,0.0,0.0,0.0,0.0,0.0,0.0,0.0,0.0,0.0,0.0,0.0,-1.7962,-1.7962,-1.9271,-2.0564,-2.1506,-2.1895,-2.2347,-2.3012,-2.3226,-2.3602,-2.4305,-2.4356,-2.4657,-2.5347,-2.5385,-2.5636,-2.6201,-2.6226,-2.6302,-2.6533,-2.6533,-2.6533,-2.6533,-2.6533,-2.6533,-2.6533,-2.6533,-2.6533,-2.6533,-2.6533,-2.6533,-2.6521,-2.6289,-2.6226,-2.6138,-2.5197,-2.482,-2.4808,-2.4644,-2.4594,-2.4519,-2.3954,-2.3766,-2.369,-2.3215,-2.3078,-2.3078,-2.3078,-2.3078,-2.3078,-2.3078,-2.3078,-2.3078,-2.3078,-2.3078,-2.3027,-2.2949,-2.2852,-2.2761,-2.2209,-2.2083,-2.197,-2.1568,-2.1242,-2.0903,-2.0501,-2.0075,-1.9798,-1.9798,-1.9798,0.0,-1.9798,-1.9798,-1.9748,-1.961,-1.9246,-1.8744,-1.8041,-1.7614,-1.7137,-1.6559,-1.6522,-1.6522,-1.6522,-1.6371,-1.6296,-1.6296,-1.5065,-1.4224,0.0,0.0,0.0,0.0,0.0,0.0,0.0,0.0,0.0,0.0,0.0,0.0,0.0,0.0,0.0,0.0,0.0,0.0,0.0,0.0,0.0,0.0,-1.8821,-2.0137,-2.0363,-2.0953,-2.1681,-2.2548,-2.2874,-2.3276,-2.3929,-2.4205,-2.4569,-2.5109,-2.5146,-2.5385,-2.5937,-2.5963,-2.6113,-2.6521,-2.6747,-2.6804,-2.6804,-2.703,-2.7155,-2.7155,-2.7155,-2.703,-2.6804,-2.6804,-2.6678,-2.6533,-2.6533,-2.6533,-2.6533,-2.6533,-2.6533,0.0,0.0,0.0,0.0,0.0,-2.5008,-2.477,-2.4456,-2.4343,-2.4255,-2.3678,-2.3502,-2.3452,-2.3153,-2.3078,-2.3078,-2.3078,-2.3078,-2.3078,-2.3078,-2.3078,-2.3078,-2.3078,-2.3078,-2.2977,-2.2723,-2.2661,-2.256,-2.2234,-2.1995,0.0,-2.1405,-2.069,-2.0075,-1.9836,-1.9798,-1.9798,-1.9798,-1.9798,-1.9798,-1.9798,-1.9535,-1.9133,-1.8593,-1.8254,0.0,0.0,0.0,-1.6672,-1.6183,-1.617,0.0,0.0,0.0,0.0,0.0,0.0,0.0,0.0,-1.4777,-1.494,0.0,0.0,0.0,0.0,0.0,0.0,0.0,0.0,0.0,0.0,0.0,0.0,0.0,0.0,0.0,0.0,-2.0589,-2.1782,-2.2322,-2.246,-2.2686,-2.3115,-2.369,-2.4054,-2.4167,-2.4619,-2.5121,-2.5649,-2.5686,-2.5912,-2.6496,0.0,0.0,0.0,0.0,-2.7369,-2.7369,-2.7858,-2.8109,-2.8109,-2.8109,-2.7846,-2.7369,-2.7369,-2.7105,-2.671,-2.6647,-2.6622,-2.6622,-2.6546,-2.6533,-2.6533,-2.6533,-2.6533,-2.6471,-2.5887,-2.5398,-2.4996,-2.4933,0.0,0.0,-2.4268,-2.4092,-2.3991,-2.3416,-2.3215,-2.3226,-2.3226,-2.3128,-2.3078,-2.3078,-2.3078,-2.3078,-2.3078,-2.3078,-2.3078,-2.3078,-2.3078,-2.3078,-2.3078,-2.2736,-2.2385,-2.2322,-2.1393,-2.0542,-1.9974,-1.9849,-1.9798,-1.9798,-1.9798,-1.9798,-1.9798,0.0,0.0,-1.907,-1.8983,-1.8581,-1.7539,-1.7476,-1.7024,-1.6019,-1.5982,-1.6208,-1.6697,-1.671,-1.72,-1.8204,-1.8329,-1.838,-1.8342,-1.6785,-1.6898,0.0,0.0,0.0,0.0,0.0,0.0,0.0,0.0,0.0,0.0,0.0,0.0,0.0,0.0,0.0,-2.074,-2.1656,-2.2347,-2.2899,-2.3376,-2.3715,-2.3816,-2.3929,-2.433,-2.5209,-2.5385,-2.5686,-2.6251,-2.6302,-2.6408,-2.6521,-2.6879,-2.713,-2.713,-2.7657,-2.7946,-2.7946,-2.8059,-2.8109,-2.8109,0.0,0.0,-2.7946,-2.7946,-2.7896,-2.7758,-2.7318,-2.713,-2.708,-2.671,-2.6533,-2.6533,-2.6533,-2.6533,-2.6508,-2.6395,-2.6226,-2.6076,-2.5598,-2.5448,-2.536,-2.4833,-2.4669,-2.4644,-2.4531,-2.4192,0.0,-2.3841,-2.3502,-2.3078,-2.3078,-2.3078,-2.3078,-2.3078,-2.3078,-2.3078,-2.3078,-2.3078,-2.3078,-2.3078,-2.299,-2.2836,-2.2385,-2.1393,-2.068,-2.0514,-2.01,-1.9798,-1.9798,-1.9798,-1.9798,-1.9798,-1.9798,-1.9597,-1.907,-1.8983,-1.8744,-1.8091,-1.8053,-1.7953,-1.7727,-1.7727,-1.7777,-1.7877,-1.7877,-1.799,-1.8204,-1.907,-1.9497,-1.9472,-1.8731,-1.8781,0.0,0.0,0.0,0.0,0.0,0.0,0.0,0.0,0.0,0.0,0.0,-1.7049,-1.8719,0.0,-2.0715,-2.2083,-2.2786,-2.3351,-2.3904,-2.423,-2.4305,-2.4029,-2.4469,-2.5008,-2.5548,-2.585,-2.6151,-2.6508,-2.6533,-2.6647,-2.6854,-2.713,-2.7406,-2.7682,-2.8235,-2.8511,-2.8511,-2.88,-2.895,-2.895,-2.895,-2.88,-2.8511,-2.8511,-2.836,-2.8097,-2.7821,-2.7695,-2.7657,-2.7105,-2.6866,-2.6841,-2.6634,-2.6533,-2.6533,-2.6533,-2.6533,-2.6483,-2.6126,-2.6025,-2.5937,-2.5385,-2.5209,-2.5159,-2.4895,-2.4632,-2.4356,-2.4079,-2.3791,-2.3502,-2.3153,-2.3078,-2.3078,-2.3078,-2.3078,-2.3078,-2.3078,-2.3078,-2.3078,-2.3078,-2.3078,-2.2977,-2.2774,-2.2033,-2.1393,-2.1117,-2.0602,-2.0238,-2.0238,-1.9987,-1.9798,-1.9798,-1.9798,-1.9698,-1.9434,-1.9171,-1.892,-1.8631,-1.8355,-1.8204,-1.8204,-1.8204,-1.8342,-1.8606,-1.8869,-1.9145,-1.9434,-2.025,-2.0639,-2.0639,-2.0665,-2.0815,0.0,0.0,0.0,0.0,0.0,0.0,0.0,0.0,-1.6481,-1.7899,-1.853,-1.9284,-2.0727,-2.1443,-2.2133,-2.3138,-2.3791,-2.4318,-2.4757,-2.4908,-2.477,-2.4217,-2.5008,-2.5636,-2.5749,-2.6189,-2.6533,-2.6533,-2.6634,-2.6816,-2.7256,-2.7494,-2.7808,-2.8247,-2.88,-2.9089,-2.9089,-2.9566,-2.9792,-2.9792,-2.9792,-2.9553,-2.9089,-2.9089,-2.885,-2.8423,-2.831,-2.821,-2.8072,-2.762,-2.7444,-2.7394,-2.6841,-2.6684,-2.6603,-2.6571,-2.6533,-2.6533,-2.6533,-2.6533,-2.6445,-2.5912,-2.5762,-2.5686,-2.5272,-2.5059,-2.4883,-2.4431,-2.423,-2.4029,-2.3452,-2.3301,-2.3276,-2.3103,-2.3078,-2.3078,-2.3078,-2.3078,-2.3078,-2.3078,-2.3078,-2.3078,-2.3078,-2.2761,-2.2284,-2.1732,-2.1179,-2.0882,-2.0882,-2.0413,-2.0087,-1.9987,-1.9962,-1.9924,-1.9811,-1.9409,-1.9183,-1.9183,-1.8756,-1.8518,-1.8518,-1.8618,-1.8894,-1.9334,-1.9861,-2.0363,-2.0882,-2.138,-2.1644,-2.1656,-2.2221,-2.241,-1.3815,-1.4074,-1.5043,-1.7185,-1.7483,-1.7824,0.0,0.0,-2.0384,-2.0927,-2.1079,-2.133,-2.2008,-2.2573,-2.3163,-2.3803,-2.4368,-2.4745,-2.4808,-2.5222,-2.531,-2.4795,-2.5247,-2.5799,-2.6382,-2.6496,-2.6533,-2.6533,-2.6917,-2.7218,-2.7281,-2.821,-2.8775,-2.8837,-2.9402,-2.9691,-2.9691,-2.9767,-2.9792,-2.9792,-2.9792,-2.9754,-2.9691,-2.9691,-2.9666,-2.9578,-2.9063,-2.8561,-2.8097,-2.8047,-2.8009,-2.7959,-2.7406,-2.7193,-2.713,-2.671,-2.6533,-2.6533,-2.6533,-2.6533,-2.6521,-2.6445,-2.6433,-2.642,-2.6302,-2.5912,-2.5498,-2.5435,-2.5084,-2.4607,-2.4042,-2.3904,-2.3766,-2.3263,-2.3078,-2.3078,-2.3078,-2.3078,-2.3078,-2.3078,-2.3078,-2.3078,-2.3078,-2.3027,-2.2862,-2.2297,-2.1744,-2.1393,-2.1393,-2.1343,-2.1117,-2.0668,-2.0618,-2.0363,-1.9849,-1.9748,-1.971,-1.971,-1.966,-1.9623,-1.9623,-2.0125,-2.0467,-2.0489,-2.1029,-2.133,-2.1393,-2.1945,-2.2221,-2.2234,-2.2786,-2.2786,-1.6207,-1.7348,-1.8654,0.0,-2.0457,-2.0955,-2.1929,-2.181,-2.151,-2.1888,-2.197,-2.2133,-2.2686,-2.2975,-2.3366,0.0,-2.4669,-2.5046,-2.5686,-2.5674,-2.5523,-2.5297,-2.546,-2.5686,-2.5937,-2.6264,-2.6533,-2.6533,-2.6967,-2.7419,-2.7745,-2.8499,-2.9089,-2.9415,-2.9666,-2.9792,-2.9792,-2.9792,-2.9792,-2.9792,-2.9792,-2.9792,-2.9792,-2.9792,-2.9792,-2.9779,-2.9528,-2.9302,-2.9063,-2.8725,-2.8586,-2.8536,-2.7971,-2.7557,-2.7218,-2.6666,-2.6533,-2.6533,-2.6533,-2.6533,-2.6533,-2.6533,-2.6533,-2.6533,-2.6533,-2.6289,-2.6025,-2.5686,-2.5435,-2.5146,-2.4619,-2.4481,-2.433,-2.3766,-2.364,-2.3552,-2.3213,-2.3078,-2.3078,-2.3078,-2.3078,-2.3078,-2.3078,-2.3078,-2.299,-2.2824,-2.2322,-2.197,-2.197,-2.1681,-2.1393,-2.1167,-2.1142,-2.0916,-2.0351,-2.03,-2.03,-2.03,-2.03,-2.0451,-2.0778,-2.1016,-2.1142,-2.1142,-2.1681,-2.197,-2.197,-2.2523,-2.2786,-2.2799,-2.3025,-2.2952,-1.8396,-1.9981,0.0,-2.2286,-2.2922,-2.3292,-2.3109,-2.2771,-2.2522,-2.2533,-2.2535,-2.2661,-2.3002,-2.3263,-2.369,-2.4657,-2.4946,-2.5372,-2.6395,-2.5963,-2.5548,-2.5398,-2.5511,-2.5536,-2.5398,-2.6038,-2.6533,-2.6533,-2.7105,-2.7682,-2.8084,-2.8787,-2.9365,-2.9779,-2.9792,-2.9792,-2.9792,-2.9792,-2.9792,-2.9792,-2.9792,-2.9792,-2.9792,-2.9792,-2.9792,-2.9792,-2.9792,-2.9792,-2.9767,-2.934,-2.9164,-2.9114,-2.8549,-2.8084,-2.7657,-2.6942,-2.6659,-2.6533,-2.6533,-2.6533,-2.6533,-2.6533,-2.6533,-2.6533,-2.6533,-2.6533,-2.6445,-2.595,-2.5837,-2.5711,-2.5172,-2.5034,-2.4895,-2.4356,-2.423,-2.4067,-2.3489,-2.3376,-2.3326,-2.3103,-2.3078,-2.3078,-2.3078,-2.3078,-2.3078,-2.3078,-2.2799,-2.2535,-2.2535,-2.2058,-2.1719,-2.1719,-2.1581,-2.133,-2.0928,-2.0891,-2.0891,-2.0891,-2.0891,-2.1066,-2.1468,-2.1631,-2.1719,-2.1719,-2.2259,-2.2535,-2.2535,-2.2937,-2.3078,-2.3078,-2.3078,-2.3165,-2.0296,-2.1234,-2.2143,-2.4014,-2.4491,-2.4419,-2.4357,-2.4269,-2.3995,-2.322,-2.3053,-2.3053,-2.3078,-2.359,-2.4155,-2.4732,-2.5247,-2.5774,-2.6445,-2.5963,-2.541,-2.4908,-2.5285,-2.5398,0.0,-2.5824,-2.6533,-2.6533,-2.7469,-2.8084,-2.8109,-2.9164,-2.9779,-2.9792,-2.9792,-2.9792,-2.9792,-2.9792,-2.9792,-2.9792,-2.9792,-2.9792,-2.9792,-2.9792,-2.9792,-2.9792,-2.9792,-2.9792,-2.9792,-2.9779,-2.9767,-2.9704,-2.9126,-2.89,-2.875,-2.7657,-2.6917,-2.6533,-2.6533,-2.6533,-2.6533,-2.6533,-2.6533,-2.6533,-2.6533,-2.6533,-2.6533,-2.6508,-2.6496,-2.6302,-2.5724,-2.5573,-2.5435,-2.4921,-2.4795,-2.4644,-2.4092,-2.3966,-2.3803,-2.3178,-2.3078,-2.3078,-2.3078,-2.3078,-2.3078,-2.3078,-2.3065,-2.3053,-2.3053,-2.2623,-2.2284,-2.2284,-2.1807,-2.1481,-2.1468,-2.1468,-2.1468,-2.1468,-2.1468,-2.1468,-2.1493,-2.1995,-2.2284,-2.2284,-2.2824,-2.3053,-2.3053,-2.3065,-2.3078,-2.3078,-2.3078,-2.3439,-2.061,0.0,-2.3909,-2.5001,-2.556,-2.5739,-2.5213,-2.5025,-2.456,-2.2883,-2.2585,-2.2472,-2.2108,-2.2498,-2.3188,-2.413,-2.4732,-2.541,-2.6395,-2.5963,-2.5523,-2.536,-2.5485,0.0,0.0,0.0,0.0,-2.6533,-2.7482,-2.8109,-2.8109,-2.9176,-2.9792,-2.9792,-2.9792,-2.9792,-2.9792,-2.9792,-2.9792,-2.9792,-2.9792,-2.9792,-2.9792,-2.9792,-2.9792,-2.9792,-2.9792,-2.9792,-2.9792,-2.9792,-2.9792,-2.9779,-2.9578,-2.9264,-2.8888,-2.8511,-2.8021,-2.7444,-2.6716,-2.6533,-2.6533,-2.6533,-2.6533,-2.6533,-2.6533,-2.6533,-2.6533,-2.6533,-2.6533,-2.6483,-2.6214,-2.6163,-2.6025,-2.5473,-2.5335,-2.5197,-2.4657,-2.4255,-2.3941,-2.3753,-2.3389,-2.3078,-2.3078,-2.3078,-2.3078,-2.3078,-2.3078,-2.3078,-2.3078,-2.2915,-2.2862,-2.2862,-2.2686,-2.2435,-2.2071,-2.2033,-2.2033,-2.2033,-2.2033,-2.2196,-2.2573,-2.2761,-2.2862,-2.2862,-2.2977,-2.3078,-2.3078,-2.3078,-2.3339,-2.3703,-2.3703,-2.4004,-2.1643,-2.3407,-2.5196,-2.6093,-2.6421,-2.6418,-2.5915,-2.5218,-2.4227,-2.2721,-2.2071,-2.1556,-2.0991,-2.1179,-2.192,-2.3439,-2.3991,-2.4745,-2.6251,-2.5963,-2.5674,-2.5887,-2.59,-2.5988,0.0,0.0,0.0,-2.6766,-2.777,-2.8398,-2.8398,-2.9277,-2.9792,-2.9792,-2.9792,-2.9792,-2.9792,-2.9792,-2.9792,-2.9792,-2.9792,-2.9792,-2.9792,-2.9792,-2.9792,-2.9792,-2.9792,-2.9792,-2.9792,-2.9792,-2.9792,-2.9792,-2.9792,-2.9566,-2.9214,-2.9001,-2.8699,-2.8247,-2.713,-2.6753,-2.6716,-2.6596,-2.6533,-2.6533,-2.6533,-2.6533,-2.6533,-2.6533,-2.6533,-2.6533,-2.6533,-2.6533,-2.6433,-2.5988,-2.59,-2.5762,-2.5222,-2.482,-2.4519,-2.433,-2.3991,-2.3678,-2.3477,-2.3215,-2.3078,-2.3078,-2.3078,-2.3078,-2.3078,-2.3078,-2.3078,-2.3078,-2.3078,-2.2927,-2.2636,-2.2611,-2.2611,-2.2611,-2.2611,-2.2761,-2.3065,-2.3078,-2.3078,-2.3078,-2.3078,-2.3078,-2.3078,-2.3078,-2.3427,-2.4004,-2.4004,-2.4393,-2.3383,-2.4779,-2.6019,-2.726,-2.7086,-2.6549,-2.6467,-2.4859,-2.3226,-2.2604,-2.1521,-2.0401,-1.9786,0.0,-2.0552,-2.2639,-2.3078,-2.3979,-2.6219,-2.6013,-2.5887,0.0,0.0,0.0,0.0,0.0,0.0,-2.7406,0.0,-2.8925,-2.8925,-2.9478,-2.9792,-2.9792,-2.9792,-2.9792,-2.9792,-2.9792,-2.9792,-2.9792,-2.9792,-2.9792,-2.9792,-2.9792,-2.9792,-2.9792,-2.9792,-2.9792,-2.9792,-2.9792,-2.9792,-2.9792,-2.9792,-2.9792,-2.9729,-2.9176,-2.8976,-2.8812,-2.7745,-2.7344,-2.7231,-2.6747,-2.6571,-2.6559,-2.6533,-2.6533,-2.6533,-2.6533,-2.6533,-2.6533,-2.6533,-2.6533,-2.6533,-2.6533,-2.6533,-2.6314,-2.5762,-2.5611,-2.5448,-2.4958,-2.4845,-2.4657,-2.413,-2.359,-2.3153,-2.3128,-2.3175,-2.3103,-2.3078,-2.3078,-2.3078,-2.3078,-2.3078,-2.3078,-2.3078,-2.3078,-2.3078,-2.3078,-2.3078,-2.3078,-2.3078,-2.3078,-2.3078,-2.3078,-2.3078,-2.309,-2.3175,-2.3175,-2.3489,-2.4079,-2.4079,-2.4632,-2.4784,-2.6087,-2.7156,-2.7535,-2.7458,-2.707,-2.598,-2.4643,-2.3169,-2.1595,-2.0308,-1.9145,-1.8179,0.0,0.0,-2.1744,-2.3301,0.0,-2.6332,-2.6691,0.0,-2.7055,0.0,-2.7745,-2.7883,-2.8398,0.0,0.0,-2.8775,-2.8925,-2.8925,-2.9478,-2.9792,-2.9792,-2.9792,-2.9792,-2.9792,-2.9792,-2.9792,-2.9792,-2.9792,-2.9792,-2.9792,-2.9792,-2.9792,-2.9792,-2.9792,-2.9792,-2.9792,-2.9792,-2.9792,-2.9792,-2.9792,-2.9792,-2.9779,-2.9628,-2.9578,-2.9465,-2.875,-2.8235,-2.7808,-2.7256,-2.708,-2.6992,-2.6647,-2.6533,-2.6533,-2.6533,-2.6533,-2.6533,-2.6533,-2.6533,-2.6533,-2.6533,-2.6533,-2.6483,-2.6264,-2.59,-2.5548,-2.5423,-2.5084,-2.4782,-2.4632,-2.4494,-2.4255,-2.3841,-2.3778,-2.3615,-2.3188,-2.3078,-2.3078,-2.3078,-2.3078,-2.3078,-2.3078,-2.3078,-2.3078,-2.3078,-2.3078,-2.3078,-2.3078,-2.3078,-2.3078,-2.3078,-2.3078,-2.3351,-2.3778,-2.3778,-2.4268,-2.5184,-2.5184,-2.5573,-2.5711,-2.6782,-2.7625,-2.7625,-2.7184,-2.6468,-2.5408,-2.3786,-2.2002,-2.0187,-1.8797,0.0,-1.6484,-1.7689,0.0,0.0,0.0,0.0,-2.5862,-2.6766,-2.7226,0.0,-2.7828,0.0,-2.816,-2.8797,-2.9302,0.0,-2.9302,-2.9302,-2.9302,-2.9616,-2.9792,-2.9792,-2.9792,-2.9792,-2.9792,-2.9792,-2.9792,-2.9792,-2.9792,-2.9792,-2.9792,-2.9792,-2.9792,-2.9792,0.0,-2.9792,-2.9792,-2.9792,-2.9792,-2.9792,-2.9792,-2.9792,-2.9792,-2.9792,-2.9792,-2.9741,-2.9415,-2.9101,-2.8712,-2.7908,-2.7482,-2.7218,-2.6917,-2.6722,-2.6533,-2.6533,-2.6533,-2.6533,-2.6533,-2.6533,-2.6533,-2.6533,-2.6533,-2.6533,-2.6533,-2.6201,-2.5975,-2.5975,-2.5536,-2.5159,-2.5159,-2.4971,-2.472,-2.4406,-2.4356,-2.4155,-2.359,-2.3288,-2.3078,-2.3078,-2.3078,-2.3078,-2.3078,-2.3078,-2.3078,-2.3078,-2.3078,-2.3078,-2.3078,-2.3078,-2.319,-2.3502,-2.3514,-2.3791,-2.4356,-2.4356,-2.4782,-2.5598,-2.5598,-2.59,-2.6219,-2.7026,-2.7458,-2.7458,-2.6418,-2.5279,-2.4673,-2.2589,-2.0334,-1.8695,0.0,-1.6007,-1.5079,-1.5831,-1.728,-1.9295,0.0,-2.2882,-2.514,-2.6414,-2.7038,-2.6752,-2.7949,-2.8577,-2.8128,-2.9015,-2.9534,-2.9534,-2.9702,-2.9792,-2.9792,-2.9792,-2.9792,-2.9792,-2.9792,-2.9792,-2.9792,-2.9792,-2.9792,-2.9792,-2.9792,-2.9792,-2.9792,-2.9792,-2.9792,-2.9792,-2.9792,0.0,-2.9792,-2.9792,-2.9792,-2.9792,-2.9792,-2.9792,-2.9792,-2.9792,-2.9792,-2.9792,-2.9792,-2.9792,-2.9616,-2.8561,-2.7846,-2.7381,-2.7306,-2.6904,-2.6533,-2.6533,-2.6533,-2.6533,-2.6533,-2.6533,-2.6533,-2.6533,-2.6533,-2.6533,-2.6533,-2.6533,-2.6533,-2.6533,-2.605,-2.5711,-2.5711,-2.5335,-2.5008,-2.4933,-2.4921,-2.472,-2.418,-2.3602,-2.3165,-2.3078,-2.314,-2.3165,-2.3078,-2.3215,-2.3265,-2.319,-2.3265,-2.3303,-2.3303,-2.3303,-2.359,-2.4104,-2.4104,-2.4381,-2.4921,-2.4921,-2.5197,-2.5711,-2.5711,-2.5975,-2.6321,-2.6582,-2.6669,-2.6669,-2.5678,-2.4431,-2.33,-2.1254,0.0,0.0,-1.6333,-1.5103,-1.4941,-1.617,-1.7604,-1.8622,0.0,0.0,0.0,0.0,-2.6639,0.0,0.0,0.0,0.0,0.0,0.0,0.0,0.0,-2.9792,-2.9792,-2.9792,-2.9792,-2.9792,-2.9792,-2.9792,-2.9792,-2.9792,-2.9792,-2.9792,-2.9792,-2.9792,-2.9792,-2.9792,-2.9792,-2.9792,-2.9792,0.0,-2.9792,-2.9792,-2.9792,-2.9792,-2.9792,-2.9792,-2.9792,-2.9792,-2.9792,-2.9792,-2.9792,-2.9792,-2.9679,-2.9001,-2.8411,-2.7871,-2.7419,-2.6904,-2.6533,-2.6533,-2.6533,-2.6533,-2.6533,-2.6533,-2.6533,-2.6533,-2.6533,-2.6533,-2.6533,-2.6533,-2.6533,-2.6533,-2.6445,-2.6314,-2.6314,-2.6239,-2.6013,-2.5536,-2.546,-2.5272,-2.4745,-2.4192,-2.3665,-2.3128,-2.3565,-2.3653,-2.3115,-2.3929,-2.4343,-2.3879,-2.428,-2.4531,-2.4531,-2.4531,-2.4582,-2.4669,-2.4682,-2.4946,-2.546,-2.546,-2.5749,-2.6314,-2.6314,-2.6433,-2.5669,-2.596,-2.596,-2.596,-2.4498,-2.2793,-2.1599,0.0,0.0,0.0,-1.5082,-1.4387,-1.4074,-1.5379,0.0,0.0,0.0,0.0,0.0,0.0,0.0,0.0,0.0,0.0,0.0,0.0,0.0,0.0,0.0,-2.9792,-2.9792,-2.9792,-2.9792,-2.9792,-2.9792,-2.9792,-2.9792,-2.9792,-2.9792,-2.9792,-2.9792,-2.9792,-2.9792,-2.9792,-2.9792,-2.9792,-2.9792,0.0,-2.9792,-2.9792,-2.9792,-2.9792,-2.9792,-2.9792,-2.9792,-2.9792,-2.9792,-2.9792,-2.9792,-2.9792,-2.9691,-2.9114,-2.8561,-2.8059,-2.7795,-2.713,-2.6533,-2.6533,-2.6533,-2.6533,-2.6533,-2.6533,-2.6533,-2.6533,-2.6533,-2.6533,-2.6533,-2.6533,-2.6533,-2.6533,-2.6533,-2.6533,-2.6533,-2.6533,-2.6433,-2.6088,-2.605,-2.585,-2.5297,-2.4996,-2.4619,-2.4079,-2.4255,-2.4318,-2.4042,-2.4506,-2.4707,-2.4443,-2.4669,-2.482,-2.482,-2.482,-2.4946,-2.5222,-2.5222,-2.5498,-2.605,-2.605,-2.6189,-2.6533,-2.6533,-2.6533,-2.4681,-2.5079,-2.5175,-2.5175,-2.3339,-2.1261,-2.0105,-1.801,0.0,-1.4412,-1.3997,-1.3785,-1.3318,-1.4312,-1.5208,0.0,-1.6895,0.0,0.0,0.0,0.0,0.0,0.0,0.0,0.0,0.0,0.0,0.0,0.0,0.0,-2.9792,-2.9792,-2.9792,-2.9792,-2.9792,-2.9792,-2.9792,-2.9792,-2.9792,-2.9792,-2.9792,-2.9792,-2.9792,-2.9792,-2.9792,-2.9792,-2.9792,0.0,0.0,-2.9792,-2.9792,-2.9792,-2.9792,-2.9792,-2.9792,-2.9792,-2.9792,-2.9792,-2.9792,-2.9792,-2.9691,-2.9114,-2.8561,-2.8084,-2.7959,-2.7243,-2.6533,-2.6533,-2.6533,-2.6533,-2.6533,-2.6533,-2.6533,-2.6533,-2.6533,-2.6533,-2.6533,-2.6533,-2.6533,-2.6533,-2.6533,-2.6533,-2.6533,-2.6533,-2.6533,-2.6533,-2.6533,-2.6302,-2.5837,-2.5774,-2.5624,-2.5222,-2.5059,-2.4946,-2.4833,-2.5034,-2.5121,-2.4996,-2.5109,-2.5172,-2.5172,-2.5172,-2.536,-2.5774,-2.5774,-2.6,-2.6533,-2.6533,-2.6533,-2.6533,-2.6533,-2.6533,-2.3559,-2.3983,-2.4408,-2.4408,-2.26,-2.0482,-1.9371,0.0,-1.5442,-1.4324,-1.3647,-1.3293,-1.3287,-1.3404,-1.3732,-1.4382,-1.5054,-1.6252,0.0,0.0,0.0,0.0,0.0,0.0,0.0,0.0,0.0,0.0,0.0,0.0,-2.9792,-2.9792,-2.9792,-2.9792,-2.9792,-2.9792,-2.9792,-2.9792,-2.9792,-2.9792,-2.9792,-2.9792,-2.9792,-2.9792,-2.9792,-2.9792,-2.9792,0.0,0.0,-2.9792,-2.9792,-2.9792,-2.9792,-2.9792,-2.9792,-2.9792,-2.9792,-2.9792,-2.9792,-2.9792,-2.9691,-2.9114,-2.8561,-2.8009,-2.7507,-2.6929,-2.6533,-2.6533,-2.6533,-2.6533,-2.6533,-2.6533,-2.6533,-2.6533,-2.6533,-2.6533,-2.6533,-2.6533,-2.6533,-2.6533,-2.6533,-2.6533,-2.6533,-2.6533,-2.6533,-2.6533,-2.6533,-2.6508,-2.6389,-2.6445,-2.6433,-2.6382,-2.5837,-2.5335,-2.4858,-2.5737,-2.6088,-2.5561,-2.6013,-2.6314,-2.6314,-2.6314,-2.6395,-2.6445,-2.6445,-2.6471,-2.6533,-2.6533,-2.6533,-2.6533,-2.6533,-2.6533,-2.2462,-2.2911,-2.309,-2.309,-2.1602,-1.9773,-1.8355,0.0,-1.4411,-1.3362,-1.2949,-1.271,-1.244,-1.288,-1.3247,-1.3133,-1.3554,-1.4478,-1.6148,0.0,0.0,0.0,0.0,0.0,0.0,0.0,0.0,0.0,0.0,0.0,-2.9792,-2.9792,-2.9792,-2.9792,-2.9792,-2.9792,-2.9792,-2.9792,-2.9792,-2.9792,-2.9792,-2.9792,-2.9792,-2.9792,-2.9792,-2.9792,-2.9792,0.0,0.0,-2.9792,-2.9792,-2.9792,-2.9792,-2.9792,-2.9792,-2.9792,-2.9792,-2.9792,-2.9792,-2.9566,-2.9189,-2.8612,-2.8059,-2.757,-2.7344,-2.6904,-2.6533,-2.6533,-2.6533,-2.6533,-2.6533,-2.6533,-2.6533,-2.6533,-2.6533,-2.6533,-2.6533,-2.6533,-2.6533,-2.6533,-2.6533,-2.6533,-2.6533,-2.6533,-2.6533,-2.6533,-2.6533,-2.6533,-2.6533,-2.6533,-2.6533,-2.6533,-2.6319,-2.6038,-2.5824,-2.6214,-2.6433,-2.6138,-2.6395,-2.6533,-2.6533,-2.6533,-2.6533,-2.6533,-2.6533,-2.6533,-2.6533,-2.6533,-2.6533,-2.6533,-2.6533,-2.6533,-2.1204,-2.182,-2.2071,-2.2071,-2.0815,-1.9133,0.0,-1.5557,-1.3772,-1.2529,-1.2282,-1.2138,-1.1664,-1.2118,-1.248,-1.2172,-1.2518,-1.3263,-1.4596,-1.5254,0.0,0.0,0.0,0.0,0.0,0.0,0.0,0.0,0.0,0.0,-2.9792,-2.9792,-2.9792,-2.9792,-2.9792,-2.9792,-2.9792,-2.9792,-2.9792,-2.9792,-2.9792,-2.9792,-2.9792,-2.9792,-2.9792,-2.9792,-2.9792,0.0,0.0,-2.9792,-2.9792,-2.9792,-2.9792,-2.9792,-2.9792,-2.9792,-2.9792,-2.9767,-2.9591,-2.9277,-2.8737,-2.7779,-2.7125,-2.6791,-2.6333,-2.6321,-2.6533,-2.6533,-2.6533,-2.6533,-2.6533,-2.6533,-2.6533,-2.6533,-2.6533,-2.6533,-2.6533,-2.6533,-2.6533,-2.6533,-2.6533,-2.6533,-2.6533,-2.6533,-2.6533,-2.6533,-2.6533,-2.6533,-2.6533,-2.6533,-2.6533,-2.6533,-2.6533,-2.6533,-2.6533,-2.6533,-2.6533,-2.6533,-2.6533,-2.6533,-2.6533,-2.6533,-2.6533,-2.6533,-2.6533,-2.6533,-2.6533,-2.6533,-2.6533,-2.6533,-2.6533,-2.6533,-1.9685,-2.0639,-2.1493,-2.1493,-2.0263,-1.8585,-1.6975,-1.5331,-1.3643,-1.2124,-1.1811,-1.1627,-1.1132,-1.1019,-1.1129,-1.1545,-1.1934,-1.2822,-1.4541,-1.5576,0.0,0.0,0.0,0.0,0.0,0.0,0.0,0.0,0.0,0.0,-2.9792,-2.9792,-2.9792,-2.9792,-2.9792,-2.9792,-2.9792,-2.9792,-2.9792,-2.9792,-2.9792,-2.9792,-2.9792,-2.9792,-2.9792,0.0,0.0,0.0,0.0,-2.9792,-2.9792,-2.9792,-2.9792,-2.9792,-2.9792,-2.9792,-2.9792,-2.9716,-2.9139,-2.8938,-2.8587,-2.6468,-2.5827,-2.55,-2.3965,-2.4921,-2.6533,-2.6533,-2.6533,-2.6533,-2.6533,-2.6533,-2.6533,-2.6533,-2.6533,-2.6533,-2.6533,-2.6533,-2.6533,-2.6533,-2.6533,-2.6533,-2.6533,-2.6533,-2.6533,-2.6533,-2.6533,-2.6533,-2.6533,-2.6533,-2.6533,-2.6533,-2.6533,-2.6533,-2.6533,-2.6533,-2.6533,-2.6533,-2.6533,-2.6533,-2.6533,-2.6533,-2.6533,-2.6533,-2.6533,-2.6533,-2.6533,-2.6533,-2.6533,-2.6533,-2.6533,-2.6533,-1.7843,-1.8681,-1.9158,-1.8781,-1.7968,-1.6795,-1.5259,-1.3921,-1.2655,-1.1513,-1.1244,-1.1094,-1.0611,-1.0791,-1.1335,-1.2319,-1.2588,-1.3174,0.0,0.0,0.0,0.0,0.0,0.0,0.0,0.0,0.0,0.0,0.0,0.0,-2.9792,-2.9792,-2.9792,-2.9792,-2.9792,-2.9792,-2.9792,-2.9792,-2.9792,-2.9792,-2.9792,-2.9792,-2.9792,-2.9792,-2.9792,0.0,0.0,0.0,0.0,-2.9792,-2.9792,-2.9792,-2.9792,-2.9792,-2.9792,-2.9792,-2.9792,-2.9704,-2.9126,-2.8687,-2.8174,-2.7123,-2.6569,-2.6165,-2.57,-2.5511,-2.5594,-2.6314,-2.6533,-2.6533,-2.6533,-2.6533,-2.6533,-2.6533,-2.6533,-2.6533,-2.6533,-2.6533,-2.6533,-2.6533,-2.6533,-2.6533,-2.6533,-2.6533,-2.6533,-2.6533,-2.6533,-2.6533,-2.6533,-2.6533,-2.6533,-2.6533,-2.6533,-2.6533,-2.6533,-2.6533,-2.6533,-2.6533,-2.6533,-2.6533,-2.6533,-2.6533,-2.6533,-2.6533,-2.6533,-2.6533,-2.6533,-2.6533,-2.6533,-2.6533,-2.6533,-2.6533,-1.5701,-1.6752,-1.7189,-1.6856,-1.617,-1.5236,-1.3882,-1.2921,-1.1973,-1.0956,-1.0725,-1.0649,-1.0351,-1.0544,-1.1085,-1.224,-1.243,-1.2949,0.0,0.0,0.0,0.0,0.0,0.0,0.0,0.0,0.0,0.0,0.0,0.0,-2.9714,-2.9792,-2.9792,-2.9792,-2.9792,-2.9792,-2.9792,-2.9792,-2.9792,-2.9792,-2.9792,-2.9792,-2.9792,-2.9792,-2.9792,0.0,0.0,0.0,0.0,-2.9792,-2.9792,-2.9792,-2.9792,-2.9792,-2.9792,-2.9792,-2.9654,-2.939,-2.8812,-2.826,-2.7635,-2.6705,-2.5932,-2.5346,-2.5346,-2.5217,-2.5146,-2.5734,-2.5955,-2.6025,-2.6383,-2.6533,-2.6533,-2.6533,-2.6533,-2.6533,-2.6533,-2.6533,-2.6533,-2.6533,-2.6533,-2.6533,-2.6533,-2.6533,-2.6533,-2.6533,-2.6533,-2.6533,-2.6533,-2.6533,-2.6533,-2.6533,-2.6533,-2.6533,-2.6533,-2.6533,-2.6533,-2.6533,-2.6533,-2.6533,-2.6533,-2.6533,-2.6533,-2.6533,-2.6533,-2.6533,-2.6533,-2.6533,-2.6533,-2.6533,-2.6533,-2.6533,0.0,-1.4694,-1.5456,-1.542,-1.4654,-1.3696,-1.273,-1.2167,0.0,-1.0518,-1.0283,-1.0303,-1.0361,-1.0391,-1.0675,-1.1636,-1.1792,0.0,0.0,0.0,0.0,0.0,0.0,0.0,0.0,0.0,0.0,0.0,0.0,0.0,-2.9714,-2.9792,-2.9792,-2.9792,-2.9792,-2.9792,-2.9792,-2.9792,-2.9792,-2.9792,-2.9792,-2.9792,-2.9792,-2.9792,-2.9792,0.0,0.0,0.0,0.0,-2.9792,-2.9792,-2.9792,-2.9792,-2.9792,-2.9779,-2.9741,-2.939,-2.885,-2.8247,-2.7708,-2.7039,-2.5468,-2.4337,-2.3599,-2.3441,-2.4108,-2.4933,-2.5004,-2.4933,-2.5146,-2.6094,-2.6383,-2.6383,-2.6452,-2.6533,-2.6533,-2.6533,-2.6533,-2.6533,-2.6533,-2.6533,-2.6533,-2.6533,-2.6533,-2.6533,-2.6533,-2.6533,-2.6533,-2.6533,-2.6533,-2.6533,-2.6533,-2.6533,-2.6533,-2.6533,-2.6533,-2.6533,-2.6533,-2.6533,-2.6533,-2.6533,-2.6533,-2.6533,-2.6533,-2.6533,-2.6533,-2.6533,-2.6533,-2.6533,-2.6533,-2.6533,-2.6546,-1.0145,0.0,-1.2258,-1.1862,-1.1528,-1.1217,0.0,-1.0791,-1.0596,-1.0342,0.0,-1.0518,-1.1175,-1.0986,-1.1367,-1.3223,-1.3525,0.0,0.0,0.0,0.0,0.0,0.0,0.0,0.0,0.0,0.0,0.0,0.0,-2.7718,-2.9714,-2.9792,-2.9792,-2.9792,-2.9792,-2.9792,-2.9792,-2.9792,-2.9792,-2.9792,-2.9792,-2.9792,-2.9792,-2.9792,-2.9792,0.0,0.0,0.0,-2.9792,-2.9792,-2.9792,-2.9792,-2.9792,-2.9792,-2.9741,-2.9289,-2.9051,-2.8787,-2.7821,-2.7394,-2.7039,-2.5468,-2.4862,-2.4337,-2.285,-2.3073,-2.4036,-2.4779,-2.442,-2.4108,-2.5075,-2.537,-2.5523,-2.6314,-2.6533,-2.6533,-2.6533,-2.6533,-2.6533,-2.6533,-2.6533,-2.6533,-2.6533,-2.6533,-2.6533,-2.6533,-2.6533,-2.6533,-2.6533,-2.6533,-2.6533,-2.6533,-2.6533,-2.6533,-2.6533,-2.6533,-2.6533,-2.6533,-2.6533,-2.6533,-2.6533,-2.6533,-2.6533,-2.6533,-2.6533,-2.6533,-2.6533,-2.6533,-2.6533,-2.6533,-2.6533,-2.6747,-0.8449,-0.9787,-1.1069,-1.0793,-1.0667,-1.0636,-1.0636,-1.0447,-1.0283,0.0,0.0,-1.0488,-1.1143,-1.123,0.0,-1.3311,-1.3887,0.0,0.0,0.0,0.0,0.0,0.0,0.0,0.0,0.0,0.0,0.0,0.0,-2.6518,-2.8203,-2.8774,-2.9126,-2.939,-2.9402,-2.9528,-2.9792,-2.9792,-2.9792,-2.9792,-2.9792,-2.9792,-2.9792,-2.9792,-2.9792,0.0,0.0,0.0,-2.9792,-2.9792,-2.9792,-2.9767,-2.9503,-2.9402,-2.9327,-2.8762,-2.8398,-2.8084,-2.7494,-2.7118,-2.6631,-2.4861,-2.4636,-2.4636,-2.2627,-2.2403,-2.2925,-2.3441,-2.322,-2.3073,-2.4036,-2.4337,-2.4564,-2.5581,-2.5804,-2.5955,-2.6383,-2.6533,-2.6533,-2.6533,-2.6533,-2.6533,-2.6533,-2.6533,-2.6533,-2.6533,-2.6533,-2.6533,-2.6533,-2.6533,-2.6533,-2.6533,-2.6533,-2.6533,-2.6533,-2.6533,-2.6533,-2.6533,-2.6533,-2.6533,-2.6533,-2.6533,-2.6533,-2.6533,-2.6533,-2.6533,-2.6533,-2.6533,-2.6533,-2.6533,-2.6533,-2.6753,-0.7851,-0.9369,-1.0864,-1.0646,-1.0703,-1.0811,-1.0811,0.0,0.0,0.0,0.0,0.0,0.0,0.0,0.0,0.0,0.0,0.0,0.0,0.0,0.0,0.0,0.0,0.0,0.0,0.0,0.0,0.0,0.0,-2.5226,-2.6299,-2.7311,-2.8076,-2.8537,-2.8725,-2.9076,-2.9654,-2.9741,-2.9792,-2.9792,-2.9792,-2.9792,-2.9792,-2.9792,-2.9792,-2.9792,0.0,0.0,-2.9779,-2.9691,-2.9666,-2.9603,-2.9026,-2.88,-2.8737,-2.8185,-2.7682,-2.7268,-2.7039,-2.6631,-2.5943,-2.3952,-2.3818,-2.4192,-2.2339,-2.1811,-2.1811,-2.1811,-2.1811,-2.2038,-2.2999,-2.3294,-2.3514,-2.4564,-2.4862,-2.5229,-2.6094,-2.6383,-2.6533,-2.6533,-2.6533,-2.6533,-2.6533,-2.6533,-2.6533,-2.6533,-2.6533,-2.6533,-2.6533,-2.6533,-2.6533,-2.6533,-2.6533,-2.6533,-2.6533,-2.6533,-2.6533,-2.6533,-2.6533,-2.6533,-2.6533,-2.6533,-2.6533,-2.6533,-2.6533,-2.6533,-2.6533,-2.6533,-2.6533,-2.6533,-2.6533,-2.6804,-0.8613,-0.9603,-1.0171,-0.907,-0.9603,-1.0381,-1.0381,-1.0605,0.0,0.0,0.0,0.0,0.0,0.0,0.0,0.0,0.0,0.0,0.0,0.0,0.0,0.0,0.0,0.0,0.0,0.0,0.0,0.0,0.0,-2.4208,-2.5315,-2.6299,-2.6863,-2.6947,-2.7755,-2.8499,-2.9051,-2.9553,-2.9792,-2.9792,-2.9792,-2.9792,-2.9792,-2.9792,-2.9792,-2.9792,0.0,-2.9792,-2.9754,-2.9264,-2.9063,-2.9001,-2.8448,-2.8235,-2.816,-2.7607,-2.7356,-2.7135,-2.579,-2.5301,-2.4921,-2.285,-2.2328,-2.2253,-2.1155,-2.0789,-2.0789,-2.0789,-2.0789,-2.1001,-2.1962,-2.2253,-2.2478,-2.3514,-2.4409,-2.5004,-2.5229,-2.5873,-2.6533,-2.6533,-2.6533,-2.6533,-2.6533,-2.6533,-2.6533,-2.6533,-2.6533,-2.6533,-2.6533,-2.6533,-2.6533,-2.6533,-2.6533,-2.6533,-2.6533,-2.6533,-2.6533,-2.6533,-2.6533,-2.6533,-2.6533,-2.6533,-2.6533,-2.6533,-2.6533,-2.6533,-2.6533,-2.6533,-2.6533,-2.6533,-2.6533,-2.7005,-0.8182,-0.9102,-0.9785,-0.9199,-1.0205,-1.1396,-1.1631,-1.1465,0.0,0.0,0.0,0.0,0.0,0.0,0.0,0.0,0.0,0.0,0.0,0.0,0.0,0.0,0.0,0.0,0.0,0.0,0.0,0.0,0.0,0.0,-2.3438,-2.4946,-2.5898,-2.616,-2.7114,-2.7921,-2.8473,-2.875,-2.9189,-2.9792,-2.9792,-2.9628,-2.9327,-2.9327,-2.9164,-2.8875,0.0,-2.8875,-2.8863,-2.8599,-2.8486,-2.8423,-2.7871,-2.7657,-2.7595,-2.7042,-2.6841,-2.6721,-2.5455,-2.5004,-2.4636,-2.2627,-2.2027,-2.1811,-2.0857,-2.0566,-2.0566,-2.0566,-2.0566,-2.0712,-2.1155,-2.1221,-2.1527,-2.2478,-2.3073,-2.3514,-2.4036,-2.4992,-2.5664,-2.5664,-2.6094,-2.6533,-2.6533,-2.6533,-2.6533,-2.6533,-2.6533,-2.6533,-2.6533,-2.6533,-2.6533,-2.6533,-2.6533,-2.6533,-2.6533,-2.6533,-2.6533,-2.6533,-2.6533,-2.6533,-2.6533,-2.6533,-2.6533,-2.6533,-2.6533,-2.6533,-2.6533,-2.6533,-2.6533,-2.6533,-2.6766,-2.7331,-0.7908,-0.8709,-0.9531,-0.9845,-1.1006,-1.2217,-1.2754,-1.2479,0.0,0.0,0.0,0.0,0.0,0.0,0.0,0.0,0.0,0.0,0.0,0.0,0.0,0.0,0.0,0.0,0.0,0.0,0.0,0.0,0.0,0.0,-2.1659,-2.3588,-2.4811,-2.5248,-2.6476,-2.7356,-2.7908,-2.7908,-2.8411,-2.9402,-2.9402,-2.9164,-2.8737,-2.8737,-2.8511,-2.8109,-2.8109,-2.8109,-2.8097,-2.7959,-2.7908,-2.7858,-2.7306,-2.7092,-2.703,-2.6615,-2.6533,-2.6314,-2.5075,-2.4636,-2.4337,-2.2339,-2.1659,-2.1517,-2.0779,-2.0566,-2.0566,-2.0566,-2.0566,-2.0566,-2.0566,-2.0566,-2.0789,-2.1517,-2.1811,-2.2178,-2.2999,-2.3963,-2.4707,-2.4933,-2.5581,-2.6233,-2.6452,-2.6533,-2.6533,-2.6533,-2.6533,-2.6533,-2.6533,-2.6533,-2.6533,-2.6533,-2.6533,-2.6533,-2.6533,-2.6533,-2.6533,-2.6533,-2.6533,-2.6533,-2.6533,-2.6533,-2.6533,-2.6533,-2.6533,-2.6533,-2.6533,-2.6533,-2.6383,-2.6176,-2.6947,-2.7498,-0.8484,-0.8977,-0.9319,-1.0495,-1.1221,0.0,-1.2686,-1.3135,0.0,-1.4434,0.0,0.0,0.0,0.0,0.0,0.0,0.0,0.0,0.0,0.0,0.0,0.0,0.0,0.0,0.0,0.0,0.0,0.0,0.0,0.0,-2.0712,-2.2563,-2.361,-2.3644,-2.556,-2.6848,-2.7344,-2.7344,-2.7645,-2.8222,-2.8222,-2.821,-2.816,-2.816,-2.8147,-2.8109,-2.8109,-2.8109,-2.8059,-2.7557,-2.7344,-2.7293,-2.6798,-2.6584,-2.6584,-2.6546,-2.6533,-2.6233,-2.4253,-2.3599,-2.3305,-2.1298,-2.0712,-2.0722,-2.0644,-2.0566,-2.0566,-2.0566,-2.0566,-2.0566,-2.0566,-2.0566,-2.0644,-2.0712,-2.1375,-2.2027,-2.2103,-2.2925,-2.3891,-2.4791,-2.5087,-2.537,-2.6314,-2.6533,-2.6533,-2.6533,-2.6533,-2.6533,-2.6533,-2.6533,-2.6533,-2.6533,-2.6533,-2.6533,-2.6533,-2.6533,-2.6533,-2.6533,-2.6533,-2.6533,-2.6533,-2.6533,-2.6533,-2.6533,-2.6533,-2.6533,-2.6533,-2.6533,-2.6025,-2.517,-2.6581,-2.7112,-0.7519,-0.8294,-0.9039,-1.0225,-1.1087,0.0,0.0,-1.3594,-1.4141,-1.5,-1.5176,0.0,0.0,0.0,0.0,0.0,0.0,0.0,0.0,0.0,0.0,0.0,0.0,0.0,0.0,0.0,0.0,0.0,0.0,0.0,-2.0566,-2.2414,-2.3514,-2.3514,-2.5429,-2.6634,-2.6766,-2.6766,-2.6879,-2.7092,-2.777,-2.7921,-2.7595,-2.7595,-2.7406,-2.708,-2.708,-2.708,-2.7067,-2.6854,-2.6766,-2.6753,-2.6609,-2.6533,-2.6533,-2.6533,-2.6094,-2.537,-2.3963,-2.3073,-2.2328,-2.1011,-2.0566,-2.0566,-2.0566,-2.0566,-2.0566,-2.0566,-2.0566,-2.0566,-2.0566,-2.0566,-2.0566,-2.0566,-2.0857,-2.1155,-2.1155,-2.1897,-2.285,-2.3891,-2.4564,-2.53,-2.6314,-2.6533,-2.6533,-2.6533,-2.6533,-2.6533,-2.6533,-2.6533,-2.6533,-2.6533,-2.6533,-2.6533,-2.6533,-2.5955,-2.5581,-2.5581,-2.6164,-2.6533,-2.6533,-2.5873,-2.5873,-2.6465,-2.5873,-2.5886,-2.6533,-2.6533,-2.6314,-2.5968,-2.7226,-2.7665,-0.7118,-0.7906,-0.8785,-1.0147,0.0,0.0,-1.3242,-1.3936,-1.4619,-1.5625,0.0,0.0,0.0,0.0,0.0,0.0,0.0,0.0,0.0,0.0,0.0,0.0,0.0,0.0,0.0,0.0,0.0,0.0,0.0,0.0,0.0,-2.2627,-2.3672,-2.3963,-2.5652,-2.6533,-2.6533,-2.6533,-2.6533,-2.6533,-2.7218,-2.7394,-2.7017,-2.7017,-2.6816,-2.6533,-2.6533,-2.6533,-2.6533,-2.6533,-2.6533,-2.6533,-2.6533,-2.6533,-2.6533,-2.6533,-2.6094,-2.5288,-2.3963,-2.3073,-2.2253,-2.1011,-2.0566,-2.0566,-2.0566,-2.0566,-2.0566,-2.0566,-2.0566,-2.0566,-2.0566,-2.0566,-2.0566,-2.0566,-2.0566,-2.0566,-2.0566,-2.1078,-2.1811,-2.285,-2.3818,-2.485,-2.5873,-2.6314,-2.6533,-2.6533,-2.6533,-2.6533,-2.6533,-2.6233,-2.5873,-2.5569,-2.5873,-2.6025,-2.6025,-2.5664,-2.5441,-2.5441,-2.5804,-2.6025,-2.6025,-2.537,-2.5441,-2.6452,-2.5804,-2.5664,-2.6025,-2.6025,-2.5721,-2.5075,-2.6517,-2.6938,-0.7507,-0.8079,-0.8652,0.0,0.0,0.0,-1.333,-1.418,-1.5166,-1.6475,0.0,0.0,0.0,0.0,0.0,0.0,0.0,0.0,0.0,0.0,0.0,0.0,0.0,0.0,0.0,0.0,0.0,0.0,0.0,0.0,0.0,-2.2914,-2.3952,-2.4933,-2.5943,-2.6533,-2.6533,-2.6533,-2.6533,-2.6533,-2.6533,-2.6533,-2.6533,-2.6533,-2.6533,-2.6533,-2.6533,-2.6533,-2.6533,-2.6533,-2.6533,-2.6533,-2.6533,-2.6533,-2.6533,-2.6465,-2.6452,-2.6164,-2.4181,-2.3514,-2.3147,-2.1231,-2.0566,-2.0566,-2.0566,-2.0566,-2.0566,-2.0566,-2.0566,-2.0566,-2.0566,-2.0566,-2.0566,-2.0566,-2.0566,-2.0566,-2.0566,-2.0566,-2.0857,-2.1811,-2.2776,-2.3818,-2.4791,-2.5804,-2.6452,-2.6452,-2.6452,-2.6452,-2.6452,-2.5594,-2.4636,-2.3599,-2.4409,-2.5004,-2.5016,-2.5873,-2.6452,-2.6452,-2.5511,-2.4933,-2.5004,-2.5004,-2.5441,-2.6452,-2.6452,-2.5955,-2.5016,-2.5016,-2.3963,-2.2048,-2.4062,-2.4445,-0.6387,-0.7345,0.0,0.0,0.0,0.0,0.0,-1.5068,0.0,0.0,0.0,0.0,0.0,0.0,0.0,0.0,0.0,0.0,0.0,0.0,0.0,0.0,0.0,0.0,0.0,0.0,0.0,0.0,0.0,0.0,0.0,-2.2319,-2.3521,-2.4388,-2.5758,-2.6533,-2.6533,-2.6533,-2.6533,-2.6533,-2.6533,-2.6533,-2.6533,-2.6533,-2.6533,-2.6533,-2.6533,-2.6533,-2.6533,-2.6533,-2.6533,-2.6533,-2.6533,-2.6533,-2.6383,-2.5734,-2.4992,-2.4169,-2.2914,-2.2038,-2.1385,-2.0789,-2.0566,-2.0566,-2.0566,-2.0566,-2.0566,-2.0566,-2.0566,-2.0566,-2.0566,-2.0566,-2.0566,-2.0566,-2.0566,-2.0566,-2.0566,-2.0566,-2.0857,-2.1811,-2.2253,-2.2776,-2.3745,-2.4779,-2.5217,-2.448,-2.4992,-2.5217,-2.4469,-2.4108,-2.3818,-2.3514,-2.4409,-2.4707,-2.4036,-2.4253,-2.4097,-2.3356,-2.2414,-2.2872,-2.4933,-2.3672,-2.3368,-2.4397,-2.3734,-2.3514,-2.3963,-2.3963,-2.3672,-2.3084,-2.4013,-2.4503,-0.6628,-0.7837,0.0,0.0,0.0,0.0,0.0,0.0,0.0,0.0,0.0,0.0,0.0,0.0,0.0,0.0,0.0,0.0,0.0,0.0,0.0,0.0,0.0,0.0,0.0,0.0,0.0,0.0,0.0,0.0,0.0,-2.2059,-2.3133,-2.4408,-2.5356,-2.5912,-2.6113,-2.6113,-2.6239,-2.6533,-2.6533,-2.6533,-2.6533,-2.6533,-2.6533,-2.6533,-2.6533,-2.6533,-2.6452,-2.6094,-2.5873,-2.5873,-2.5429,-2.5276,-2.5205,-2.4624,-2.4036,-2.3368,-2.2328,-2.1659,-2.1078,-2.0712,-2.0566,-2.0566,-2.0566,-2.0566,-2.0566,-2.0566,-2.0566,-2.0566,-2.0566,-2.0566,-2.0566,-2.0566,-2.0566,-2.0566,-2.0566,-2.0566,-2.0789,-2.1298,-2.1735,-2.2178,-2.2776,-2.3745,-2.4192,-2.3588,-2.4337,-2.4636,-2.3661,-2.3514,-2.3368,-2.2925,-2.3452,-2.3588,-2.2925,-2.3294,-2.322,-2.2627,-2.1669,-2.1973,-2.3734,-2.2627,-2.2478,-2.3514,-2.2925,-2.2702,-2.2925,-2.2925,-2.2702,-2.2349,-2.2828,-2.32,-0.7601,0.0,0.0,0.0,0.0,0.0,0.0,0.0,0.0,0.0,0.0,0.0,0.0,0.0,0.0,0.0,0.0,0.0,0.0,0.0,0.0,0.0,0.0,0.0,0.0,0.0,0.0,0.0,0.0,0.0,0.0,-2.1946,-2.2805,-2.468,-2.4795,-2.5046,-2.5523,-2.5523,-2.5812,-2.6445,-2.6445,-2.6483,-2.6533,-2.6533,-2.6533,-2.6533,-2.6533,-2.6533,-2.6383,-2.5441,-2.5004,-2.4933,-2.3891,-2.3514,-2.3514,-2.3368,-2.3368,-2.322,-2.2253,-2.1886,-2.1735,-2.0857,-2.0566,-2.0566,-2.0566,-2.0566,-2.0566,-2.0566,-2.0566,-2.0566,-2.0566,-2.0566,-2.0566,-2.0566,-2.0566,-2.0566,-2.0566,-2.0566,-2.0566,-2.0566,-2.1298,-2.1886,-2.1886,-2.2702,-2.3368,-2.3368,-2.4036,-2.4264,-2.3368,-2.322,-2.285,-2.1962,-2.1962,-2.1952,-2.1886,-2.2776,-2.3294,-2.322,-2.2403,-2.1886,-2.1886,-2.1886,-2.2328,-2.322,-2.322,-2.2776,-2.1886,-2.1886,-2.1441,-2.0576,-2.0986,-2.1191,-0.6539,-0.7941,0.0,0.0,0.0,0.0,0.0,0.0,0.0,0.0,0.0,0.0,0.0,0.0,0.0,0.0,0.0,0.0,0.0,0.0,0.0,0.0,0.0,0.0,0.0,0.0,0.0,0.0,0.0,0.0,-2.0828,-2.1263,-2.2348,-2.4104,-2.4594,-2.487,-2.4983,-2.4983,-2.5259,0.0,-2.5787,-2.6013,-2.6533,-2.6533,-2.6533,-2.6533,-2.6533,-2.6533,-2.6383,-2.5441,-2.5004,-2.4933,-2.3891,-2.3514,-2.3368,-2.2627,-2.2328,-2.2178,-2.1221,-2.0934,-2.0857,-2.0634,-2.0566,-2.0566,-2.0566,-2.0566,-2.0566,-2.0566,-2.0566,-2.0566,-2.0566,-2.0566,-2.0566,-2.0566,-2.0566,-2.0566,-2.0566,-2.0566,-2.0566,-2.0566,-2.0789,-2.0934,-2.0934,-2.1669,-2.2328,-2.2328,-2.1897,-2.1461,-2.1231,-2.1231,-2.1165,-2.0934,-2.1593,-2.1735,-2.0934,-2.1735,-2.2038,-2.1231,-2.1011,-2.0934,-2.0934,-2.0934,-2.1011,-2.1231,-2.1231,-2.1088,-2.0934,-2.0934,-2.0789,-2.0566,-2.0664,-2.0898,-0.6313,0.0,0.0,0.0,0.0,0.0,0.0,0.0,0.0,0.0,0.0,0.0,0.0,0.0,0.0,0.0,0.0,0.0,0.0,0.0,0.0,0.0,0.0,0.0,0.0,0.0,0.0,0.0,0.0,-1.8596,-1.9879,-2.0249,-2.0971,-2.2345,-2.3077,-2.3548,-2.3806,-2.4227,-2.4695,-2.5222,-2.5222,-2.5385,-2.5686,-2.6214,-2.6533,-2.6452,-2.6025,-2.5804,-2.5664,-2.4181,-2.3588,-2.3441,-2.2489,-2.2124,-2.2048,-2.1517,-2.1298,-2.1221,-2.0789,-2.0566,-2.0566,-2.0566,-2.0566,-2.0566,-2.0566,-2.0566,-2.0566,-2.0566,-2.0566,-2.0566,-2.0566,-2.0566,-2.0566,-2.0566,-2.0566,-2.0566,-2.0566,-2.0566,-2.0566,-2.0566,-2.0566,-2.0566,-2.0566,-2.1011,-2.1298,-2.1298,-2.1298,-2.1298,-2.1298,-2.1298,-2.1298,-2.1298,-2.1298,-2.1155,-2.0644,-2.1078,-2.1155,-2.0644,-2.0566,-2.0566,-2.0566,-2.0566,-2.0566,-2.0566,-2.0566,-2.0566,-2.0566,-2.0566,-2.0566,-2.0566,-2.0566,-2.0684,-0.6211,0.0,0.0,0.0,0.0,0.0,0.0,0.0,0.0,0.0,0.0,0.0,0.0,0.0,0.0,0.0,0.0,0.0,0.0,0.0,0.0,0.0,0.0,0.0,0.0,0.0,0.0,0.0,0.0,-1.8405,-1.9233,-1.9299,-1.9683,-2.059,-2.1302,-2.1891,-2.2315,-2.3191,-2.3928,-2.4476,-2.4705,-2.4743,-2.4573,-2.5695,-2.6176,-2.6176,-2.5175,-2.4743,-2.459,-2.2611,-2.1796,-2.1732,-2.0781,-2.0342,-2.0342,-2.0342,-2.0342,-2.0361,-2.043,-2.0449,-2.0469,-2.0537,-2.0566,-2.0566,-2.0566,-2.0566,-2.0566,-2.0566,-2.0566,-2.0566,-2.0566,-2.0566,-2.0566,-2.0566,-2.0566,-2.0566,-2.0566,-2.0566,-2.0566,-2.0566,-2.0566,-2.0566,-2.0566,-2.0566,-2.0566,-2.0566,-2.1221,-2.1735,-2.1735,-2.1735,-2.1735,-2.1735,-2.1078,-2.0566,-2.0566,-2.0566,-2.0566,-2.0566,-2.0566,-2.0566,-2.0566,-2.0566,-2.0566,-2.0566,-2.0566,-2.0566,-2.0566,-2.0566,-2.0566,-2.0566,-2.0566,-2.0566,0.0,0.0,0.0,0.0,0.0,0.0,0.0,0.0,0.0,0.0,0.0,0.0,0.0,0.0,0.0,0.0,0.0,0.0,0.0,0.0,0.0,0.0,0.0,0.0,0.0,0.0,0.0,0.0,-1.7803,-1.8405,-1.9233,-1.9299,-1.9683,-2.059,-2.0719,-2.0816,-2.0884,-2.1722,-2.2447,-2.2975,-2.4248,-2.4406,-2.3713,-2.462,-2.5046,-2.4968,-2.4062,-2.3716,-2.3582,-2.1701,-2.0934,-2.0862,-1.9882,-1.9453,-1.9453,-1.9453,-1.9453,-1.9512,-1.9873,-2.0,-2.0059,-2.0439,-2.0566,-2.0566,-2.0566,-2.0566,-2.0566,-2.0566,-2.0566,-2.0566,-2.0566,-2.0566,-2.0566,-2.0566,-2.0566,-2.0566,-2.0566,-2.0566,-2.0566,-2.0566,-2.0566,-2.0566,-2.0566,-2.0566,-2.0566,-2.0566,-2.0712,-2.0789,-2.0789,-2.0789,-2.0789,-2.0789,-2.0634,-2.0566,-2.0566,-2.0566,-2.0566,-2.0566,-2.0566,-2.0566,-2.0566,-2.0566,-2.0566,-2.0566,-2.0566,-2.0566,-2.0566,-2.0566,-2.0566,-2.0566,-2.0566,-2.0566,-0.6604,0.0,0.0,0.0,0.0,0.0,0.0,0.0,0.0,0.0,0.0,0.0,0.0,0.0,0.0,0.0,0.0,0.0,0.0,0.0,0.0,0.0,0.0,0.0,0.0,0.0,0.0,0.0,-1.7549,-1.7955,-1.8519,-1.8586,-1.8721,-1.911,-1.9628,-1.9879,-1.9879,-2.1239,-2.1996,-2.2222,-2.2384,-2.2233,-2.1897,-2.2298,-2.3018,-2.3989,-2.3077,-2.24,-2.1862,-2.0542,-1.9991,-1.9919,-1.9495,-1.9287,-1.9287,-1.9287,-1.9287,-1.9316,-1.9502,-1.9561,-1.96,-1.9785,-1.9853,-1.9893,-2.0127,-2.0195,-2.0254,-2.0498,-2.0566,-2.0566,-2.0566,-2.0566,-2.0566,-2.0566,-2.0566,-2.0566,-2.0566,-2.0566,-2.0566,-2.0566,-2.0566,-2.0566,-2.0566,-2.0566,-2.0566,-2.0566,-2.0566,-2.0566,-2.0566,-2.0566,-2.0566,-2.0566,-2.0566,-2.0566,-2.0566,-2.0566,-2.0566,-2.0566,-2.0566,-2.0566,-2.0566,-2.0566,-2.0566,-2.0566,-2.0566,-2.0566,-2.0566,-2.0566,-2.0566,-2.0566,-2.0566,-2.0566,0.0,0.0,0.0,0.0,0.0,0.0,0.0,0.0,0.0,0.0,0.0,0.0,0.0,0.0,0.0,0.0,0.0,0.0,0.0,0.0,0.0,0.0,0.0,0.0,0.0,0.0,0.0,0.0,-1.7148,-1.7402,-1.7832,-1.7852,-1.79,-1.8008,-1.8654,-1.8977,-1.8977,-2.0462,-2.1239,-2.1227,-2.0782,-2.0462,-2.0268,-2.0526,-2.1255,-2.2359,-2.161,-2.0997,-2.0338,-1.9373,-1.8965,-1.8965,-1.8965,-1.8965,-1.8965,-1.8965,-1.8965,-1.8975,-1.9092,-1.9121,-1.9141,-1.9248,-1.9287,-1.9346,-1.9658,-1.9756,-1.9844,-2.0273,-2.04,-2.042,-2.0537,-2.0566,-2.0566,-2.0566,-2.0566,-2.0566,-2.0566,-2.0566,-2.0566,-2.0566,-2.0566,-2.0566,-2.0566,-2.0566,-2.0566,-2.0566,-2.0566,-2.0566,-2.0566,-2.0566,-2.0566,-2.0566,-2.0566,-2.0566,-2.0566,-2.0566,-2.0566,-2.0566,-2.0566,-2.0566,-2.0566,-2.0566,-2.0566,-2.0566,-2.0566,-2.0566,-2.0566,-2.0566,-2.0566,-2.0566,-2.0566,-2.0566,0.0,-0.6212,0.0,0.0,0.0,0.0,0.0,0.0,0.0,0.0,0.0,0.0,0.0,0.0,0.0,0.0,0.0,0.0,0.0,0.0,0.0,0.0,0.0,0.0,0.0,0.0,0.0,0.0,-1.6523,-1.6953,-1.7393,-1.7422,-1.7598,-1.7998,-1.8008,-1.8076,-1.8076,-1.8977,-1.9431,-1.9431,-2.0204,-2.0139,-1.9431,-2.0204,-2.0226,-1.9505,-1.9438,-1.9438,-1.9316,-1.8397,-1.8076,-1.8076,-1.8076,-1.8076,-1.8076,-1.8076,-1.8076,-1.8135,-1.8525,-1.8672,-1.874,-1.915,-1.9287,-1.9287,-1.9316,-1.9316,-1.9404,-1.9824,-1.9951,-2.0049,-2.0459,-2.0566,-2.0566,-2.0566,-2.0566,-2.0566,-2.0566,-2.0566,-2.0566,-2.0566,-2.0566,-2.0566,-2.0566,-2.0566,-2.0566,-2.0566,-2.0566,-2.0566,-2.0566,-2.0566,-2.0566,-2.0566,-2.0566,-2.0566,-2.0566,-2.0566,-2.0566,-2.0566,-2.0566,-2.0566,-2.0566,-2.0566,-2.0566,-2.0566,-2.0566,-2.0566,-2.0566,-2.0566,-2.0566,-2.0566,-2.0566,-2.0566,-0.545,0.0,0.0,0.0,0.0,0.0,0.0,0.0,0.0,0.0,0.0,0.0,0.0,0.0,0.0,0.0,0.0,0.0,0.0,0.0,0.0,0.0,0.0,0.0,0.0,0.0,0.0,0.0,0.0,-1.6494,-1.6943,-1.6963,-1.7041,-1.7187,-1.7461,-1.7992,-1.8844,-1.8596,-1.8721,-1.9299,-1.9044,-1.8787,-1.8462,-1.8787,-1.8787,-1.8462,-1.8462,-1.8462,-1.8462,-1.8144,-1.8008,-1.8008,-1.8008,-1.8008,-1.8008,-1.8008,-1.8008,-1.8037,-1.8184,-1.8232,-1.8262,-1.8418,-1.8467,-1.8516,-1.8789,-1.8867,-1.8955,-1.9394,-1.9512,-1.9541,-1.9707,-1.9941,-2.0215,-2.0498,-2.0566,-2.0566,-2.0566,-2.0566,-2.0566,-2.0566,-2.0566,-2.0566,-2.0566,-2.0566,-2.0566,-2.0566,-2.0566,-2.0566,-2.0566,-2.0566,-2.0566,-2.0566,-2.0566,-2.0566,-2.0566,-2.0566,-2.0566,-2.0566,-2.0566,-2.0566,-2.0566,-2.0566,-2.0566,-2.0566,-2.0566,-2.0566,-2.0566,-2.0566,-2.0566,-2.0566,-2.0566,-2.0566,-0.4798,-0.4808,0.0,0.0,0.0,0.0,0.0,0.0,0.0,0.0,0.0,0.0,0.0,0.0,0.0,0.0,0.0,0.0,0.0,0.0,0.0,0.0,0.0,0.0,0.0,0.0,0.0,0.0,0.0,0.0,-1.6484,-1.6514,-1.6572,-1.6728,-1.7012,-1.7615,-1.8629,-1.8118,-1.8188,-1.8854,-1.8269,-1.8008,-1.8008,-1.8008,-1.8008,-1.8008,-1.8008,-1.8008,-1.8008,-1.8008,-1.8008,-1.8008,-1.8008,-1.8008,-1.8008,-1.8008,-1.8008,-1.8008,-1.8008,-1.8008,-1.8008,-1.8008,-1.8008,-1.8057,-1.834,-1.8428,-1.8516,-1.8945,-1.9072,-1.9102,-1.9248,-1.9492,-1.9814,-2.0244,-2.0352,-2.0391,-2.0537,-2.0566,-2.0566,-2.0566,-2.0566,-2.0566,-2.0566,-2.0566,-2.0566,-2.0566,-2.0566,-2.0566,-2.0566,-2.0566,-2.0566,-2.0566,-2.0566,-2.0566,-2.0566,-2.0566,-2.0566,-2.0566,-2.0566,-2.0566,-2.0566,-2.0566,-2.0566,-2.0566,-2.0566,-2.0566,-2.0566,-2.0566,-2.0566,-2.0566,-2.0566,-2.0566,0.0,0.0,0.0,0.0,0.0,0.0,0.0,0.0,0.0,0.0,0.0,0.0,0.0,0.0,0.0,0.0,0.0,0.0,0.0,0.0,0.0,0.0,0.0,0.0,0.0,0.0,0.0,0.0,-1.541,-1.5596,-1.6086,-1.6105,-1.625,-1.6699,-1.6709,-1.6924,-1.7363,-1.7363,-1.7568,-1.7978,-1.7988,-1.7988,-1.7988,-1.8008,-1.8008,-1.8008,-1.8008,-1.8008,-1.8008,-1.8008,-1.8008,-1.8008,-1.8008,-1.8008,-1.8008,-1.8008,-1.8008,-1.8008,-1.8008,-1.8008,-1.8008,-1.8008,-1.8008,-1.8008,-1.8008,-1.8008,-1.8096,-1.8506,-1.8553,-1.8721,-1.916,-1.9268,-1.9375,-1.9795,-1.9893,-2.0019,-2.0449,-2.0547,-2.0547,-2.0566,-2.0566,-2.0566,-2.0566,-2.0566,-2.0566,-2.0566,-2.0566,-2.0566,-2.0566,-2.0566,-2.0566,-2.0566,-2.0566,-2.0566,-2.0566,-2.0566,-2.0566,-2.0566,-2.0566,-2.0566,-2.0566,-2.0566,-2.0566,-2.0566,-2.0566,-2.0566,-2.0566,-2.0566,-2.0566,-2.0566,-2.0566,-2.0566,-0.3566,0.0,0.0,0.0,0.0,0.0,0.0,0.0,0.0,0.0,0.0,0.0,0.0,0.0,0.0,0.0,0.0,0.0,0.0,0.0,0.0,0.0,0.0,0.0,0.0,0.0,0.0,0.0,-1.541,-1.5469,-1.5586,-1.5586,-1.5791,-1.623,-1.625,-1.6465,-1.6914,-1.6914,-1.6973,-1.709,-1.7402,-1.7559,-1.7568,-1.7871,-1.8008,-1.8008,-1.8008,-1.8008,-1.8008,-1.8008,-1.8008,-1.8008,-1.8008,-1.8008,-1.8008,-1.8008,-1.8008,-1.8008,-1.8008,-1.8008,-1.8008,-1.8008,-1.8008,-1.8008,-1.8008,-1.8008,-1.8037,-1.8154,-1.8184,-1.8281,-1.8701,-1.8818,-1.8926,-1.9355,-1.9463,-1.958,-2.0,-2.0088,-2.0185,-2.0508,-2.0566,-2.0566,-2.0566,-2.0566,-2.0566,-2.0566,-2.0566,-2.0566,-2.0566,-2.0566,-2.0566,-2.0566,-2.0566,-2.0566,-2.0566,-2.0566,-2.0566,-2.0566,-2.0566,-2.0566,-2.0566,-2.0566,-2.0566,-2.0566,-2.0566,-2.0566,-2.0566,-2.0566,-2.0566,-2.0566,-2.0566,-2.0566,-0.3951,-0.4021,0.0,0.0,0.0,0.0,0.0,-0.7705,0.0,0.0,0.0,0.0,0.0,0.0,0.0,0.0,0.0,0.0,0.0,0.0,0.0,0.0,0.0,0.0,0.0,-1.4414,-1.4619,-1.4863,-1.5049,-1.5225,-1.54,-1.541,-1.5527,-1.5781,-1.5791,-1.6006,-1.6445,-1.6455,-1.6543,-1.6675,-1.6992,-1.7109,-1.7119,-1.7363,-1.7578,-1.7744,-1.7744,-1.7852,-1.8008,-1.8008,-1.8008,-1.8008,-1.8008,-1.8008,-1.8008,-1.8008,-1.8008,-1.8008,-1.8008,-1.8008,-1.8008,-1.8008,-1.8008,-1.8008,-1.8008,-1.8008,-1.8008,-1.8008,-1.8008,-1.8066,-1.8311,-1.8379,-1.8486,-1.8916,-1.9014,-1.9131,-1.9561,-1.9648,-1.9834,-2.0449,-2.0566,-2.0566,-2.0566,-2.0566,-2.0566,-2.0566,-2.0566,-2.0566,-2.0566,-2.0566,-2.0566,-2.0566,-2.0566,-2.0566,-2.0566,-2.0566,-2.0566,-2.0566,-2.0566,-2.0566,-2.0566,-2.0566,-2.0566,-2.0566,-2.0566,-2.0566,-2.0566,-2.0566,-2.0566,-2.0566,-2.0566,-2.0566,-0.4583,-0.4549,0.0,0.0,0.0,0.0,-0.715,-0.7098,0.0,0.0,0.0,0.0,0.0,0.0,0.0,0.0,0.0,0.0,0.0,0.0,0.0,0.0,0.0,0.0,-1.3506,-1.3848,-1.4029,-1.4077,-1.4531,-1.4951,-1.5322,-1.5391,-1.541,-1.541,-1.541,-1.5596,-1.6047,-1.5986,-1.6191,-1.6592,-1.6641,-1.666,-1.666,-1.6709,-1.6943,-1.7314,-1.7314,-1.7529,-1.7871,-1.792,-1.7969,-1.8008,-1.8008,-1.8008,-1.8008,-1.8008,-1.8008,-1.8008,-1.8008,-1.8008,-1.8008,-1.8008,-1.8008,-1.8008,-1.8008,-1.8008,-1.8008,-1.8008,-1.8008,-1.8008,-1.8008,-1.8008,-1.8105,-1.8477,-1.8494,-1.8682,-1.9121,-1.9219,-1.9453,-2.0273,-2.0459,-2.0498,-2.0498,-2.0537,-2.0566,-2.0566,-2.0566,-2.0566,-2.0566,-2.0566,-2.0566,-2.0566,-2.0566,-2.0566,-2.0566,-2.0566,-2.0566,-2.0566,-2.0566,-2.0566,-2.0566,-2.0566,-2.0566,-2.0566,-2.0566,-2.0566,-2.0566,-2.0566,-2.0566,-2.0566,-2.0566,-2.0566,-0.519,-0.549,0.0,0.0,0.0,0.0,0.0,-0.5591,0.0,0.0,0.0,0.0,0.0,0.0,0.0,0.0,0.0,0.0,0.0,0.0,0.0,0.0,0.0,0.0,-1.3477,-1.3584,-1.3769,-1.4058,-1.4531,-1.4814,-1.4902,-1.5225,-1.541,-1.541,-1.541,-1.5449,-1.5537,-1.5537,-1.5586,-1.5674,-1.6025,-1.6191,-1.6211,-1.6562,-1.6777,-1.6855,-1.6855,-1.6904,-1.7012,-1.7363,-1.7705,-1.8008,-1.8008,-1.8008,-1.8008,-1.8008,-1.8008,-1.8008,-1.8008,-1.8008,-1.8008,-1.8008,-1.8008,-1.8008,-1.8008,-1.8008,-1.8008,-1.8008,-1.8008,-1.8008,-1.8008,-1.8008,-1.8037,-1.8115,-1.8135,-1.8252,-1.8672,-1.876,-1.8916,-1.9434,-1.9814,-2.0039,-2.0039,-2.0332,-2.0566,-2.0566,-2.0566,-2.0566,-2.0566,-2.0566,-2.0566,-2.0566,-2.0566,-2.0566,-2.0566,-2.0566,-2.0566,-2.0566,-2.0566,-2.0566,-2.0566,-2.0566,-2.0566,-2.0566,-2.0566,-2.0566,-2.0566,-2.0566,-2.0566,-2.0566,-2.0566,-2.0566,-0.5867,-0.5967,0.0,-0.5785,0.0,0.0,0.0,0.0,-0.5614,0.0,0.0,0.0,0.0,0.0,0.0,0.0,0.0,0.0,0.0,0.0,0.0,0.0,0.0,0.0,-1.3174,-1.3193,-1.3369,-1.3789,-1.4023,-1.4238,-1.4453,-1.4863,-1.5098,-1.5098,-1.5303,-1.541,-1.541,-1.541,-1.541,-1.541,-1.5635,-1.5732,-1.5752,-1.5967,-1.6191,-1.6396,-1.6396,-1.6523,-1.6748,-1.6973,-1.7187,-1.7412,-1.7842,-1.8008,-1.8008,-1.8008,-1.8008,-1.8008,-1.8008,-1.8008,-1.8008,-1.8008,-1.8008,-1.8008,-1.8008,-1.8008,-1.8008,-1.8008,-1.8008,-1.8008,-1.8008,-1.8008,-1.8008,-1.8008,-1.8008,-1.8066,-1.8281,-1.832,-1.8389,-1.8613,-1.8994,-1.9346,-1.9561,-1.9951,-2.0244,-2.0244,-2.042,-2.0566,-2.0566,-2.0566,-2.0566,-2.0566,-2.0566,-2.0566,-2.0566,-2.0566,-2.0566,-2.0566,-2.0566,-2.0566,-2.0566,-2.0566,-2.0566,-2.0566,-2.0566,-2.0566,-2.0566,-2.0566,-2.0566,-2.0566,-2.0566,-2.0566,0.0,0.0,0.0,0.0,0.0,-0.5909,0.0,0.0,0.0,-0.6421,0.0,0.0,0.0,0.0,0.0,0.0,0.0,0.0,0.0,0.0,0.0,0.0,0.0,0.0,0.0,-1.2676,-1.2842,-1.335,-1.3311,-1.3477,-1.3984,-1.4424,-1.4697,-1.4785,-1.5117,-1.5332,-1.541,-1.541,-1.541,-1.541,-1.541,-1.541,-1.541,-1.541,-1.5605,-1.5998,-1.5998,-1.6143,-1.6484,-1.6572,-1.6602,-1.668,-1.7461,-1.7764,-1.7773,-1.7861,-1.7891,-1.79,-1.7978,-1.8008,-1.8008,-1.8008,-1.8008,-1.8008,-1.8008,-1.8008,-1.8008,-1.8008,-1.8008,-1.8008,-1.8008,-1.8008,-1.8008,-1.8008,-1.8008,-1.8008,-1.8008,-1.8008,-1.8008,-1.8008,-1.8281,-1.8652,-1.9092,-1.9512,-1.9824,-1.9902,-2.0215,-2.0469,-2.0557,-2.0566,-2.0566,-2.0566,-2.0566,-2.0566,-2.0566,-2.0566,-2.0566,-2.0566,-2.0566,-2.0566,-2.0566,-2.0566,-2.0566,-2.0566,-2.0566,-2.0566,-2.0566,-2.0566,-2.0566,-2.0566,-2.0566,-2.0566,0.0,0.0,0.0,0.0,-0.6921,0.0,0.0,0.0,-0.5431,-0.484,0.0,0.0,0.0,0.0,0.0,0.0,0.0,0.0,0.0,0.0,0.0,0.0,0.0,0.0,0.0,-1.1943,-1.2096,-1.2891,-1.2598,-1.2676,-1.3535,-1.3975,-1.4385,-1.4775,-1.4834,-1.5039,-1.541,-1.541,-1.541,-1.541,-1.541,-1.541,-1.541,-1.541,-1.5439,-1.5488,-1.5488,-1.5518,-1.5586,-1.5986,-1.6143,-1.6182,-1.6689,-1.6875,-1.6924,-1.7305,-1.7451,-1.751,-1.7881,-1.8008,-1.8008,-1.8008,-1.8008,-1.8008,-1.8008,-1.8008,-1.8008,-1.8008,-1.8008,-1.8008,-1.8008,-1.8008,-1.8008,-1.8008,-1.8008,-1.8008,-1.8008,-1.8008,-1.8008,-1.8008,-1.8047,-1.8213,-1.8643,-1.9072,-1.9482,-1.9853,-1.9961,-2.0127,-2.0518,-2.0566,-2.0566,-2.0566,-2.0566,-2.0566,-2.0566,-2.0566,-2.0566,-2.0566,-2.0566,-2.0566,-2.0566,-2.0566,-2.0566,-2.0566,-2.0566,-2.0566,-2.0566,-2.0566,-2.0566,-2.0566,-2.0566,-2.0566,0.0,0.0,0.0,0.0,0.0,0.0,-0.5838,0.0,-0.5451,0.0,0.0,0.0,0.0,0.0,0.0,0.0,0.0,0.0,0.0,0.0,0.0,0.0,0.0,0.0,0.0,0.0,0.0,0.0,-1.1943,-1.2109,-1.2686,-1.3408,-1.3848,-1.4033,-1.4521,-1.4873,-1.5049,-1.5293,-1.541,-1.541,-1.541,-1.541,-1.541,-1.541,-1.541,-1.541,-1.541,-1.541,-1.543,-1.5605,-1.5684,-1.5703,-1.5889,-1.6279,-1.6694,-1.6943,-1.7002,-1.707,-1.75,-1.7646,-1.7686,-1.793,-1.8008,-1.8008,-1.8008,-1.8008,-1.8008,-1.8008,-1.8008,-1.8008,-1.8008,-1.8008,-1.8008,-1.8008,-1.8008,-1.8008,-1.8008,-1.8008,-1.8008,-1.8008,-1.8008,-1.8066,-1.8242,-1.8623,-1.8975,-1.915,-1.96,-1.998,-2.0166,-2.041,-2.0566,-2.0566,-2.0566,-2.0566,-2.0566,-2.0566,-2.0566,-2.0566,-2.0566,-2.0566,-2.0566,-2.0566,-2.0566,-2.0566,-2.0566,-2.0566,-2.0566,-2.0566,-2.0566,-2.0566,-2.0566,-2.0566,-0.7248,0.0,0.0,0.0,0.0,0.0,0.0,0.0,0.0,0.0,0.0,0.0,0.0,0.0,0.0,-0.494,0.0,0.0,0.0,0.0,0.0,0.0,0.0,0.0,0.0,0.0,0.0,0.0,0.0,-1.1205,-1.1937,-1.2716,-1.3262,-1.3496,-1.4111,-1.4492,-1.4609,-1.5029,-1.5244,-1.5244,-1.5352,-1.541,-1.541,-1.541,-1.541,-1.541,-1.541,-1.541,-1.541,-1.541,-1.5284,-1.505,-1.505,-1.5311,-1.5745,-1.6316,-1.6553,-1.6611,-1.7051,-1.7285,-1.7451,-1.7871,-1.8008,-1.8008,-1.8008,-1.8008,-1.8008,-1.8008,-1.8008,-1.8008,-1.8008,-1.8008,-1.8008,-1.8008,-1.8008,-1.8008,-1.8008,-1.8008,-1.8008,-1.8008,-1.8008,-1.8008,-1.8008,-1.8262,-1.8506,-1.8553,-1.917,-1.9648,-1.9883,-2.0195,-2.0439,-2.0557,-2.0566,-2.0566,-2.0566,-2.0566,-2.0479,-2.0167,-2.0157,-2.0001,-1.9678,-1.9678,-1.9678,-1.9678,-1.9678,-1.9678,-1.9678,-1.9678,-1.9678,-1.9678,-2.0001,-2.0323,0.0,0.0,0.0,-0.6512,0.0,0.0,0.0,0.0,-0.6088,0.0,0.0,0.0,0.0,0.0,-0.5591,-0.5311,-0.5309,0.0,0.0,0.0,0.0,0.0,0.0,0.0,0.0,0.0,0.0,0.0,0.0,0.0,-1.1342,-1.1948,-1.2646,-1.3477,-1.3535,-1.374,-1.4097,-1.459,-1.4805,-1.4805,-1.5215,-1.541,-1.541,-1.541,-1.541,-1.541,-1.541,-1.541,-1.541,-1.541,-1.4932,-1.4273,-1.4273,-1.3803,-1.3388,-1.5364,-1.6145,-1.6213,-1.6602,-1.7031,-1.7451,-1.7871,-1.8008,-1.8008,-1.8008,-1.8008,-1.8008,-1.8008,-1.8008,-1.8008,-1.8008,-1.8008,-1.8008,-1.8008,-1.8008,-1.8008,-1.8008,-1.8008,-1.8008,-1.8008,-1.8008,-1.8008,-1.8008,-1.8018,-1.8164,-1.8574,-1.8592,-1.8975,-1.9805,-1.9922,-2.0098,-2.0518,-2.0566,-2.0566,-2.0566,-2.0566,-2.0157,-1.9116,-1.9036,-1.8559,-1.7423,-1.7423,-1.7423,-1.7423,-1.7423,-1.7423,-1.7423,-1.7423,-1.7423,-1.7423,-1.8559,-1.9599,0.0,0.0,-0.7983,-0.6981,0.0,0.0,0.0,0.0,0.0,0.0,0.0,0.0,0.0,-0.5979,-0.5618,-0.5356,-0.5117,-0.4783,0.0,0.0,0.0,0.0,0.0,0.0,0.0,0.0,0.0,0.0,-0.9097,0.0,0.0,-1.1107,-1.1405,-1.1718,-1.2465,-1.2883,-1.3023,-1.3917,-1.4502,-1.4785,-1.4932,-1.5146,-1.541,-1.541,-1.541,-1.5352,-1.4815,-1.4628,-1.4569,-1.4025,-1.3666,-1.3433,-1.3433,-1.3252,-1.3086,-1.3813,-1.4048,-1.4162,-1.5191,-1.5569,-1.5739,-1.6413,-1.6847,-1.707,-1.707,-1.7501,-1.7872,-1.7235,-1.752,-1.7862,-1.7217,-1.7501,-1.8008,-1.8008,-1.8008,-1.8008,-1.8008,-1.8008,-1.8008,-1.8008,-1.8008,-1.8008,-1.8008,-1.8008,-1.8057,-1.8193,-1.8457,-1.874,-1.9033,-1.9316,-1.9658,-2.0088,-2.0137,-2.0254,-2.0537,-1.9923,-1.9362,-1.9036,-1.831,-1.7658,-1.7334,-1.7342,-1.7342,-1.7342,-1.7342,-1.7342,-1.7342,-1.8069,-1.839,-1.839,-1.8798,-1.9195,-0.8116,-0.823,0.0,-0.7381,-0.7181,0.0,-0.6072,0.0,0.0,0.0,0.0,0.0,0.0,0.0,-0.5898,-0.5498,-0.5066,-0.4568,0.0,-0.4019,0.0,0.0,0.0,0.0,0.0,0.0,-0.7197,-0.772,-0.8267,0.0,0.0,0.0,-1.0746,-1.0805,-1.1516,-1.1921,-1.1921,-1.2723,-1.3329,-1.3644,-1.3747,-1.4025,-1.4415,-1.4415,-1.444,-1.451,-1.4025,-1.3786,-1.3726,-1.3183,-1.2826,-1.2573,-1.2573,-1.2397,-1.2212,-1.2765,-1.3191,-1.3545,-1.4232,-1.4751,-1.5265,-1.5806,-1.6355,-1.6884,-1.7023,-1.7501,-1.7872,-1.7235,-1.752,-1.7862,-1.7285,-1.7569,-1.8008,-1.8008,-1.8008,-1.8008,-1.8008,-1.8008,-1.8008,-1.8008,-1.8008,-1.8008,-1.8008,-1.8008,-1.8008,-1.8008,-1.8242,-1.8467,-1.8553,-1.8877,-1.9073,-1.9182,-1.9155,-1.9184,-1.9124,-1.8437,-1.7891,-1.7499,-1.6787,-1.6237,-1.5844,-1.5959,-1.5967,-1.5851,-1.5959,-1.6176,-1.6581,-1.7304,-1.7931,-1.839,-1.839,-1.863]},{"header":{"parameterUnit":"m.s-1","parameterCategory":1,"la1":30.6,"la2":29.2853,"lo1":-89.7004,"lo2":-87.6739,"dy":0.0162,"dx":0.0183,"nx":112,"ny":82,"refTime":"2024-09-10T00:00:00:Z","depth":0,"parameterNumber":3,"parameterNumberName":"V-component_of_WINDS"},"data":[0.0,0.0,0.0,0.0,0.0,0.0,0.0,0.0,0.0,0.0,0.0,0.0,0.0,0.0,0.0,0.0,0.0,0.0,0.0,0.0,0.0,0.0,0.0,0.0,0.0,0.0,0.0,0.0,0.0,0.0,0.0,0.0,0.0,0.0,0.0,0.0,0.0,0.0,0.0,0.0,0.0,0.0,0.0,0.0,0.0,0.0,0.0,0.0,0.0,0.0,0.0,0.0,0.0,0.0,0.0,0.0,0.0,0.0,0.0,0.0,0.0,0.0,0.0,0.0,0.0,0.0,0.0,0.0,0.0,0.0,0.0,0.0,0.0,0.0,0.0,0.0,0.0,0.0,0.0,0.0,0.0,0.0,0.0,0.0,0.0,0.0,0.0,0.0,0.0,0.0,0.0,-1.8717,-1.9633,-2.0262,-2.0799,-1.9339,-1.7293,-1.478,0.0,0.0,0.0,0.0,0.0,0.0,0.0,0.0,0.0,0.0,0.0,0.0,0.0,0.0,0.0,0.0,0.0,0.0,0.0,0.0,0.0,0.0,0.0,0.0,0.0,0.0,0.0,0.0,0.0,0.0,0.0,0.0,0.0,0.0,0.0,0.0,0.0,0.0,0.0,0.0,0.0,0.0,0.0,0.0,0.0,0.0,0.0,0.0,0.0,0.0,0.0,0.0,0.0,0.0,0.0,0.0,0.0,0.0,0.0,0.0,0.0,0.0,0.0,0.0,0.0,0.0,0.0,0.0,0.0,0.0,0.0,0.0,0.0,0.0,0.0,0.0,0.0,0.0,0.0,0.0,0.0,0.0,0.0,0.0,0.0,0.0,0.0,0.0,0.0,0.0,0.0,0.0,0.0,0.0,0.0,0.0,0.0,0.0,0.0,0.0,0.0,0.0,0.0,0.0,-1.6234,-2.0004,-2.0512,-2.0623,-2.0727,-2.0055,-1.8344,-1.5367,0.0,0.0,0.0,0.0,0.0,0.0,0.0,0.0,0.0,0.0,0.0,0.0,0.0,0.0,0.0,0.0,0.0,0.0,0.0,0.0,0.0,0.0,0.0,0.0,0.0,0.0,0.0,0.0,0.0,0.0,0.0,0.0,0.0,0.0,0.0,0.0,0.0,0.0,0.0,0.0,0.0,0.0,0.0,0.0,0.0,0.0,0.0,0.0,0.0,0.0,0.0,0.0,0.0,0.0,0.0,0.0,0.0,0.0,0.0,0.0,0.0,0.0,0.0,0.0,0.0,0.0,0.0,0.0,0.0,0.0,0.0,0.0,0.0,0.0,0.0,0.0,0.0,0.0,0.0,0.0,0.0,0.0,0.0,0.0,0.0,0.0,0.0,0.0,0.0,0.0,0.0,0.0,0.0,0.0,0.0,0.0,0.0,0.0,0.0,0.0,0.0,0.0,0.0,-1.6308,-1.7894,-2.0438,-2.0722,-2.0722,-2.0722,-2.0123,-1.8588,-1.5758,-1.3954,0.0,0.0,0.0,0.0,0.0,0.0,0.0,0.0,0.0,0.0,0.0,0.0,0.0,0.0,0.0,0.0,0.0,0.0,0.0,0.0,0.0,0.0,0.0,0.0,0.0,0.0,0.0,0.0,0.0,0.0,0.0,0.0,0.0,0.0,0.0,0.0,0.0,0.0,0.0,0.0,0.0,0.0,0.0,0.0,0.0,0.0,0.0,0.0,0.0,0.0,0.0,0.0,0.0,0.0,0.0,0.0,0.0,0.0,0.0,0.0,0.0,0.0,0.0,0.0,0.0,0.0,0.0,0.0,0.0,0.0,0.0,0.0,0.0,0.0,0.0,0.0,0.0,0.0,0.0,0.0,0.0,0.0,0.0,0.0,0.0,0.0,0.0,0.0,0.0,0.0,0.0,0.0,0.0,0.0,0.0,0.0,0.0,0.0,0.0,0.0,0.0,0.0,-1.8238,-1.9331,-2.0363,-2.0468,-2.0468,-2.0468,-1.9705,-1.8238,-1.5948,-1.4071,0.0,0.0,0.0,0.0,0.0,0.0,0.0,0.0,0.0,0.0,0.0,0.0,0.0,0.0,0.0,0.0,0.0,0.0,0.0,0.0,0.0,0.0,0.0,0.0,0.0,0.0,0.0,0.0,0.0,0.0,0.0,0.0,0.0,0.0,0.0,0.0,0.0,0.0,0.0,0.0,0.0,0.0,0.0,0.0,0.0,0.0,0.0,0.0,0.0,0.0,0.0,0.0,0.0,0.0,0.0,0.0,0.0,0.0,0.0,0.0,0.0,0.0,0.0,0.0,0.0,0.0,0.0,0.0,0.0,0.0,0.0,0.0,0.0,0.0,0.0,0.0,0.0,0.0,0.0,0.0,0.0,0.0,0.0,0.0,0.0,0.0,0.0,0.0,0.0,0.0,0.0,0.0,0.0,0.0,0.0,0.0,0.0,0.0,0.0,0.0,0.0,0.0,-1.8122,-1.966,-1.975,-1.975,-1.975,-1.975,-1.8583,-1.7266,-1.5888,-1.3173,0.0,0.0,0.0,0.0,0.0,0.0,0.0,0.0,0.0,0.0,0.0,0.0,0.0,0.0,0.0,0.0,0.0,0.0,0.0,0.0,0.0,0.0,0.0,0.0,0.0,0.0,0.0,0.0,0.0,0.0,0.0,0.0,0.0,0.0,0.0,0.0,0.0,0.0,0.0,0.0,0.0,0.0,0.0,0.0,0.0,0.0,0.0,0.0,0.0,0.0,0.0,0.0,0.0,0.0,0.0,0.0,0.0,0.0,0.0,0.0,0.0,0.0,0.0,0.0,0.0,0.0,0.0,0.0,0.0,0.0,0.0,0.0,0.0,0.0,0.0,0.0,0.0,0.0,0.0,0.0,0.0,0.0,0.0,0.0,0.0,0.0,0.0,0.0,0.0,0.0,0.0,0.0,0.0,0.0,0.0,0.0,0.0,0.0,0.0,0.0,0.0,0.0,-1.7341,-1.8777,0.0,-1.969,-1.969,-1.969,-1.9226,-1.7864,-1.5349,0.0,0.0,0.0,0.0,0.0,0.0,0.0,0.0,0.0,0.0,0.0,0.0,0.0,0.0,0.0,0.0,0.0,0.0,0.0,0.0,0.0,0.0,0.0,0.0,0.0,0.0,0.0,0.0,0.0,0.0,0.0,0.0,0.0,0.0,0.0,0.0,0.0,0.0,0.0,0.0,0.0,0.0,0.0,0.0,0.0,0.0,0.0,0.0,0.0,0.0,0.0,0.0,0.0,0.0,0.0,0.0,0.0,0.0,0.0,0.0,0.0,0.0,0.0,0.0,0.0,0.0,0.0,0.0,0.0,0.0,0.0,0.0,0.0,0.0,0.0,0.0,0.0,0.0,0.0,0.0,0.0,0.0,0.0,0.0,0.0,0.0,0.0,0.0,0.0,0.0,0.0,0.0,0.0,0.0,0.0,0.0,0.0,0.0,0.0,0.0,0.0,0.0,-1.5514,-1.7281,-1.8687,0.0,-1.969,-1.969,-1.969,-1.9106,-1.7625,-1.4962,0.0,0.0,0.0,0.0,0.0,0.0,0.0,0.0,0.0,0.0,0.0,0.0,0.0,0.0,0.0,0.0,0.0,0.0,0.0,0.0,0.0,0.0,0.0,0.0,0.0,0.0,0.0,0.0,0.0,0.0,0.0,0.0,0.0,0.0,0.0,0.0,0.0,0.0,0.0,0.0,0.0,0.0,0.0,0.0,0.0,0.0,0.0,0.0,0.0,0.0,0.0,0.0,0.0,0.0,0.0,0.0,0.0,0.0,0.0,0.0,0.0,0.0,0.0,0.0,0.0,0.0,0.0,0.0,0.0,0.0,0.0,0.0,0.0,0.0,0.0,0.0,0.0,0.0,0.0,0.0,0.0,0.0,0.0,0.0,0.0,0.0,0.0,0.0,0.0,0.0,0.0,0.0,0.0,0.0,0.0,0.0,0.0,0.0,0.0,0.0,0.0,0.0,-1.5634,-1.8092,-1.969,-1.969,-1.969,-1.969,-1.969,-1.7861,-1.6174,0.0,0.0,0.0,0.0,0.0,0.0,0.0,0.0,0.0,0.0,0.0,0.0,0.0,0.0,0.0,0.0,0.0,0.0,0.0,0.0,0.0,0.0,0.0,0.0,0.0,0.0,0.0,0.0,0.0,0.0,0.0,0.0,0.0,0.0,0.0,0.0,0.0,0.0,0.0,0.0,0.0,0.0,0.0,0.0,0.0,0.0,0.0,0.0,0.0,0.0,0.0,0.0,0.0,0.0,0.0,0.0,0.0,0.0,0.0,0.0,0.0,0.0,0.0,0.0,0.0,0.0,0.0,0.0,0.0,0.0,0.0,0.0,0.0,0.0,0.0,0.0,0.0,0.0,0.0,0.0,0.0,0.0,0.0,0.0,0.0,0.0,0.0,0.0,0.0,0.0,0.0,0.0,0.0,0.0,0.0,0.0,0.0,0.0,0.0,0.0,0.0,0.0,0.0,-1.5634,-1.8092,-1.969,-1.969,-1.969,-1.969,-1.969,-1.9151,-1.767,-1.4962,0.0,0.0,0.0,0.0,0.0,0.0,0.0,0.0,0.0,0.0,0.0,0.0,0.0,0.0,0.0,0.0,0.0,0.0,0.0,0.0,0.0,0.0,0.0,0.0,0.0,0.0,0.0,0.0,0.0,0.0,0.0,0.0,0.0,0.0,0.0,0.0,0.0,0.0,0.0,0.0,0.0,0.0,0.0,0.0,0.0,0.0,0.0,0.0,0.0,0.0,0.0,0.0,0.0,0.0,0.0,0.0,0.0,0.0,0.0,0.0,0.0,0.0,0.0,0.0,0.0,0.0,0.0,0.0,0.0,0.0,0.0,0.0,0.0,0.0,0.0,0.0,0.0,0.0,0.0,0.0,0.0,0.0,0.0,0.0,0.0,0.0,0.0,0.0,0.0,0.0,0.0,0.0,0.0,0.0,0.0,0.0,0.0,0.0,0.0,0.0,0.0,0.0,-1.5634,-1.8092,-1.969,-1.969,-1.969,-1.969,-1.969,-1.9435,-1.8119,-1.5351,0.0,0.0,0.0,0.0,0.0,0.0,0.0,0.0,0.0,0.0,0.0,0.0,0.0,0.0,0.0,0.0,0.0,0.0,0.0,0.0,0.0,0.0,0.0,0.0,0.0,0.0,0.0,0.0,0.0,0.0,0.0,0.0,0.0,0.0,0.0,0.0,0.0,0.0,0.0,0.0,0.0,0.0,0.0,0.0,0.0,0.0,0.0,0.0,0.0,0.0,0.0,0.0,0.0,0.0,0.0,0.0,0.0,0.0,0.0,0.0,0.0,0.0,0.0,0.0,0.0,0.0,0.0,0.0,0.0,0.0,0.0,0.0,0.0,0.0,0.0,0.0,0.0,0.0,0.0,0.0,0.0,0.0,0.0,0.0,0.0,0.0,0.0,0.0,0.0,0.0,0.0,0.0,0.0,0.0,0.0,0.0,0.0,0.0,0.0,0.0,0.0,0.0,-1.5634,-1.8092,-1.969,-1.969,-1.969,-1.969,-1.969,-1.9136,-1.7984,-1.6098,0.0,0.0,0.0,0.0,0.0,0.0,0.0,0.0,0.0,0.0,0.0,0.0,0.0,0.0,0.0,0.0,0.0,0.0,0.0,0.0,0.0,0.0,0.0,0.0,0.0,0.0,0.0,0.0,0.0,0.0,0.0,0.0,0.0,0.0,0.0,0.0,0.0,0.0,0.0,0.0,0.0,0.0,0.0,0.0,0.0,0.0,0.0,0.0,0.0,0.0,0.0,0.0,0.0,0.0,0.0,0.0,0.0,0.0,0.0,0.0,-1.4004,0.0,0.0,0.0,0.0,0.0,0.0,0.0,0.0,0.0,0.0,0.0,0.0,0.0,0.0,0.0,0.0,0.0,0.0,0.0,0.0,0.0,0.0,0.0,0.0,0.0,0.0,0.0,0.0,0.0,0.0,0.0,0.0,0.0,0.0,0.0,0.0,0.0,0.0,0.0,0.0,0.0,-1.5634,-1.8092,-1.969,-1.969,-1.969,-1.969,-1.969,-1.9555,-1.8852,-1.7401,-1.5934,0.0,0.0,0.0,0.0,0.0,0.0,0.0,0.0,0.0,0.0,0.0,0.0,0.0,0.0,0.0,0.0,0.0,0.0,0.0,0.0,0.0,0.0,0.0,0.0,0.0,0.0,0.0,0.0,0.0,0.0,0.0,0.0,0.0,0.0,0.0,0.0,0.0,0.0,0.0,0.0,0.0,0.0,0.0,0.0,0.0,0.0,0.0,0.0,0.0,0.0,0.0,0.0,0.0,0.0,0.0,0.0,0.0,0.0,0.0,0.0,-1.562,0.0,0.0,0.0,0.0,0.0,0.0,0.0,0.0,0.0,0.0,0.0,0.0,0.0,0.0,0.0,0.0,0.0,0.0,0.0,0.0,0.0,0.0,0.0,0.0,0.0,0.0,0.0,0.0,0.0,0.0,0.0,0.0,0.0,0.0,0.0,0.0,0.0,0.0,0.0,0.0,-1.6069,-1.8253,-1.969,-1.969,-1.969,-1.969,-1.969,-1.969,-1.9256,-1.822,-1.6967,0.0,0.0,0.0,0.0,0.0,0.0,0.0,0.0,0.0,0.0,0.0,0.0,0.0,0.0,0.0,0.0,0.0,0.0,0.0,0.0,0.0,0.0,0.0,0.0,0.0,0.0,0.0,0.0,0.0,0.0,0.0,0.0,0.0,0.0,0.0,0.0,0.0,0.0,0.0,0.0,0.0,0.0,0.0,0.0,0.0,0.0,0.0,0.0,0.0,0.0,0.0,0.0,0.0,-2.0602,-2.1246,-2.2218,-2.2323,-2.2682,-2.3056,-2.0857,-1.9645,-1.9121,-1.7772,0.0,0.0,0.0,0.0,0.0,0.0,0.0,0.0,0.0,0.0,0.0,0.0,0.0,0.0,0.0,0.0,0.0,0.0,0.0,0.0,0.0,0.0,0.0,0.0,-1.969,-1.9839,0.0,0.0,0.0,0.0,0.0,0.0,0.0,0.0,0.0,0.0,0.0,0.0,-1.6712,-1.8538,-1.969,-1.969,-1.969,-1.969,-1.969,-1.969,-1.945,-1.8912,-1.7712,-1.6517,0.0,0.0,0.0,0.0,0.0,0.0,0.0,0.0,0.0,0.0,0.0,0.0,0.0,0.0,0.0,0.0,0.0,0.0,0.0,0.0,0.0,0.0,0.0,0.0,0.0,0.0,0.0,0.0,0.0,0.0,0.0,0.0,-1.2396,-1.4111,0.0,0.0,0.0,0.0,0.0,0.0,0.0,0.0,0.0,0.0,0.0,0.0,0.0,-2.0143,-2.1939,-2.2585,-2.2948,-2.3101,-2.4268,-2.4627,-2.4224,-2.4837,-2.5136,-2.5196,-2.4852,0.0,-2.1201,-1.9854,0.0,0.0,0.0,0.0,0.0,0.0,0.0,0.0,0.0,0.0,0.0,0.0,0.0,0.0,0.0,0.0,0.0,0.0,0.0,0.0,0.0,0.0,-2.1171,-2.1171,-2.138,-2.1395,0.0,-1.8354,-1.5935,-1.4648,-1.3929,0.0,0.0,0.0,0.0,0.0,0.0,0.0,-1.7399,-1.8822,-1.969,-1.969,-1.969,-1.969,-1.969,-1.969,-1.9645,-1.9555,-1.8852,-1.8104,-1.7339,-1.6084,0.0,0.0,0.0,0.0,0.0,0.0,0.0,0.0,0.0,0.0,0.0,0.0,0.0,0.0,0.0,0.0,0.0,0.0,0.0,0.0,0.0,0.0,0.0,0.0,0.0,0.0,0.0,0.0,0.0,-1.2188,-1.375,-1.565,-1.549,-1.5042,0.0,0.0,0.0,0.0,0.0,0.0,0.0,0.0,0.0,-2.1306,-2.2084,-2.2892,-2.3759,-2.4777,-2.5465,-2.5839,-2.6826,-2.7141,-2.6871,-2.7156,-2.7081,-2.6707,-2.6707,-2.5854,-2.4313,-2.2592,-2.1335,-2.0378,0.0,0.0,0.0,0.0,-1.9286,-1.963,-2.0348,-2.0378,0.0,-1.9176,0.0,0.0,0.0,0.0,0.0,0.0,0.0,0.0,0.0,0.0,-2.2248,-2.2248,-2.2517,-2.2667,-2.2323,-2.1096,-1.957,0.0,-1.7012,-1.5994,-1.4214,0.0,0.0,0.0,0.0,0.0,-1.8702,-1.9675,-2.0258,-2.0258,-1.9914,-1.969,-1.969,-1.969,-1.969,-1.969,-1.9405,-1.8957,-1.8298,-1.7371,-1.5934,0.0,0.0,0.0,0.0,0.0,0.0,0.0,0.0,0.0,0.0,0.0,0.0,0.0,0.0,0.0,0.0,0.0,0.0,0.0,0.0,0.0,0.0,0.0,0.0,0.0,0.0,0.0,0.0,-1.3865,-1.5457,-1.7249,-1.7785,-1.7684,0.0,0.0,0.0,0.0,0.0,0.0,-2.0587,-2.1335,-2.2398,-2.3923,-2.4866,-2.554,-2.5899,-2.6871,-2.7604,-2.815,-2.8607,-2.8846,-2.8846,-2.8846,-2.8562,-2.8135,-2.8135,-2.7814,-2.7186,-2.5001,-2.3744,-2.3056,-2.1904,-2.1455,-2.1515,-2.1994,-2.2293,-2.2577,-2.3535,-2.3565,-2.3041,-2.2233,-2.138,-2.0528,-1.9735,0.0,0.0,0.0,0.0,-2.1066,-2.159,-2.2577,-2.3385,-2.3221,-2.3535,-2.3684,-2.3041,-2.2906,-2.2368,0.0,-1.9809,-1.8792,-1.6667,0.0,0.0,0.0,0.0,-1.945,-2.0124,-2.0647,-2.0902,-2.0737,-2.0258,-1.9884,-1.969,-1.969,-1.969,-1.969,-1.969,-1.9465,-1.8972,-1.8493,-1.7371,-1.5575,0.0,0.0,0.0,0.0,0.0,0.0,0.0,0.0,0.0,0.0,0.0,0.0,0.0,0.0,0.0,0.0,0.0,0.0,0.0,0.0,0.0,0.0,0.0,0.0,0.0,0.0,0.0,0.0,0.0,-1.9375,-2.0109,0.0,0.0,0.0,0.0,-1.9516,-2.0707,-2.2024,-2.3325,-2.4059,-2.5315,-2.731,-2.7445,-2.8038,-2.9325,-2.94,-2.9445,-2.9475,-2.952,-2.9535,-2.9535,-2.9535,-2.9505,-2.9475,-2.9475,-2.946,-2.922,-2.6587,-2.5121,-2.4403,-2.3729,-2.3445,-2.346,-2.349,-2.3924,-2.4448,-2.4507,-2.4507,-2.4582,-2.5181,-2.4477,-2.3505,-2.4103,-2.3415,0.0,0.0,-2.3849,-2.4343,-2.4388,-2.4941,-2.53,-2.4642,-2.4507,-2.4388,-2.3699,-2.355,-2.3161,0.0,-2.156,-2.1306,-2.0557,0.0,-2.0453,-2.0423,-2.0528,-2.0857,-2.1515,-2.162,-2.141,-2.0782,-2.0677,-2.0393,-1.9735,-1.969,-1.969,-1.969,-1.969,-1.9675,-1.963,-1.96,-1.8957,-1.7578,-1.6293,0.0,0.0,0.0,0.0,0.0,0.0,0.0,0.0,0.0,0.0,0.0,0.0,0.0,0.0,0.0,0.0,0.0,0.0,0.0,0.0,0.0,0.0,0.0,0.0,0.0,0.0,0.0,0.0,-2.1389,-2.1829,0.0,-2.1859,-2.2069,-2.2383,-2.2832,-2.331,-2.4343,-2.6063,-2.6393,-2.723,-2.8816,-2.8861,-2.9101,-2.9579,-2.9983,-3.0178,-3.0178,-3.0627,-3.0612,-3.0178,-3.0178,-2.9968,-2.9579,-2.9579,-2.9579,-2.9505,-2.8562,-2.7784,-2.7066,-2.5959,-2.5525,-2.5525,-2.5525,-2.5674,-2.5899,-2.5899,-2.5899,-2.5854,-2.5674,-2.5285,-2.4941,-2.5181,-2.4941,-2.4612,-2.4837,-2.5076,-2.5255,-2.5255,-2.5435,-2.5555,-2.5315,-2.5255,-2.5076,-2.4403,-2.4253,-2.3999,-2.3086,-2.2592,-2.2113,-2.1455,-2.1335,-2.1201,-2.0782,-2.144,-2.2054,-2.2293,-2.2323,-2.2233,-2.1994,-2.1216,-2.0617,-2.0363,-1.9944,-1.969,-1.969,-1.969,-1.969,-1.969,-1.969,-1.9271,-1.8373,-1.7475,-1.5725,0.0,0.0,0.0,0.0,0.0,0.0,0.0,0.0,0.0,0.0,0.0,0.0,0.0,0.0,0.0,0.0,0.0,0.0,0.0,0.0,0.0,0.0,0.0,0.0,0.0,0.0,-2.0767,-2.2757,-2.3385,-2.3744,-2.3924,-2.4148,-2.4657,-2.5555,-2.5615,-2.6393,-2.8158,-2.8248,-2.8757,-2.9864,-2.9894,-2.9998,-3.0238,-3.0657,-3.0851,-3.0851,-3.1315,-3.13,-3.0851,-3.0851,-3.0627,-3.0238,-3.0238,-3.0238,-3.0223,-2.9983,-2.9639,-2.9131,-2.8038,-2.759,-2.7575,-2.735,-2.726,-2.723,-2.7006,-2.6916,-2.6841,-2.6422,-2.6273,-2.6273,-2.6273,-2.6273,-2.6273,-2.6273,-2.6273,-2.6273,-2.6273,-2.6273,-2.6213,-2.5989,-2.5944,-2.5749,-2.5106,-2.4956,-2.4822,-2.4358,-2.358,-2.2847,-2.2413,-2.2338,-2.2188,-2.1754,-2.2428,-2.2981,-2.2981,-2.2981,-2.2906,-2.2739,-2.1889,-2.1201,-2.0752,-2.0288,-1.9929,-1.969,-1.969,-1.969,-1.969,-1.9465,-1.9151,-1.8717,-1.7625,-1.6204,-1.4468,0.0,0.0,0.0,0.0,0.0,0.0,0.0,0.0,0.0,0.0,0.0,0.0,0.0,0.0,0.0,0.0,0.0,0.0,0.0,0.0,0.0,0.0,0.0,-1.9128,-2.1235,-2.2981,-2.361,-2.4837,-2.5405,-2.4761,-2.533,-2.6243,-2.758,-2.7685,-2.8269,-2.9549,-2.9609,-2.9894,-3.0507,-3.0537,-3.0851,-3.1467,-3.1482,-3.1482,-3.1482,-3.1482,-3.1482,-3.1482,-3.1482,-3.1482,-3.1482,-3.1482,-3.1482,-3.1422,-3.0806,-3.0537,-3.0477,-2.9834,-2.9579,-2.9505,-2.8861,-2.8622,-2.8532,-2.7844,-2.7655,-2.7655,-2.7625,-2.7625,-2.7625,-2.7625,-2.7625,-2.7625,-2.7625,-2.7625,-2.7625,-2.7625,-2.7625,-2.746,-2.6782,-2.6617,-2.6437,-2.5779,-2.563,-2.563,-2.5615,-2.4552,-2.3655,-2.3625,-2.361,-2.3595,-2.3595,-2.3595,0.0,-2.3595,-2.3595,-2.337,-2.2813,-2.2724,-2.2158,-2.0857,-2.0722,-2.0423,-1.9735,-1.969,-1.969,-1.969,-1.9076,-1.8732,-1.8732,-1.6832,-1.5844,-1.5829,0.0,0.0,0.0,0.0,0.0,0.0,0.0,0.0,0.0,0.0,0.0,0.0,0.0,0.0,0.0,0.0,0.0,0.0,0.0,0.0,0.0,0.0,-2.1693,-2.1693,-2.3068,-2.4507,-2.563,-2.6093,-2.6632,-2.7425,-2.7679,-2.8128,-2.8966,-2.9026,-2.9385,-3.0208,-3.0253,-3.0552,-3.1225,-3.1255,-3.1345,-3.1482,-3.1482,-3.1482,-3.1482,-3.1482,-3.1482,-3.1482,-3.1482,-3.1482,-3.1482,-3.1482,-3.1482,-3.1467,-3.133,-3.1255,-3.115,-3.0028,-2.9579,-2.9564,-2.937,-2.931,-2.922,-2.8547,-2.8323,-2.8233,-2.779,-2.7625,-2.7625,-2.7625,-2.7625,-2.7625,-2.7625,-2.7625,-2.7625,-2.7625,-2.7625,-2.7565,-2.735,-2.7355,-2.7126,-2.6467,-2.6318,-2.6183,-2.5704,-2.5315,-2.4911,-2.4433,-2.3924,-2.3595,-2.3595,-2.3595,0.0,-2.3595,-2.3595,-2.3535,-2.337,-2.2936,-2.2338,-2.15,-2.0991,-2.0423,-1.9735,-1.969,-1.969,-1.969,-1.951,-1.942,-1.942,-1.7954,-1.6952,0.0,0.0,0.0,0.0,0.0,0.0,0.0,0.0,0.0,0.0,0.0,0.0,0.0,0.0,0.0,0.0,0.0,0.0,0.0,0.0,0.0,0.0,-2.2731,-2.3999,-2.4268,-2.4971,-2.5839,-2.6871,-2.726,-2.7739,-2.8517,-2.8846,-2.928,-2.9924,-2.9968,-3.0253,-3.0911,-3.0941,-3.112,-3.1467,-3.1735,-3.1943,-3.1943,-3.2213,-3.2362,-3.2362,-3.2362,-3.2213,-3.1943,-3.1943,-3.1794,-3.1482,-3.1482,-3.1482,-3.1482,-3.1482,-3.1482,0.0,0.0,0.0,0.0,0.0,-2.9804,-2.952,-2.9146,-2.9011,-2.8906,-2.8218,-2.8008,-2.7949,-2.7715,-2.7625,-2.7625,-2.7625,-2.7625,-2.7625,-2.7625,-2.7625,-2.7625,-2.7625,-2.7625,-2.7505,-2.7081,-2.7006,-2.6886,-2.6497,-2.6213,0.0,-2.551,-2.4657,-2.3924,-2.364,-2.3595,-2.3595,-2.3595,-2.3595,-2.3595,-2.3595,-2.3281,-2.2802,-2.2158,-2.1754,0.0,0.0,0.0,-1.9869,-1.9286,-1.9271,0.0,0.0,0.0,0.0,0.0,0.0,0.0,0.0,-1.761,-1.7805,0.0,0.0,0.0,0.0,0.0,0.0,0.0,0.0,0.0,0.0,0.0,0.0,0.0,0.0,0.0,0.0,-2.4537,-2.5959,-2.6602,-2.6767,-2.7036,-2.767,-2.8233,-2.8667,-2.8801,-2.934,-2.9939,-3.0567,-3.0612,-3.0881,-3.1437,0.0,0.0,0.0,0.0,-3.2617,-3.2617,-3.32,-3.3499,-3.3499,-3.3499,-3.3185,-3.2617,-3.2617,-3.2302,-3.1691,-3.1616,-3.1586,-3.1586,-3.1497,-3.1482,-3.1482,-3.1482,-3.1482,-3.1407,-3.0851,-3.0268,-2.9789,-2.9714,0.0,0.0,-2.8921,-2.8712,-2.8592,-2.803,-2.779,-2.7679,-2.7679,-2.7685,-2.7625,-2.7625,-2.7625,-2.7625,-2.7625,-2.7625,-2.7625,-2.7625,-2.7625,-2.7625,-2.7625,-2.7096,-2.6677,-2.6602,-2.5495,-2.4373,-2.3804,-2.3655,-2.3595,-2.3595,-2.3595,-2.3595,-2.3595,0.0,0.0,-2.2727,-2.2724,-2.2143,-2.0902,-2.0827,-2.0288,-1.9091,-1.9046,-1.9316,-1.9899,-1.9914,-2.0498,-2.1695,-2.1844,-2.1904,-2.1859,-2.0004,-2.0139,0.0,0.0,0.0,0.0,0.0,0.0,0.0,0.0,0.0,0.0,0.0,0.0,0.0,0.0,0.0,-2.4717,-2.5809,-2.6632,-2.729,-2.7859,-2.8263,-2.8382,-2.8517,-2.8996,-3.0043,-3.0253,-3.0612,-3.1285,-3.1345,-3.1332,-3.1467,-3.2033,-3.2332,-3.2332,-3.2961,-3.3305,-3.3305,-3.344,-3.3499,-3.3499,0.0,0.0,-3.3305,-3.3305,-3.3245,-3.308,-3.2557,-3.2332,-3.2273,-3.1691,-3.1482,-3.1482,-3.1482,-3.1482,-3.1452,-3.1317,-3.1255,-3.1076,-3.0507,-3.0328,-3.0223,-2.9594,-2.94,-2.937,-2.9235,-2.8831,0.0,-2.8412,-2.8008,-2.7625,-2.7625,-2.7625,-2.7625,-2.7625,-2.7625,-2.7625,-2.7625,-2.7625,-2.7625,-2.7625,-2.752,-2.7215,-2.6677,-2.5495,-2.4537,-2.4448,-2.3954,-2.3595,-2.3595,-2.3595,-2.3595,-2.3595,-2.3595,-2.3355,-2.2727,-2.2724,-2.2338,-2.156,-2.1515,-2.1395,-2.1126,-2.1126,-2.1186,-2.1306,-2.1306,-2.144,-2.1695,-2.2727,-2.3236,-2.3206,-2.2323,-2.2383,0.0,0.0,0.0,0.0,0.0,0.0,0.0,0.0,0.0,0.0,0.0,-2.0318,-2.2308,0.0,-2.4687,-2.6318,-2.7156,-2.7829,-2.8487,-2.8876,-2.8966,-2.8637,-2.916,-2.9804,-3.0447,-3.0806,-3.1165,-3.1452,-3.1482,-3.1616,-3.2003,-3.2332,-3.2662,-3.2991,-3.3649,-3.3978,-3.3978,-3.4322,-3.4502,-3.4502,-3.4502,-3.4322,-3.3978,-3.3978,-3.3799,-3.3484,-3.3155,-3.3006,-3.2961,-3.2302,-3.2018,-3.1988,-3.1601,-3.1482,-3.1482,-3.1482,-3.1482,-3.1422,-3.1135,-3.1016,-3.0911,-3.0253,-3.0043,-2.9983,-2.9669,-2.9355,-2.9026,-2.8697,-2.8353,-2.8008,-2.7715,-2.7625,-2.7625,-2.7625,-2.7625,-2.7625,-2.7625,-2.7625,-2.7625,-2.7625,-2.7625,-2.7505,-2.7141,-2.6258,-2.5495,-2.5166,-2.4552,-2.4118,-2.4118,-2.3819,-2.3595,-2.3595,-2.3595,-2.3475,-2.3161,-2.2847,-2.2547,-2.2203,-2.1874,-2.1695,-2.1695,-2.1695,-2.1859,-2.2173,-2.2488,-2.2817,-2.3161,-2.4133,-2.4597,-2.4597,-2.4627,-2.4807,0.0,0.0,0.0,0.0,0.0,0.0,0.0,0.0,-1.9212,-2.1237,-2.2084,-2.2981,-2.4702,-2.5555,-2.6378,-2.7575,-2.8353,-2.8981,-2.9505,-2.9684,-2.952,-2.8861,-2.9804,-3.0552,-3.0687,-3.121,-3.1482,-3.1482,-3.1601,-3.1958,-3.2482,-3.2766,-3.314,-3.3664,-3.4322,-3.4666,-3.4666,-3.5235,-3.5504,-3.5504,-3.5504,-3.522,-3.4666,-3.4666,-3.4382,-3.3873,-3.3739,-3.3619,-3.3455,-3.2916,-3.2706,-3.2647,-3.1988,-3.1661,-3.1704,-3.1526,-3.1482,-3.1482,-3.1482,-3.1482,-3.1377,-3.0881,-3.0702,-3.0612,-3.0118,-2.9864,-2.9654,-2.9116,-2.8876,-2.8637,-2.7949,-2.7769,-2.7739,-2.7655,-2.7625,-2.7625,-2.7625,-2.7625,-2.7625,-2.7625,-2.7625,-2.7625,-2.7625,-2.7126,-2.6557,-2.5899,-2.5241,-2.4776,-2.4776,-2.4328,-2.3939,-2.3819,-2.3789,-2.3744,-2.361,-2.3131,-2.2862,-2.2862,-2.2353,-2.2069,-2.2069,-2.2188,-2.2517,-2.3041,-2.367,-2.4268,-2.4776,-2.548,-2.5794,-2.5809,-2.6482,-2.6707,-1.5077,-1.4511,-1.4591,-1.6814,-1.6957,-1.7669,0.0,0.0,-2.254,-2.461,-2.5121,-2.542,-2.6228,-2.6901,-2.7604,-2.8368,-2.9041,-2.949,-2.9564,-3.0058,-3.0163,-2.9549,-3.0088,-3.0746,-3.1302,-3.1437,-3.1482,-3.1482,-3.2078,-3.2437,-3.2512,-3.3619,-3.4292,-3.4367,-3.504,-3.5385,-3.5385,-3.5474,-3.5504,-3.5504,-3.5504,-3.5459,-3.5385,-3.5385,-3.5355,-3.525,-3.4637,-3.4038,-3.3484,-3.3425,-3.338,-3.332,-3.2662,-3.2407,-3.2332,-3.1691,-3.1482,-3.1482,-3.1482,-3.1482,-3.1467,-3.1377,-3.1362,-3.1347,-3.1345,-3.0881,-3.0387,-3.0313,-2.9894,-2.9325,-2.8652,-2.8487,-2.8323,-2.7724,-2.7625,-2.7625,-2.7625,-2.7625,-2.7625,-2.7625,-2.7625,-2.7625,-2.7625,-2.7565,-2.7245,-2.6572,-2.5914,-2.5495,-2.5495,-2.5435,-2.5166,-2.4522,-2.4462,-2.4268,-2.3655,-2.3535,-2.349,-2.349,-2.343,-2.3385,-2.3385,-2.3984,-2.4283,-2.4418,-2.5061,-2.542,-2.5495,-2.6153,-2.6482,-2.6497,-2.7156,-2.7156,-1.693,-1.69,-1.7168,0.0,-1.8582,-1.9712,-2.251,-2.3084,-2.3681,-2.5741,-2.6183,-2.6378,-2.7036,-2.738,-2.797,0.0,-2.94,-2.9849,-3.0612,-3.0597,-3.0417,-3.0148,-3.0342,-3.0612,-3.0911,-3.13,-3.1482,-3.1482,-3.2138,-3.2677,-3.3066,-3.3963,-3.4666,-3.5055,-3.5355,-3.5504,-3.5504,-3.5504,-3.5504,-3.5504,-3.5504,-3.5504,-3.5504,-3.5504,-3.5504,-3.5489,-3.519,-3.4921,-3.4637,-3.4233,-3.4068,-3.4008,-3.3335,-3.2841,-3.2437,-3.1779,-3.1482,-3.1482,-3.1482,-3.1482,-3.1482,-3.1482,-3.1482,-3.1482,-3.1482,-3.133,-3.1016,-3.0612,-3.0313,-2.9968,-2.934,-2.9175,-2.8996,-2.8323,-2.8173,-2.8068,-2.7664,-2.7625,-2.7625,-2.7625,-2.7625,-2.7625,-2.7625,-2.7625,-2.752,-2.72,-2.6602,-2.6183,-2.6183,-2.5839,-2.5495,-2.5226,-2.5196,-2.4926,-2.4253,-2.4193,-2.4193,-2.4193,-2.4193,-2.4373,-2.4762,-2.5046,-2.5196,-2.5196,-2.5839,-2.6183,-2.6183,-2.6841,-2.7156,-2.7171,-2.744,-2.7475,-1.8396,-1.8552,0.0,-1.8866,-2.0014,-2.1531,-2.2908,-2.3787,-2.4794,-2.65,-2.6856,-2.7006,-2.7535,-2.7724,-2.8233,-2.9385,-2.9729,-3.0238,-3.1317,-3.0941,-3.0447,-3.0268,-3.0402,-3.0432,-3.0268,-3.1031,-3.1482,-3.1482,-3.2302,-3.2991,-3.3469,-3.4307,-3.4996,-3.5489,-3.5504,-3.5504,-3.5504,-3.5504,-3.5504,-3.5504,-3.5504,-3.5504,-3.5504,-3.5504,-3.5504,-3.5504,-3.5504,-3.5504,-3.5474,-3.4966,-3.4756,-3.4696,-3.4023,-3.3469,-3.2961,-3.2108,-3.1631,-3.1482,-3.1482,-3.1482,-3.1482,-3.1482,-3.1482,-3.1482,-3.1482,-3.1482,-3.1377,-3.0926,-3.0791,-3.0642,-2.9998,-2.9834,-2.9669,-2.9026,-2.8876,-2.8682,-2.7993,-2.7859,-2.7799,-2.7655,-2.7625,-2.7625,-2.7625,-2.7625,-2.7625,-2.7625,-2.7171,-2.6856,-2.6856,-2.6288,-2.5884,-2.5884,-2.5719,-2.542,-2.4941,-2.4896,-2.4896,-2.4896,-2.4896,-2.5106,-2.5585,-2.5779,-2.5884,-2.5884,-2.6527,-2.6856,-2.6856,-2.7335,-2.7625,-2.7625,-2.7625,-2.773,-1.8844,-1.8621,-1.8581,-2.024,-2.1572,-2.2871,-2.4145,-2.5463,-2.6649,-2.7429,-2.7595,-2.7595,-2.7625,-2.8113,-2.8786,-2.9475,-3.0088,-3.0717,-3.1377,-3.0941,-3.0283,-2.9684,-3.0133,-3.0268,0.0,-3.0776,-3.1482,-3.1482,-3.2736,-3.3469,-3.3499,-3.4756,-3.5489,-3.5504,-3.5504,-3.5504,-3.5504,-3.5504,-3.5504,-3.5504,-3.5504,-3.5504,-3.5504,-3.5504,-3.5504,-3.5504,-3.5504,-3.5504,-3.5504,-3.5489,-3.5474,-3.54,-3.4711,-3.4442,-3.4262,-3.2961,-3.2078,-3.1482,-3.1482,-3.1482,-3.1482,-3.1482,-3.1482,-3.1482,-3.1482,-3.1482,-3.1482,-3.1452,-3.1437,-3.1345,-3.0657,-3.0477,-3.0313,-2.9699,-2.9549,-2.937,-2.8712,-2.8562,-2.8368,-2.7745,-2.7625,-2.7625,-2.7625,-2.7625,-2.7625,-2.7625,-2.761,-2.7595,-2.7595,-2.6961,-2.6557,-2.6557,-2.5989,-2.56,-2.5585,-2.5585,-2.5585,-2.5585,-2.5585,-2.5585,-2.5615,-2.6213,-2.6557,-2.6557,-2.72,-2.7595,-2.7595,-2.761,-2.7625,-2.7625,-2.7625,-2.7934,-1.9051,0.0,-2.0062,-2.0978,-2.183,-2.2873,-2.4668,-2.5465,-2.5994,-2.6792,-2.6916,-2.6782,-2.6348,-2.6811,-2.7634,-2.8757,-2.9475,-3.0283,-3.1317,-3.0941,-3.0417,-3.0223,-3.0372,0.0,0.0,0.0,0.0,-3.1482,-3.2751,-3.3499,-3.3499,-3.4771,-3.5504,-3.5504,-3.5504,-3.5504,-3.5504,-3.5504,-3.5504,-3.5504,-3.5504,-3.5504,-3.5504,-3.5504,-3.5504,-3.5504,-3.5504,-3.5504,-3.5504,-3.5504,-3.5504,-3.5489,-3.525,-3.4876,-3.4427,-3.3978,-3.3395,-3.2706,-3.1839,-3.1482,-3.1482,-3.1482,-3.1482,-3.1482,-3.1482,-3.1482,-3.1482,-3.1482,-3.1482,-3.1422,-3.124,-3.118,-3.1016,-3.0357,-3.0193,-3.0028,-2.9385,-2.8906,-2.8532,-2.8308,-2.7874,-2.7625,-2.7625,-2.7625,-2.7625,-2.7625,-2.7625,-2.7625,-2.7625,-2.743,-2.7245,-2.7245,-2.7036,-2.6737,-2.6303,-2.6258,-2.6258,-2.6258,-2.6258,-2.6452,-2.6901,-2.7126,-2.7245,-2.7245,-2.7505,-2.7625,-2.7625,-2.7625,-2.7814,-2.8248,-2.8248,-2.8607,-1.9832,-2.0438,-2.1142,-2.1895,-2.2566,-2.3373,-2.47,-2.5218,-2.553,-2.5795,-2.5842,-2.5689,-2.5016,-2.5241,-2.6123,-2.7934,-2.8592,-2.949,-3.1285,-3.0941,-3.0597,-3.0851,-3.0866,-3.0971,0.0,0.0,0.0,-3.1898,-3.3095,-3.3844,-3.3844,-3.4891,-3.5504,-3.5504,-3.5504,-3.5504,-3.5504,-3.5504,-3.5504,-3.5504,-3.5504,-3.5504,-3.5504,-3.5504,-3.5504,-3.5504,-3.5504,-3.5504,-3.5504,-3.5504,-3.5504,-3.5504,-3.5504,-3.5235,-3.4816,-3.4562,-3.4203,-3.3664,-3.2332,-3.1884,-3.1839,-3.1556,-3.1482,-3.1482,-3.1482,-3.1482,-3.1482,-3.1482,-3.1482,-3.1482,-3.1482,-3.1482,-3.1362,-3.0971,-3.0866,-3.0702,-3.0058,-2.9579,-2.922,-2.8996,-2.8592,-2.8218,-2.7979,-2.779,-2.7625,-2.7625,-2.7625,-2.7625,-2.7625,-2.7625,-2.7625,-2.7625,-2.7625,-2.7445,-2.6976,-2.6946,-2.6946,-2.6946,-2.6946,-2.7126,-2.761,-2.7625,-2.7625,-2.7625,-2.7625,-2.7625,-2.7625,-2.7625,-2.7919,-2.8607,-2.8607,-2.9071,-2.1054,-2.154,-2.1832,-2.2874,-2.3649,-2.4221,-2.4253,-2.4859,-2.5236,-2.456,-2.4432,-2.4313,-2.358,0.0,-2.4492,-2.71,-2.7625,-2.8577,-3.1108,-3.1001,-3.0851,0.0,0.0,0.0,0.0,0.0,0.0,-3.2662,0.0,-3.4472,-3.4472,-3.513,-3.5504,-3.5504,-3.5504,-3.5504,-3.5504,-3.5504,-3.5504,-3.5504,-3.5504,-3.5504,-3.5504,-3.5504,-3.5504,-3.5504,-3.5504,-3.5504,-3.5504,-3.5504,-3.5504,-3.5504,-3.5504,-3.5504,-3.5429,-3.4771,-3.4532,-3.4337,-3.3066,-3.2587,-3.2452,-3.1735,-3.1526,-3.1511,-3.1482,-3.1482,-3.1482,-3.1482,-3.1482,-3.1482,-3.1482,-3.1482,-3.1482,-3.1482,-3.1482,-3.136,-3.0702,-3.0522,-3.0328,-2.9744,-2.9609,-2.9385,-2.8757,-2.8113,-2.7715,-2.7685,-2.7619,-2.7655,-2.7625,-2.7625,-2.7625,-2.7625,-2.7625,-2.7625,-2.7625,-2.7625,-2.7625,-2.7625,-2.7625,-2.7625,-2.7625,-2.7625,-2.7625,-2.7625,-2.7625,-2.764,-2.7619,-2.7619,-2.7993,-2.8697,-2.8697,-2.9355,-2.1355,-2.2084,-2.2786,-2.3002,-2.3245,-2.3428,-2.3598,-2.3797,-2.3783,-2.3259,-2.3157,-2.2817,-2.1665,0.0,0.0,-2.5914,-2.7769,0.0,-3.1243,-3.1809,0.0,-3.2243,0.0,-3.3066,-3.323,-3.3844,0.0,0.0,-3.4292,-3.4472,-3.4472,-3.513,-3.5504,-3.5504,-3.5504,-3.5504,-3.5504,-3.5504,-3.5504,-3.5504,-3.5504,-3.5504,-3.5504,-3.5504,-3.5504,-3.5504,-3.5504,-3.5504,-3.5504,-3.5504,-3.5504,-3.5504,-3.5504,-3.5504,-3.5489,-3.531,-3.525,-3.5115,-3.4262,-3.3649,-3.314,-3.2482,-3.2273,-3.2168,-3.1616,-3.1482,-3.1482,-3.1482,-3.1482,-3.1482,-3.1482,-3.1482,-3.1482,-3.1482,-3.1482,-3.1422,-3.13,-3.0866,-3.0447,-3.0298,-2.9894,-2.9535,-2.9355,-2.919,-2.8906,-2.8412,-2.8338,-2.8143,-2.7634,-2.7625,-2.7625,-2.7625,-2.7625,-2.7625,-2.7625,-2.7625,-2.7625,-2.7625,-2.7625,-2.7625,-2.7625,-2.7625,-2.7625,-2.7625,-2.7625,-2.7829,-2.8338,-2.8338,-2.8921,-3.0013,-3.0013,-3.0477,-2.1863,-2.2472,-2.3078,-2.3078,-2.3115,-2.311,-2.2978,-2.297,-2.2684,-2.1554,-2.1339,0.0,-1.9645,-2.1081,0.0,0.0,0.0,0.0,-3.0821,-3.1898,-3.2736,0.0,-3.3758,0.0,-3.4774,-3.4934,-3.4921,0.0,-3.4921,-3.4921,-3.4921,-3.5295,-3.5504,-3.5504,-3.5504,-3.5504,-3.5504,-3.5504,-3.5504,-3.5504,-3.5504,-3.5504,-3.5504,-3.5504,-3.5504,-3.5504,0.0,-3.5504,-3.5504,-3.5504,-3.5504,-3.5504,-3.5504,-3.5504,-3.5504,-3.5504,-3.5504,-3.5444,-3.5055,-3.4681,-3.4218,-3.326,-3.2751,-3.2437,-3.2078,-3.1706,-3.1482,-3.1482,-3.1482,-3.1482,-3.1482,-3.1482,-3.1482,-3.1482,-3.1482,-3.1482,-3.1482,-3.1225,-3.0956,-3.0956,-3.0432,-2.9983,-2.9983,-2.9759,-2.946,-2.9086,-2.9026,-2.8786,-2.8113,-2.7754,-2.7625,-2.7625,-2.7625,-2.7625,-2.7625,-2.7625,-2.7625,-2.7625,-2.7625,-2.7625,-2.7625,-2.7625,-2.776,-2.8008,-2.8023,-2.8353,-2.9026,-2.9026,-2.9535,-3.0507,-3.0507,-3.0866,-2.2592,-2.2879,-2.3245,-2.3245,-2.3373,-2.3265,-2.251,-2.2295,-2.1711,-1.9874,0.0,-1.9076,-1.7891,-1.8867,-2.0685,-2.3303,0.0,-2.7635,-3.0228,-3.176,-3.3093,-3.4395,-3.4668,-3.529,-3.6492,-3.5991,-3.5668,-3.5668,-3.5554,-3.5504,-3.5504,-3.5504,-3.5504,-3.5504,-3.5504,-3.5504,-3.5504,-3.5504,-3.5504,-3.5504,-3.5504,-3.5504,-3.5504,-3.5504,-3.5504,-3.5504,-3.5504,0.0,-3.5504,-3.5504,-3.5504,-3.5504,-3.5504,-3.5504,-3.5504,-3.5504,-3.5504,-3.5504,-3.5504,-3.5504,-3.5295,-3.4038,-3.3185,-3.2632,-3.2542,-3.2063,-3.1482,-3.1482,-3.1482,-3.1482,-3.1482,-3.1482,-3.1482,-3.1482,-3.1482,-3.1482,-3.1482,-3.1482,-3.1482,-3.1482,-3.1046,-3.0642,-3.0642,-3.0193,-2.9804,-2.9714,-2.9699,-2.946,-2.8816,-2.8128,-2.773,-2.7625,-2.77,-2.773,-2.7625,-2.779,-2.785,-2.776,-2.785,-2.7895,-2.7895,-2.7895,-2.8113,-2.8727,-2.8727,-2.9056,-2.9699,-2.9699,-3.0028,-3.0642,-3.0642,-3.0956,-2.3804,-2.404,-2.4118,-2.4118,-2.4155,-2.3904,-2.2797,-2.1722,0.0,0.0,-1.8461,-1.7999,-1.7727,-1.9271,-2.1355,-2.3943,0.0,0.0,0.0,0.0,-3.334,0.0,0.0,0.0,0.0,0.0,0.0,0.0,0.0,-3.5504,-3.5504,-3.5504,-3.5504,-3.5504,-3.5504,-3.5504,-3.5504,-3.5504,-3.5504,-3.5504,-3.5504,-3.5504,-3.5504,-3.5504,-3.5504,-3.5504,-3.5504,0.0,-3.5504,-3.5504,-3.5504,-3.5504,-3.5504,-3.5504,-3.5504,-3.5504,-3.5504,-3.5504,-3.5504,-3.5504,-3.537,-3.4562,-3.3858,-3.3215,-3.2677,-3.2063,-3.1482,-3.1482,-3.1482,-3.1482,-3.1482,-3.1482,-3.1482,-3.1482,-3.1482,-3.1482,-3.1482,-3.1482,-3.1482,-3.1482,-3.1377,-3.136,-3.136,-3.127,-3.1001,-3.0432,-3.0342,-3.0118,-2.949,-2.8831,-2.8203,-2.7685,-2.8083,-2.8188,-2.767,-2.8644,-2.9011,-2.8457,-2.8936,-2.9235,-2.9235,-2.9235,-2.9295,-2.94,-2.9415,-2.9729,-3.0342,-3.0342,-3.0687,-3.136,-3.136,-3.1362,-2.4788,-2.4851,-2.4851,-2.4851,-2.4391,-2.3603,-2.2367,0.0,0.0,0.0,-1.7427,-1.707,-1.6772,-1.8328,0.0,0.0,0.0,0.0,0.0,0.0,0.0,0.0,0.0,0.0,0.0,0.0,0.0,0.0,0.0,-3.5504,-3.5504,-3.5504,-3.5504,-3.5504,-3.5504,-3.5504,-3.5504,-3.5504,-3.5504,-3.5504,-3.5504,-3.5504,-3.5504,-3.5504,-3.5504,-3.5504,-3.5504,0.0,-3.5504,-3.5504,-3.5504,-3.5504,-3.5504,-3.5504,-3.5504,-3.5504,-3.5504,-3.5504,-3.5504,-3.5504,-3.5385,-3.4696,-3.4038,-3.344,-3.3125,-3.2332,-3.1482,-3.1482,-3.1482,-3.1482,-3.1482,-3.1482,-3.1482,-3.1482,-3.1482,-3.1482,-3.1482,-3.1482,-3.1482,-3.1482,-3.1482,-3.1482,-3.1482,-3.1482,-3.1362,-3.1091,-3.1046,-3.0806,-3.0148,-2.9789,-2.934,-2.8697,-2.8906,-2.8981,-2.8652,-2.9205,-2.9445,-2.9131,-2.94,-2.9579,-2.9579,-2.9579,-2.9729,-3.0058,-3.0058,-3.0387,-3.1046,-3.1046,-3.121,-3.1482,-3.1482,-3.1482,-2.5446,-2.5521,-2.5618,-2.5618,-2.4702,-2.3406,-2.2134,-2.0627,0.0,-1.71,-1.6607,-1.6428,-1.6156,-1.7362,-1.8949,0.0,-2.2729,0.0,0.0,0.0,0.0,0.0,0.0,0.0,0.0,0.0,0.0,0.0,0.0,0.0,-3.5504,-3.5504,-3.5504,-3.5504,-3.5504,-3.5504,-3.5504,-3.5504,-3.5504,-3.5504,-3.5504,-3.5504,-3.5504,-3.5504,-3.5504,-3.5504,-3.5504,0.0,0.0,-3.5504,-3.5504,-3.5504,-3.5504,-3.5504,-3.5504,-3.5504,-3.5504,-3.5504,-3.5504,-3.5504,-3.5385,-3.4696,-3.4038,-3.3469,-3.332,-3.2467,-3.1482,-3.1482,-3.1482,-3.1482,-3.1482,-3.1482,-3.1482,-3.1482,-3.1482,-3.1482,-3.1482,-3.1482,-3.1482,-3.1482,-3.1482,-3.1482,-3.1482,-3.1482,-3.1482,-3.1482,-3.1482,-3.1345,-3.0791,-3.0717,-3.0537,-3.0058,-2.9864,-2.9729,-2.9594,-2.9834,-2.9939,-2.9789,-2.9924,-2.9998,-2.9998,-2.9998,-3.0223,-3.0717,-3.0717,-3.0986,-3.1482,-3.1482,-3.1482,-3.1482,-3.1482,-3.1482,-2.5486,-2.5945,-2.6404,-2.6404,-2.5433,-2.4194,-2.2882,0.0,-1.8403,-1.6995,-1.6263,-1.6126,-1.7007,-1.7312,-1.8558,-2.1936,-2.3293,-2.5146,0.0,0.0,0.0,0.0,0.0,0.0,0.0,0.0,0.0,0.0,0.0,0.0,-3.5504,-3.5504,-3.5504,-3.5504,-3.5504,-3.5504,-3.5504,-3.5504,-3.5504,-3.5504,-3.5504,-3.5504,-3.5504,-3.5504,-3.5504,-3.5504,-3.5504,0.0,0.0,-3.5504,-3.5504,-3.5504,-3.5504,-3.5504,-3.5504,-3.5504,-3.5504,-3.5504,-3.5504,-3.5504,-3.5385,-3.4696,-3.4038,-3.338,-3.2781,-3.2093,-3.1482,-3.1482,-3.1482,-3.1482,-3.1482,-3.1482,-3.1482,-3.1482,-3.1482,-3.1482,-3.1482,-3.1482,-3.1482,-3.1482,-3.1482,-3.1482,-3.1482,-3.1482,-3.1482,-3.1482,-3.1482,-3.1452,-3.145,-3.1377,-3.1362,-3.1302,-3.0791,-3.0193,-2.9624,-3.0672,-3.1091,-3.0462,-3.1001,-3.136,-3.136,-3.136,-3.1317,-3.1377,-3.1377,-3.1407,-3.1482,-3.1482,-3.1482,-3.1482,-3.1482,-3.1482,-2.584,-2.6356,-2.6562,-2.6562,-2.5292,-2.3565,-2.1874,0.0,-1.8036,-1.6724,-1.6279,-1.6268,-1.6889,-1.7171,-1.8066,-2.0418,-2.1378,-2.3058,-2.648,0.0,0.0,0.0,0.0,0.0,0.0,0.0,0.0,0.0,0.0,0.0,-3.5504,-3.5504,-3.5504,-3.5504,-3.5504,-3.5504,-3.5504,-3.5504,-3.5504,-3.5504,-3.5504,-3.5504,-3.5504,-3.5504,-3.5504,-3.5504,-3.5504,0.0,0.0,-3.5504,-3.5504,-3.5504,-3.5504,-3.5504,-3.5504,-3.5504,-3.5504,-3.5504,-3.5504,-3.5235,-3.4786,-3.4098,-3.344,-3.2856,-3.2587,-3.2063,-3.1482,-3.1482,-3.1482,-3.1482,-3.1482,-3.1482,-3.1482,-3.1482,-3.1482,-3.1482,-3.1482,-3.1482,-3.1482,-3.1482,-3.1482,-3.1482,-3.1482,-3.1482,-3.1482,-3.1482,-3.1482,-3.1482,-3.1482,-3.1482,-3.1482,-3.1482,-3.1228,-3.1031,-3.0776,-3.124,-3.1362,-3.115,-3.1317,-3.1482,-3.1482,-3.1482,-3.1482,-3.1482,-3.1482,-3.1482,-3.1482,-3.1482,-3.1482,-3.1482,-3.1482,-3.1482,-2.527,-2.6004,-2.6303,-2.6303,-2.4807,-2.2903,0.0,-1.947,-1.7867,-1.6702,-1.6448,-1.6554,-1.6892,-1.7146,-1.7823,-1.9386,-2.0229,-2.1857,-2.5154,-2.642,0.0,0.0,0.0,0.0,0.0,0.0,0.0,0.0,0.0,0.0,-3.5504,-3.5504,-3.5504,-3.5504,-3.5504,-3.5504,-3.5504,-3.5504,-3.5504,-3.5504,-3.5504,-3.5504,-3.5504,-3.5504,-3.5504,-3.5504,-3.5504,0.0,0.0,-3.5504,-3.5504,-3.5504,-3.5504,-3.5504,-3.5504,-3.5504,-3.5504,-3.5474,-3.5265,-3.4891,-3.44,-3.3698,-3.3199,-3.2791,-3.281,-3.2216,-3.1482,-3.1482,-3.1482,-3.1482,-3.1482,-3.1482,-3.1482,-3.1482,-3.1482,-3.1482,-3.1482,-3.1482,-3.1482,-3.1482,-3.1482,-3.1482,-3.1482,-3.1482,-3.1482,-3.1482,-3.1482,-3.1482,-3.1482,-3.1482,-3.1482,-3.1482,-3.1482,-3.1482,-3.1482,-3.1482,-3.1482,-3.1482,-3.1482,-3.1482,-3.1482,-3.1482,-3.1482,-3.1482,-3.1482,-3.1482,-3.1482,-3.1482,-3.1482,-3.1482,-3.1482,-3.1482,-2.346,-2.4597,-2.5615,-2.5615,-2.4148,-2.2445,-2.1436,-1.9623,-1.7941,-1.6998,-1.6789,-1.6917,-1.7224,-1.7296,-1.7896,-1.9698,-2.067,-2.2209,-2.5186,-2.6843,0.0,0.0,0.0,0.0,0.0,0.0,0.0,0.0,0.0,0.0,-3.5504,-3.5504,-3.5504,-3.5504,-3.5504,-3.5504,-3.5504,-3.5504,-3.5504,-3.5504,-3.5504,-3.5504,-3.5504,-3.5504,-3.5504,0.0,0.0,0.0,0.0,-3.5504,-3.5504,-3.5504,-3.5504,-3.5504,-3.5504,-3.5504,-3.5504,-3.5415,-3.4726,-3.4487,-3.4373,-3.3725,-3.3506,-3.3535,-3.3598,-3.2625,-3.1482,-3.1482,-3.1482,-3.1482,-3.1482,-3.1482,-3.1482,-3.1482,-3.1482,-3.1482,-3.1482,-3.1482,-3.1482,-3.1482,-3.1482,-3.1482,-3.1482,-3.1482,-3.1482,-3.1482,-3.1482,-3.1482,-3.1482,-3.1482,-3.1482,-3.1482,-3.1482,-3.1482,-3.1482,-3.1482,-3.1482,-3.1482,-3.1482,-3.1482,-3.1482,-3.1482,-3.1482,-3.1482,-3.1482,-3.1482,-3.1482,-3.1482,-3.1482,-3.1482,-3.1482,-3.1482,-2.136,-2.2263,-2.2832,-2.2383,-2.1991,-2.1305,-1.9531,-1.9073,-1.8674,-1.7394,-1.715,-1.7248,-1.7572,-1.7439,-1.8228,-2.1123,-2.1803,-2.2818,0.0,0.0,0.0,0.0,0.0,0.0,0.0,0.0,0.0,0.0,0.0,0.0,-3.5504,-3.5504,-3.5504,-3.5504,-3.5504,-3.5504,-3.5504,-3.5504,-3.5504,-3.5504,-3.5504,-3.5504,-3.5504,-3.5504,-3.5504,0.0,0.0,0.0,0.0,-3.5504,-3.5504,-3.5504,-3.5504,-3.5504,-3.5504,-3.5504,-3.5504,-3.54,-3.4711,-3.4188,-3.3726,-3.3049,-3.2518,-3.2167,-3.2165,-3.2216,-3.2176,-3.164,-3.1482,-3.1482,-3.1482,-3.1482,-3.1482,-3.1482,-3.1482,-3.1482,-3.1482,-3.1482,-3.1482,-3.1482,-3.1482,-3.1482,-3.1482,-3.1482,-3.1482,-3.1482,-3.1482,-3.1482,-3.1482,-3.1482,-3.1482,-3.1482,-3.1482,-3.1482,-3.1482,-3.1482,-3.1482,-3.1482,-3.1482,-3.1482,-3.1482,-3.1482,-3.1482,-3.1482,-3.1482,-3.1482,-3.1482,-3.1482,-3.1482,-3.1482,-3.1482,-3.1482,-1.9303,-2.0412,-2.1039,-2.063,-2.0604,-2.0311,-1.8933,-1.88,-1.8703,-1.7705,-1.7502,-1.7549,-1.7749,-1.7635,-1.8358,-2.0988,-2.1421,-2.2429,0.0,0.0,0.0,0.0,0.0,0.0,0.0,0.0,0.0,0.0,0.0,0.0,-3.5569,-3.5504,-3.5504,-3.5504,-3.5504,-3.5504,-3.5504,-3.5504,-3.5504,-3.5504,-3.5504,-3.5504,-3.5504,-3.5504,-3.5504,0.0,0.0,0.0,0.0,-3.5504,-3.5504,-3.5504,-3.5504,-3.5504,-3.5504,-3.5504,-3.534,-3.5026,-3.4337,-3.3679,-3.3081,-3.2685,-3.2455,-3.2296,-3.2296,-3.2422,-3.2477,-3.2064,-3.191,-3.1853,-3.1582,-3.1482,-3.1482,-3.1482,-3.1482,-3.1482,-3.1482,-3.1482,-3.1482,-3.1482,-3.1482,-3.1482,-3.1482,-3.1482,-3.1482,-3.1482,-3.1482,-3.1482,-3.1482,-3.1482,-3.1482,-3.1482,-3.1482,-3.1482,-3.1482,-3.1482,-3.1482,-3.1482,-3.1482,-3.1482,-3.1482,-3.1482,-3.1482,-3.1482,-3.1482,-3.1482,-3.1482,-3.1482,-3.1482,-3.1482,-3.1482,-3.1482,0.0,-1.8808,-1.9873,-1.9826,-1.9624,-1.9379,-1.9142,-1.8647,0.0,-1.7855,-1.7811,-1.7845,-1.7946,-1.7907,-1.8397,-2.0052,-2.0322,0.0,0.0,0.0,0.0,0.0,0.0,0.0,0.0,0.0,0.0,0.0,0.0,0.0,-3.5569,-3.5504,-3.5504,-3.5504,-3.5504,-3.5504,-3.5504,-3.5504,-3.5504,-3.5504,-3.5504,-3.5504,-3.5504,-3.5504,-3.5504,0.0,0.0,0.0,0.0,-3.5504,-3.5504,-3.5504,-3.5504,-3.5504,-3.5489,-3.5444,-3.5026,-3.4382,-3.3664,-3.3021,-3.2511,-3.2598,-3.3039,-3.3547,-3.3633,-3.3182,-3.2641,-3.2586,-3.2641,-3.2477,-3.1796,-3.1582,-3.1582,-3.1524,-3.1482,-3.1482,-3.1482,-3.1482,-3.1482,-3.1482,-3.1482,-3.1482,-3.1482,-3.1482,-3.1482,-3.1482,-3.1482,-3.1482,-3.1482,-3.1482,-3.1482,-3.1482,-3.1482,-3.1482,-3.1482,-3.1482,-3.1482,-3.1482,-3.1482,-3.1482,-3.1482,-3.1482,-3.1482,-3.1482,-3.1482,-3.1482,-3.1482,-3.1482,-3.1482,-3.1482,-3.1482,-3.1497,-1.4831,0.0,-1.649,-1.603,-1.6463,-1.7028,0.0,-1.7439,-1.7899,-1.7822,0.0,-1.8126,-1.9258,-1.9029,-1.9688,-2.2902,-2.3427,0.0,0.0,0.0,0.0,0.0,0.0,0.0,0.0,0.0,0.0,0.0,0.0,-3.6951,-3.5569,-3.5504,-3.5504,-3.5504,-3.5504,-3.5504,-3.5504,-3.5504,-3.5504,-3.5504,-3.5504,-3.5504,-3.5504,-3.5504,-3.5504,0.0,0.0,0.0,-3.5504,-3.5504,-3.5504,-3.5504,-3.5504,-3.5504,-3.5444,-3.4906,-3.4622,-3.4307,-3.3155,-3.2647,-3.2511,-3.2598,-3.2695,-3.3039,-3.4037,-3.3887,-3.3235,-3.2734,-3.3002,-3.3182,-3.2532,-3.2327,-3.2231,-3.164,-3.1482,-3.1482,-3.1482,-3.1482,-3.1482,-3.1482,-3.1482,-3.1482,-3.1482,-3.1482,-3.1482,-3.1482,-3.1482,-3.1482,-3.1482,-3.1482,-3.1482,-3.1482,-3.1482,-3.1482,-3.1482,-3.1482,-3.1482,-3.1482,-3.1482,-3.1482,-3.1482,-3.1482,-3.1482,-3.1482,-3.1482,-3.1482,-3.1482,-3.1482,-3.1482,-3.1482,-3.1482,-3.1735,-1.372,-1.4999,-1.6257,-1.5926,-1.6663,-1.7442,-1.7442,-1.7647,-1.7811,0.0,0.0,-1.8166,-1.9299,-1.9452,0.0,-2.3054,-2.4052,0.0,0.0,0.0,0.0,0.0,0.0,0.0,0.0,0.0,0.0,0.0,0.0,-3.6332,-3.514,-3.4751,-3.4711,-3.5026,-3.504,-3.519,-3.5504,-3.5504,-3.5504,-3.5504,-3.5504,-3.5504,-3.5504,-3.5504,-3.5504,0.0,0.0,0.0,-3.5504,-3.5504,-3.5504,-3.5474,-3.516,-3.504,-3.4951,-3.4277,-3.3844,-3.3469,-3.2766,-3.2317,-3.2163,-3.2843,-3.2841,-3.2841,-3.4186,-3.4333,-3.3987,-3.3633,-3.3786,-3.3887,-3.3235,-3.3039,-3.2895,-3.216,-3.2007,-3.191,-3.1582,-3.1482,-3.1482,-3.1482,-3.1482,-3.1482,-3.1482,-3.1482,-3.1482,-3.1482,-3.1482,-3.1482,-3.1482,-3.1482,-3.1482,-3.1482,-3.1482,-3.1482,-3.1482,-3.1482,-3.1482,-3.1482,-3.1482,-3.1482,-3.1482,-3.1482,-3.1482,-3.1482,-3.1482,-3.1482,-3.1482,-3.1482,-3.1482,-3.1482,-3.1482,-3.1884,-1.3667,-1.5516,-1.7302,-1.6954,-1.7813,-1.8724,-1.8724,0.0,0.0,0.0,0.0,0.0,0.0,0.0,0.0,0.0,0.0,0.0,0.0,0.0,0.0,0.0,0.0,0.0,0.0,0.0,0.0,0.0,0.0,-3.5529,-3.4743,-3.4028,-3.3908,-3.4465,-3.4385,-3.4651,-3.534,-3.5444,-3.5504,-3.5504,-3.5504,-3.5504,-3.5504,-3.5504,-3.5504,-3.5504,0.0,0.0,-3.5489,-3.5385,-3.5355,-3.528,-3.4592,-3.4322,-3.4247,-3.3589,-3.2991,-3.2497,-3.2511,-3.2163,-3.1894,-3.3271,-3.3391,-3.3145,-3.4399,-3.4736,-3.4736,-3.4736,-3.4736,-3.4592,-3.3937,-3.3735,-3.3582,-3.2895,-3.2695,-3.2437,-3.1796,-3.1582,-3.1482,-3.1482,-3.1482,-3.1482,-3.1482,-3.1482,-3.1482,-3.1482,-3.1482,-3.1482,-3.1482,-3.1482,-3.1482,-3.1482,-3.1482,-3.1482,-3.1482,-3.1482,-3.1482,-3.1482,-3.1482,-3.1482,-3.1482,-3.1482,-3.1482,-3.1482,-3.1482,-3.1482,-3.1482,-3.1482,-3.1482,-3.1482,-3.1482,-3.1943,-1.4919,-1.6467,-1.7266,-1.5398,-1.6467,-1.798,-1.798,-1.8369,0.0,0.0,0.0,0.0,0.0,0.0,0.0,0.0,0.0,0.0,0.0,0.0,0.0,0.0,0.0,0.0,0.0,0.0,0.0,0.0,0.0,-3.6231,-3.549,-3.4743,-3.4383,-3.4491,-3.397,-3.3963,-3.4622,-3.522,-3.5504,-3.5504,-3.5504,-3.5504,-3.5504,-3.5504,-3.5504,-3.5504,0.0,-3.5504,-3.5459,-3.4876,-3.4637,-3.4562,-3.3903,-3.3649,-3.3559,-3.2901,-3.2602,-3.2481,-3.2568,-3.253,-3.2625,-3.4037,-3.4382,-3.4431,-3.5207,-3.547,-3.547,-3.547,-3.547,-3.5299,-3.464,-3.4431,-3.4284,-3.3582,-3.2986,-3.2586,-3.2437,-3.1951,-3.1482,-3.1482,-3.1482,-3.1482,-3.1482,-3.1482,-3.1482,-3.1482,-3.1482,-3.1482,-3.1482,-3.1482,-3.1482,-3.1482,-3.1482,-3.1482,-3.1482,-3.1482,-3.1482,-3.1482,-3.1482,-3.1482,-3.1482,-3.1482,-3.1482,-3.1482,-3.1482,-3.1482,-3.1482,-3.1482,-3.1482,-3.1482,-3.1482,-3.2183,-1.4243,-1.5764,-1.6948,-1.5933,-1.7676,-1.9739,-2.0145,-1.9858,0.0,0.0,0.0,0.0,0.0,0.0,0.0,0.0,0.0,0.0,0.0,0.0,0.0,0.0,0.0,0.0,0.0,0.0,0.0,0.0,0.0,0.0,-3.5078,-3.4022,-3.3599,-3.3939,-3.3334,-3.3275,-3.3933,-3.4262,-3.4786,-3.5504,-3.5504,-3.531,-3.4951,-3.4951,-3.4756,-3.4412,0.0,-3.4412,-3.4397,-3.4083,-3.3948,-3.3873,-3.3215,-3.2961,-3.2886,-3.2228,-3.1988,-3.1987,-3.2435,-3.2586,-3.2841,-3.4186,-3.4576,-3.4736,-3.5407,-3.5622,-3.5622,-3.5622,-3.5622,-3.5515,-3.5207,-3.5144,-3.4958,-3.4284,-3.3887,-3.3582,-3.3235,-3.2571,-3.212,-3.212,-3.1796,-3.1482,-3.1482,-3.1482,-3.1482,-3.1482,-3.1482,-3.1482,-3.1482,-3.1482,-3.1482,-3.1482,-3.1482,-3.1482,-3.1482,-3.1482,-3.1482,-3.1482,-3.1482,-3.1482,-3.1482,-3.1482,-3.1482,-3.1482,-3.1482,-3.1482,-3.1482,-3.1482,-3.1482,-3.1482,-3.1898,-3.2572,-1.3837,-1.5314,-1.6846,-1.7139,-1.9063,-2.116,-2.209,-2.1505,0.0,0.0,0.0,0.0,0.0,0.0,0.0,0.0,0.0,0.0,0.0,0.0,0.0,0.0,0.0,0.0,0.0,0.0,0.0,0.0,0.0,0.0,-3.483,-3.3531,-3.3076,-3.3505,-3.2695,-3.2602,-3.326,-3.326,-3.3858,-3.504,-3.504,-3.4756,-3.4247,-3.4247,-3.3978,-3.3499,-3.3499,-3.3499,-3.3484,-3.332,-3.326,-3.32,-3.2542,-3.2287,-3.2213,-3.1719,-3.1482,-3.164,-3.2532,-3.2841,-3.3039,-3.4399,-3.483,-3.4941,-3.5453,-3.5622,-3.5622,-3.5622,-3.5622,-3.5622,-3.5622,-3.5622,-3.547,-3.4941,-3.4736,-3.4479,-3.3937,-3.3287,-3.2788,-3.2641,-3.216,-3.1682,-3.1524,-3.1482,-3.1482,-3.1482,-3.1482,-3.1482,-3.1482,-3.1482,-3.1482,-3.1482,-3.1482,-3.1482,-3.1482,-3.1482,-3.1482,-3.1482,-3.1482,-3.1482,-3.1482,-3.1482,-3.1482,-3.1482,-3.1482,-3.1482,-3.1482,-3.1482,-3.1582,-3.1754,-3.2257,-3.2916,-1.5149,-1.6194,-1.7253,-1.8455,-1.9435,0.0,-2.1972,-2.275,0.0,-2.5,0.0,0.0,0.0,0.0,0.0,0.0,0.0,0.0,0.0,0.0,0.0,0.0,0.0,0.0,0.0,0.0,0.0,0.0,0.0,0.0,-3.5515,-3.4252,-3.3563,-3.361,-3.2277,-3.1855,-3.2587,-3.2587,-3.2946,-3.3634,-3.3634,-3.3619,-3.3559,-3.3559,-3.3544,-3.3499,-3.3499,-3.3499,-3.344,-3.2841,-3.2587,-3.2527,-3.1795,-3.1541,-3.1541,-3.1497,-3.1482,-3.1682,-3.3077,-3.3547,-3.3751,-3.5098,-3.5515,-3.5532,-3.5577,-3.5622,-3.5622,-3.5622,-3.5622,-3.5622,-3.5622,-3.5622,-3.5577,-3.5515,-3.5052,-3.4576,-3.4528,-3.3987,-3.3339,-3.2749,-3.2547,-3.2327,-3.164,-3.1482,-3.1482,-3.1482,-3.1482,-3.1482,-3.1482,-3.1482,-3.1482,-3.1482,-3.1482,-3.1482,-3.1482,-3.1482,-3.1482,-3.1482,-3.1482,-3.1482,-3.1482,-3.1482,-3.1482,-3.1482,-3.1482,-3.1482,-3.1482,-3.1482,-3.1853,-3.2508,-3.2533,-3.3184,-1.4141,-1.5276,-1.6561,-1.789,-1.9106,0.0,0.0,-2.3545,-2.4492,-2.5981,-2.6285,0.0,0.0,0.0,0.0,0.0,0.0,0.0,0.0,0.0,0.0,0.0,0.0,0.0,0.0,0.0,0.0,0.0,0.0,0.0,-3.5622,-3.435,-3.3582,-3.3582,-3.2256,-3.1601,-3.1898,-3.1898,-3.2033,-3.2287,-3.3095,-3.3275,-3.2886,-3.2886,-3.2662,-3.2273,-3.2273,-3.2273,-3.2258,-3.2003,-3.1898,-3.1884,-3.1571,-3.1482,-3.1482,-3.1482,-3.1796,-3.2327,-3.3287,-3.3887,-3.4382,-3.5316,-3.5622,-3.5622,-3.5622,-3.5622,-3.5622,-3.5622,-3.5622,-3.5622,-3.5622,-3.5622,-3.5622,-3.5622,-3.5407,-3.5207,-3.5207,-3.4704,-3.4037,-3.3339,-3.2895,-3.2382,-3.164,-3.1482,-3.1482,-3.1482,-3.1482,-3.1482,-3.1482,-3.1482,-3.1482,-3.1482,-3.1482,-3.1482,-3.1482,-3.191,-3.216,-3.216,-3.1739,-3.1482,-3.1482,-3.1951,-3.1951,-3.1539,-3.1951,-3.1966,-3.1482,-3.1482,-3.164,-3.1925,-3.2736,-3.3412,-1.3821,-1.5107,-1.6609,-1.7844,0.0,0.0,-2.2936,-2.4137,-2.5321,-2.7063,0.0,0.0,0.0,0.0,0.0,0.0,0.0,0.0,0.0,0.0,0.0,0.0,0.0,0.0,0.0,0.0,0.0,0.0,0.0,0.0,0.0,-3.4186,-3.3495,-3.3287,-3.2104,-3.1482,-3.1482,-3.1482,-3.1482,-3.1482,-3.2437,-3.2647,-3.2198,-3.2198,-3.1958,-3.1482,-3.1482,-3.1482,-3.1482,-3.1482,-3.1482,-3.1482,-3.1482,-3.1482,-3.1482,-3.1482,-3.1796,-3.2367,-3.3287,-3.3887,-3.4431,-3.5316,-3.5622,-3.5622,-3.5622,-3.5622,-3.5622,-3.5622,-3.5622,-3.5622,-3.5622,-3.5622,-3.5622,-3.5622,-3.5622,-3.5622,-3.5622,-3.5253,-3.4736,-3.4037,-3.3391,-3.268,-3.1951,-3.164,-3.1482,-3.1482,-3.1482,-3.1482,-3.1482,-3.1682,-3.1951,-3.2145,-3.1951,-3.1853,-3.1853,-3.212,-3.2272,-3.2272,-3.2007,-3.1853,-3.1853,-3.2327,-3.2272,-3.1524,-3.2007,-3.212,-3.1853,-3.1853,-3.2048,-3.2532,-3.3637,-3.4324,-1.4654,-1.6028,-1.7641,0.0,0.0,0.0,-2.3088,-2.456,-2.6268,-2.8535,0.0,0.0,0.0,0.0,0.0,0.0,0.0,0.0,0.0,0.0,0.0,0.0,0.0,0.0,0.0,0.0,0.0,0.0,0.0,0.0,0.0,-3.3971,-3.3271,-3.2641,-3.1894,-3.1482,-3.1482,-3.1482,-3.1482,-3.1482,-3.1482,-3.1482,-3.1482,-3.1482,-3.1482,-3.1482,-3.1482,-3.1482,-3.1482,-3.1482,-3.1482,-3.1482,-3.1482,-3.1482,-3.1482,-3.1539,-3.1524,-3.1739,-3.313,-3.3582,-3.3836,-3.5161,-3.5622,-3.5622,-3.5622,-3.5622,-3.5622,-3.5622,-3.5622,-3.5622,-3.5622,-3.5622,-3.5622,-3.5622,-3.5622,-3.5622,-3.5622,-3.5622,-3.5407,-3.4736,-3.4087,-3.3391,-3.2749,-3.2007,-3.1524,-3.1524,-3.1524,-3.1524,-3.1524,-3.2176,-3.2841,-3.3547,-3.2986,-3.2586,-3.2602,-3.1951,-3.1524,-3.1524,-3.2216,-3.2641,-3.2586,-3.2586,-3.2272,-3.1524,-3.1524,-3.191,-3.2602,-3.2602,-3.3287,-3.4609,-3.534,-3.6071,-1.4345,-1.5841,0.0,0.0,0.0,0.0,0.0,-2.6099,0.0,0.0,0.0,0.0,0.0,0.0,0.0,0.0,0.0,0.0,0.0,0.0,0.0,0.0,0.0,0.0,0.0,0.0,0.0,0.0,0.0,0.0,0.0,-3.2935,-3.2523,-3.1927,-3.1667,-3.1482,-3.1482,-3.1482,-3.1482,-3.1482,-3.1482,-3.1482,-3.1482,-3.1482,-3.1482,-3.1482,-3.1482,-3.1482,-3.1482,-3.1482,-3.1482,-3.1482,-3.1482,-3.1482,-3.1582,-3.2064,-3.2571,-3.3114,-3.3971,-3.4592,-3.5068,-3.547,-3.5622,-3.5622,-3.5622,-3.5622,-3.5622,-3.5622,-3.5622,-3.5622,-3.5622,-3.5622,-3.5622,-3.5622,-3.5622,-3.5622,-3.5622,-3.5622,-3.5407,-3.4736,-3.4431,-3.4087,-3.3443,-3.2734,-3.2422,-3.2933,-3.2571,-3.2422,-3.2917,-3.3182,-3.3391,-3.3582,-3.2986,-3.2788,-3.3235,-3.3077,-3.3166,-3.3668,-3.435,-3.407,-3.2641,-3.3495,-3.3684,-3.2971,-3.3427,-3.3582,-3.3287,-3.3287,-3.3495,-3.3903,-3.4615,-3.5321,-1.571,-1.7098,0.0,0.0,0.0,0.0,0.0,0.0,0.0,0.0,0.0,0.0,0.0,0.0,0.0,0.0,0.0,0.0,0.0,0.0,0.0,0.0,0.0,0.0,0.0,0.0,0.0,0.0,0.0,0.0,0.0,-3.2096,-3.1694,-3.0823,-3.0759,-3.0881,-3.112,-3.112,-3.127,-3.1482,-3.1482,-3.1482,-3.1482,-3.1482,-3.1482,-3.1482,-3.1482,-3.1482,-3.1524,-3.1796,-3.1951,-3.1951,-3.2256,-3.2351,-3.2407,-3.2826,-3.3235,-3.3684,-3.4382,-3.483,-3.5253,-3.5515,-3.5622,-3.5622,-3.5622,-3.5622,-3.5622,-3.5622,-3.5622,-3.5622,-3.5622,-3.5622,-3.5622,-3.5622,-3.5622,-3.5622,-3.5622,-3.5622,-3.547,-3.5098,-3.4783,-3.4479,-3.4087,-3.3443,-3.3145,-3.3531,-3.3039,-3.2841,-3.3479,-3.3582,-3.3684,-3.3987,-3.3649,-3.3531,-3.3987,-3.3735,-3.3786,-3.4186,-3.4847,-3.4657,-3.3427,-3.4186,-3.4284,-3.3582,-3.3987,-3.4137,-3.3987,-3.3987,-3.4137,-3.4415,-3.5152,-3.5725,-1.7907,0.0,0.0,0.0,0.0,0.0,0.0,0.0,0.0,0.0,0.0,0.0,0.0,0.0,0.0,0.0,0.0,0.0,0.0,0.0,0.0,0.0,0.0,0.0,0.0,0.0,0.0,0.0,0.0,0.0,0.0,-3.1342,-3.082,-2.9544,-2.9549,-2.9849,-3.0417,-3.0417,-3.0761,-3.1377,-3.1377,-3.1422,-3.1482,-3.1482,-3.1482,-3.1482,-3.1482,-3.1482,-3.1582,-3.2272,-3.2586,-3.2641,-3.3339,-3.3582,-3.3582,-3.3684,-3.3684,-3.3786,-3.4431,-3.4688,-3.4783,-3.5407,-3.5622,-3.5622,-3.5622,-3.5622,-3.5622,-3.5622,-3.5622,-3.5622,-3.5622,-3.5622,-3.5622,-3.5622,-3.5622,-3.5622,-3.5622,-3.5622,-3.5622,-3.5622,-3.5098,-3.4688,-3.4688,-3.4137,-3.3684,-3.3684,-3.3235,-3.3093,-3.3684,-3.3786,-3.4037,-3.464,-3.464,-3.4624,-3.4688,-3.4087,-3.3735,-3.3786,-3.4333,-3.4688,-3.4688,-3.4688,-3.4382,-3.3786,-3.3786,-3.4087,-3.4688,-3.4688,-3.4988,-3.5639,-3.6349,-3.6705,-1.6925,-1.8483,0.0,0.0,0.0,0.0,0.0,0.0,0.0,0.0,0.0,0.0,0.0,0.0,0.0,0.0,0.0,0.0,0.0,0.0,0.0,0.0,0.0,0.0,0.0,0.0,0.0,0.0,0.0,0.0,-2.9884,-3.0366,-3.0064,-2.8854,-2.931,-2.9639,-2.9774,-2.9774,-3.0103,0.0,-3.0731,-3.1001,-3.1482,-3.1482,-3.1482,-3.1482,-3.1482,-3.1482,-3.1582,-3.2272,-3.2586,-3.2641,-3.3339,-3.3582,-3.3684,-3.4186,-3.4382,-3.4479,-3.5144,-3.5362,-3.5407,-3.556,-3.5622,-3.5622,-3.5622,-3.5622,-3.5622,-3.5622,-3.5622,-3.5622,-3.5622,-3.5622,-3.5622,-3.5622,-3.5622,-3.5622,-3.5622,-3.5622,-3.5622,-3.5622,-3.547,-3.5362,-3.5362,-3.4847,-3.4382,-3.4382,-3.4704,-3.5021,-3.5161,-3.5161,-3.5224,-3.5362,-3.4894,-3.4783,-3.5362,-3.4783,-3.4592,-3.5161,-3.5316,-3.5362,-3.5362,-3.5362,-3.5316,-3.5161,-3.5161,-3.527,-3.5362,-3.5362,-3.547,-3.5622,-3.5791,-3.6197,-1.6886,0.0,0.0,0.0,0.0,0.0,0.0,0.0,0.0,0.0,0.0,0.0,0.0,0.0,0.0,0.0,0.0,0.0,0.0,0.0,0.0,0.0,0.0,0.0,0.0,0.0,0.0,0.0,0.0,-3.0797,-2.9892,-3.0162,-2.995,-2.8989,-2.9011,-2.921,-2.9529,-2.926,-2.943,-3.0058,-3.0058,-3.0253,-3.0612,-3.124,-3.1482,-3.1524,-3.1853,-3.2007,-3.212,-3.313,-3.3531,-3.3633,-3.4301,-3.456,-3.4609,-3.4941,-3.5098,-3.5144,-3.547,-3.5622,-3.5622,-3.5622,-3.5622,-3.5622,-3.5622,-3.5622,-3.5622,-3.5622,-3.5622,-3.5622,-3.5622,-3.5622,-3.5622,-3.5622,-3.5622,-3.5622,-3.5622,-3.5622,-3.5622,-3.5622,-3.5622,-3.5622,-3.5622,-3.5316,-3.5098,-3.5098,-3.5098,-3.5098,-3.5098,-3.5098,-3.5098,-3.5098,-3.5098,-3.5207,-3.5577,-3.5253,-3.5207,-3.5577,-3.5622,-3.5622,-3.5622,-3.5622,-3.5622,-3.5622,-3.5622,-3.5622,-3.5622,-3.5622,-3.5622,-3.5622,-3.5622,-3.5825,-1.6611,0.0,0.0,0.0,0.0,0.0,0.0,0.0,0.0,0.0,0.0,0.0,0.0,0.0,0.0,0.0,0.0,0.0,0.0,0.0,0.0,0.0,0.0,0.0,0.0,0.0,0.0,0.0,0.0,-3.0935,-3.0335,-3.0293,-3.0021,-2.9406,-2.8919,-2.8918,-2.9479,-2.8895,-2.8899,-2.9561,-2.9574,-2.9619,-2.981,-3.0758,-3.1195,-3.1195,-3.1934,-3.2245,-3.2338,-3.368,-3.4213,-3.4277,-3.493,-3.5233,-3.5233,-3.5233,-3.5233,-3.5267,-3.5385,-3.5419,-3.5453,-3.5571,-3.5622,-3.5622,-3.5622,-3.5622,-3.5622,-3.5622,-3.5622,-3.5622,-3.5622,-3.5622,-3.5622,-3.5622,-3.5622,-3.5622,-3.5622,-3.5622,-3.5622,-3.5622,-3.5622,-3.5622,-3.5622,-3.5622,-3.5622,-3.5622,-3.5144,-3.4783,-3.4783,-3.4783,-3.4783,-3.4783,-3.5253,-3.5622,-3.5622,-3.5622,-3.5622,-3.5622,-3.5622,-3.5622,-3.5622,-3.5622,-3.5622,-3.5622,-3.5622,-3.5622,-3.5622,-3.5622,-3.5622,-3.5622,-3.5622,-3.5622,0.0,0.0,0.0,0.0,0.0,0.0,0.0,0.0,0.0,0.0,0.0,0.0,0.0,0.0,0.0,0.0,0.0,0.0,0.0,0.0,0.0,0.0,0.0,0.0,0.0,0.0,0.0,0.0,-3.0835,-3.0935,-3.0335,-3.0293,-3.0021,-2.9406,-2.9316,-2.9319,-2.9414,-2.8826,-2.8861,-2.9539,-2.9546,-2.9872,-3.0351,-2.9999,-2.9849,-2.9888,-3.0523,-3.0768,-3.0871,-3.2174,-3.2702,-3.2747,-3.3419,-3.3694,-3.3694,-3.3694,-3.3694,-3.3795,-3.4421,-3.4641,-3.4742,-3.5402,-3.5622,-3.5622,-3.5622,-3.5622,-3.5622,-3.5622,-3.5622,-3.5622,-3.5622,-3.5622,-3.5622,-3.5622,-3.5622,-3.5622,-3.5622,-3.5622,-3.5622,-3.5622,-3.5622,-3.5622,-3.5622,-3.5622,-3.5622,-3.5622,-3.5515,-3.547,-3.547,-3.547,-3.547,-3.547,-3.556,-3.5622,-3.5622,-3.5622,-3.5622,-3.5622,-3.5622,-3.5622,-3.5622,-3.5622,-3.5622,-3.5622,-3.5622,-3.5622,-3.5622,-3.5622,-3.5622,-3.5622,-3.5622,-3.5622,-1.5189,0.0,0.0,0.0,0.0,0.0,0.0,0.0,0.0,0.0,0.0,0.0,0.0,0.0,0.0,0.0,0.0,0.0,0.0,0.0,0.0,0.0,0.0,0.0,0.0,0.0,0.0,0.0,-3.0395,-3.0634,-3.0821,-3.0781,-3.0699,-3.0435,-3.0081,-2.9892,-2.9892,-2.8966,-2.8666,-2.896,-2.9304,-2.9639,-2.9864,-2.959,-2.9728,-3.0158,-3.0763,-3.126,-3.1662,-3.2557,-3.2944,-3.2988,-3.3262,-3.3406,-3.3406,-3.3406,-3.3406,-3.3457,-3.3778,-3.388,-3.3947,-3.4269,-3.4387,-3.4455,-3.4861,-3.4979,-3.5081,-3.5504,-3.5622,-3.5622,-3.5622,-3.5622,-3.5622,-3.5622,-3.5622,-3.5622,-3.5622,-3.5622,-3.5622,-3.5622,-3.5622,-3.5622,-3.5622,-3.5622,-3.5622,-3.5622,-3.5622,-3.5622,-3.5622,-3.5622,-3.5622,-3.5622,-3.5622,-3.5622,-3.5622,-3.5622,-3.5622,-3.5622,-3.5622,-3.5622,-3.5622,-3.5622,-3.5622,-3.5622,-3.5622,-3.5622,-3.5622,-3.5622,-3.5622,-3.5622,-3.5622,-3.5622,0.0,0.0,0.0,0.0,0.0,0.0,0.0,0.0,0.0,0.0,0.0,0.0,0.0,0.0,0.0,0.0,0.0,0.0,0.0,0.0,0.0,0.0,0.0,0.0,0.0,0.0,0.0,0.0,-2.9702,-3.0142,-3.0886,-3.092,-3.1004,-3.119,-3.074,-3.0518,-3.0518,-2.9496,-2.8966,-2.895,-2.9271,-2.9496,-2.9629,-2.9451,-2.9798,-3.0494,-3.1005,-3.1424,-3.1924,-3.2563,-3.2848,-3.2848,-3.2848,-3.2848,-3.2848,-3.2848,-3.2848,-3.2865,-3.3068,-3.3119,-3.3152,-3.3339,-3.3406,-3.3508,-3.4049,-3.4218,-3.437,-3.5115,-3.5334,-3.5368,-3.5571,-3.5622,-3.5622,-3.5622,-3.5622,-3.5622,-3.5622,-3.5622,-3.5622,-3.5622,-3.5622,-3.5622,-3.5622,-3.5622,-3.5622,-3.5622,-3.5622,-3.5622,-3.5622,-3.5622,-3.5622,-3.5622,-3.5622,-3.5622,-3.5622,-3.5622,-3.5622,-3.5622,-3.5622,-3.5622,-3.5622,-3.5622,-3.5622,-3.5622,-3.5622,-3.5622,-3.5622,-3.5622,-3.5622,-3.5622,-3.5622,-3.5622,0.0,-1.3632,0.0,0.0,0.0,0.0,0.0,0.0,0.0,0.0,0.0,0.0,0.0,0.0,0.0,0.0,0.0,0.0,0.0,0.0,0.0,0.0,0.0,0.0,0.0,0.0,0.0,0.0,-2.8619,-2.9364,-3.0125,-3.0176,-3.048,-3.1173,-3.119,-3.1151,-3.1151,-3.0518,-3.0208,-3.0208,-2.9673,-2.9717,-3.0208,-2.9673,-2.9705,-3.0323,-3.0366,-3.0366,-3.0467,-3.1076,-3.1309,-3.1309,-3.1309,-3.1309,-3.1309,-3.1309,-3.1309,-3.141,-3.2087,-3.2341,-3.2459,-3.3169,-3.3406,-3.3406,-3.3457,-3.3457,-3.3609,-3.4336,-3.4556,-3.4726,-3.5436,-3.5622,-3.5622,-3.5622,-3.5622,-3.5622,-3.5622,-3.5622,-3.5622,-3.5622,-3.5622,-3.5622,-3.5622,-3.5622,-3.5622,-3.5622,-3.5622,-3.5622,-3.5622,-3.5622,-3.5622,-3.5622,-3.5622,-3.5622,-3.5622,-3.5622,-3.5622,-3.5622,-3.5622,-3.5622,-3.5622,-3.5622,-3.5622,-3.5622,-3.5622,-3.5622,-3.5622,-3.5622,-3.5622,-3.5622,-3.5622,-3.5622,-1.224,0.0,0.0,0.0,0.0,0.0,0.0,0.0,0.0,0.0,0.0,0.0,0.0,0.0,0.0,0.0,0.0,0.0,0.0,0.0,0.0,0.0,0.0,0.0,0.0,0.0,0.0,0.0,0.0,-2.8569,-2.9347,-2.9381,-2.9516,-2.977,-3.0243,-3.0544,-3.0601,-3.0797,-3.0699,-3.0293,-3.0477,-3.0658,-3.0878,-3.0658,-3.0658,-3.0878,-3.0878,-3.0878,-3.0878,-3.1112,-3.119,-3.119,-3.119,-3.119,-3.119,-3.119,-3.119,-3.1241,-3.1495,-3.1579,-3.163,-3.1901,-3.1985,-3.207,-3.2544,-3.2679,-3.2831,-3.3592,-3.3795,-3.3846,-3.4134,-3.4539,-3.5013,-3.5504,-3.5622,-3.5622,-3.5622,-3.5622,-3.5622,-3.5622,-3.5622,-3.5622,-3.5622,-3.5622,-3.5622,-3.5622,-3.5622,-3.5622,-3.5622,-3.5622,-3.5622,-3.5622,-3.5622,-3.5622,-3.5622,-3.5622,-3.5622,-3.5622,-3.5622,-3.5622,-3.5622,-3.5622,-3.5622,-3.5622,-3.5622,-3.5622,-3.5622,-3.5622,-3.5622,-3.5622,-3.5622,-3.5622,-1.1373,-1.2129,0.0,0.0,0.0,0.0,0.0,0.0,0.0,0.0,0.0,0.0,0.0,0.0,0.0,0.0,0.0,0.0,0.0,0.0,0.0,0.0,0.0,0.0,0.0,0.0,0.0,0.0,0.0,0.0,-2.8552,-2.8602,-2.8704,-2.8975,-2.9465,-2.9905,-3.0251,-3.0606,-3.0723,-3.0617,-3.1015,-3.119,-3.119,-3.119,-3.119,-3.119,-3.119,-3.119,-3.119,-3.119,-3.119,-3.119,-3.119,-3.119,-3.119,-3.119,-3.119,-3.119,-3.119,-3.119,-3.119,-3.119,-3.119,-3.1275,-3.1765,-3.1918,-3.207,-3.2814,-3.3034,-3.3085,-3.3339,-3.3761,-3.432,-3.5064,-3.525,-3.5318,-3.5571,-3.5622,-3.5622,-3.5622,-3.5622,-3.5622,-3.5622,-3.5622,-3.5622,-3.5622,-3.5622,-3.5622,-3.5622,-3.5622,-3.5622,-3.5622,-3.5622,-3.5622,-3.5622,-3.5622,-3.5622,-3.5622,-3.5622,-3.5622,-3.5622,-3.5622,-3.5622,-3.5622,-3.5622,-3.5622,-3.5622,-3.5622,-3.5622,-3.5622,-3.5622,-3.5622,0.0,0.0,0.0,0.0,0.0,0.0,0.0,0.0,0.0,0.0,0.0,0.0,0.0,0.0,0.0,0.0,0.0,0.0,0.0,0.0,0.0,0.0,0.0,0.0,0.0,0.0,0.0,0.0,-2.6691,-2.7012,-2.7722,-2.7755,-2.8146,-2.8924,-2.8941,-2.9313,-3.0074,-3.0074,-3.0429,-3.114,-3.1157,-3.1157,-3.1157,-3.119,-3.119,-3.119,-3.119,-3.119,-3.119,-3.119,-3.119,-3.119,-3.119,-3.119,-3.119,-3.119,-3.119,-3.119,-3.119,-3.119,-3.119,-3.119,-3.119,-3.119,-3.119,-3.119,-3.1343,-3.2053,-3.2297,-3.2425,-3.3186,-3.3372,-3.3558,-3.4286,-3.4455,-3.4675,-3.5419,-3.5588,-3.5588,-3.5622,-3.5622,-3.5622,-3.5622,-3.5622,-3.5622,-3.5622,-3.5622,-3.5622,-3.5622,-3.5622,-3.5622,-3.5622,-3.5622,-3.5622,-3.5622,-3.5622,-3.5622,-3.5622,-3.5622,-3.5622,-3.5622,-3.5622,-3.5622,-3.5622,-3.5622,-3.5622,-3.5622,-3.5622,-3.5622,-3.5622,-3.5622,-3.5622,-0.9864,0.0,0.0,0.0,0.0,0.0,0.0,0.0,0.0,0.0,0.0,0.0,0.0,0.0,0.0,0.0,0.0,0.0,0.0,0.0,0.0,0.0,0.0,0.0,0.0,0.0,0.0,0.0,-2.6691,-2.6793,-2.6996,-2.6996,-2.7351,-2.8112,-2.8146,-2.8518,-2.9296,-2.9296,-2.9397,-2.96,-3.0142,-3.0412,-3.0429,-3.0954,-3.119,-3.119,-3.119,-3.119,-3.119,-3.119,-3.119,-3.119,-3.119,-3.119,-3.119,-3.119,-3.119,-3.119,-3.119,-3.119,-3.119,-3.119,-3.119,-3.119,-3.119,-3.119,-3.1241,-3.1444,-3.1495,-3.1664,-3.2391,-3.2594,-3.278,-3.3525,-3.3711,-3.3914,-3.4641,-3.4793,-3.4962,-3.552,-3.5622,-3.5622,-3.5622,-3.5622,-3.5622,-3.5622,-3.5622,-3.5622,-3.5622,-3.5622,-3.5622,-3.5622,-3.5622,-3.5622,-3.5622,-3.5622,-3.5622,-3.5622,-3.5622,-3.5622,-3.5622,-3.5622,-3.5622,-3.5622,-3.5622,-3.5622,-3.5622,-3.5622,-3.5622,-3.5622,-3.5622,-3.5622,-1.0929,-1.1049,0.0,0.0,0.0,0.0,0.0,-1.5886,0.0,0.0,0.0,0.0,0.0,0.0,0.0,0.0,0.0,0.0,0.0,0.0,0.0,0.0,0.0,0.0,0.0,-2.4966,-2.5321,-2.5744,-2.6065,-2.637,-2.6674,-2.6691,-2.6894,-2.7334,-2.7351,-2.7723,-2.8484,-2.8501,-2.8653,-2.9028,-2.9431,-2.9634,-2.9651,-3.0074,-3.0446,-3.0734,-3.0734,-3.092,-3.119,-3.119,-3.119,-3.119,-3.119,-3.119,-3.119,-3.119,-3.119,-3.119,-3.119,-3.119,-3.119,-3.119,-3.119,-3.119,-3.119,-3.119,-3.119,-3.119,-3.119,-3.1292,-3.1715,-3.1833,-3.2019,-3.2763,-3.2933,-3.3136,-3.388,-3.4032,-3.4353,-3.5419,-3.5622,-3.5622,-3.5622,-3.5622,-3.5622,-3.5622,-3.5622,-3.5622,-3.5622,-3.5622,-3.5622,-3.5622,-3.5622,-3.5622,-3.5622,-3.5622,-3.5622,-3.5622,-3.5622,-3.5622,-3.5622,-3.5622,-3.5622,-3.5622,-3.5622,-3.5622,-3.5622,-3.5622,-3.5622,-3.5622,-3.5622,-3.5622,-1.259,-1.2499,0.0,0.0,0.0,0.0,-1.6058,-1.5309,0.0,0.0,0.0,0.0,0.0,0.0,0.0,0.0,0.0,0.0,0.0,0.0,0.0,0.0,0.0,0.0,-2.3393,-2.3985,-2.4421,-2.4506,-2.5169,-2.5896,-2.6539,-2.6657,-2.6691,-2.6691,-2.6691,-2.7012,-2.7654,-2.7689,-2.8044,-2.8738,-2.8822,-2.8856,-2.8856,-2.8941,-2.9347,-2.9989,-2.9989,-3.0362,-3.0954,-3.1038,-3.1123,-3.119,-3.119,-3.119,-3.119,-3.119,-3.119,-3.119,-3.119,-3.119,-3.119,-3.119,-3.119,-3.119,-3.119,-3.119,-3.119,-3.119,-3.119,-3.119,-3.119,-3.119,-3.136,-3.2002,-3.2195,-3.2357,-3.3119,-3.3288,-3.3694,-3.5115,-3.5436,-3.5504,-3.5504,-3.5571,-3.5622,-3.5622,-3.5622,-3.5622,-3.5622,-3.5622,-3.5622,-3.5622,-3.5622,-3.5622,-3.5622,-3.5622,-3.5622,-3.5622,-3.5622,-3.5622,-3.5622,-3.5622,-3.5622,-3.5622,-3.5622,-3.5622,-3.5622,-3.5622,-3.5622,-3.5622,-3.5622,-3.5622,-1.4261,-1.4983,0.0,0.0,0.0,0.0,0.0,-1.3666,0.0,0.0,0.0,0.0,0.0,0.0,0.0,0.0,0.0,0.0,0.0,0.0,0.0,0.0,0.0,0.0,-2.3342,-2.3528,-2.3849,-2.4472,-2.5169,-2.5659,-2.5812,-2.637,-2.6691,-2.6691,-2.6691,-2.6759,-2.6911,-2.6911,-2.6996,-2.7148,-2.7757,-2.8044,-2.8078,-2.8687,-2.9059,-2.9194,-2.9194,-2.9279,-2.9465,-3.0074,-3.0666,-3.119,-3.119,-3.119,-3.119,-3.119,-3.119,-3.119,-3.119,-3.119,-3.119,-3.119,-3.119,-3.119,-3.119,-3.119,-3.119,-3.119,-3.119,-3.119,-3.119,-3.119,-3.1241,-3.1376,-3.141,-3.1613,-3.2341,-3.2493,-3.2763,-3.366,-3.432,-3.4709,-3.4709,-3.5216,-3.5622,-3.5622,-3.5622,-3.5622,-3.5622,-3.5622,-3.5622,-3.5622,-3.5622,-3.5622,-3.5622,-3.5622,-3.5622,-3.5622,-3.5622,-3.5622,-3.5622,-3.5622,-3.5622,-3.5622,-3.5622,-3.5622,-3.5622,-3.5622,-3.5622,-3.5622,-3.5622,-3.5622,-1.601,-1.6285,0.0,-1.5894,0.0,0.0,0.0,0.0,-1.4162,0.0,0.0,0.0,0.0,0.0,0.0,0.0,0.0,0.0,0.0,0.0,0.0,0.0,0.0,0.0,-2.2818,-2.2852,-2.3156,-2.3883,-2.4289,-2.4661,-2.5033,-2.5744,-2.615,-2.615,-2.6505,-2.6691,-2.6691,-2.6691,-2.6691,-2.6691,-2.708,-2.7249,-2.7283,-2.7655,-2.8044,-2.8399,-2.8399,-2.8619,-2.9008,-2.9397,-2.977,-3.0159,-3.0903,-3.119,-3.119,-3.119,-3.119,-3.119,-3.119,-3.119,-3.119,-3.119,-3.119,-3.119,-3.119,-3.119,-3.119,-3.119,-3.119,-3.119,-3.119,-3.119,-3.119,-3.119,-3.119,-3.1292,-3.1664,-3.1732,-3.185,-3.2239,-3.2899,-3.3508,-3.388,-3.4556,-3.5064,-3.5064,-3.5368,-3.5622,-3.5622,-3.5622,-3.5622,-3.5622,-3.5622,-3.5622,-3.5622,-3.5622,-3.5622,-3.5622,-3.5622,-3.5622,-3.5622,-3.5622,-3.5622,-3.5622,-3.5622,-3.5622,-3.5622,-3.5622,-3.5622,-3.5622,-3.5622,-3.5622,0.0,0.0,0.0,0.0,0.0,-1.5911,0.0,0.0,0.0,-1.63,0.0,0.0,0.0,0.0,0.0,0.0,0.0,0.0,0.0,0.0,0.0,0.0,0.0,0.0,0.0,-2.1955,-2.2243,-2.3122,-2.3054,-2.3342,-2.4222,-2.4983,-2.5456,-2.5609,-2.6184,-2.6556,-2.6691,-2.6691,-2.6691,-2.6691,-2.6691,-2.6691,-2.6691,-2.6691,-2.7029,-2.757,-2.757,-2.796,-2.8552,-2.8704,-2.8755,-2.889,-3.0243,-3.0768,-3.0784,-3.0937,-3.0987,-3.1004,-3.114,-3.119,-3.119,-3.119,-3.119,-3.119,-3.119,-3.119,-3.119,-3.119,-3.119,-3.119,-3.119,-3.119,-3.119,-3.119,-3.119,-3.119,-3.119,-3.119,-3.119,-3.119,-3.1664,-3.2307,-3.3068,-3.3795,-3.4336,-3.4472,-3.5013,-3.5453,-3.5605,-3.5622,-3.5622,-3.5622,-3.5622,-3.5622,-3.5622,-3.5622,-3.5622,-3.5622,-3.5622,-3.5622,-3.5622,-3.5622,-3.5622,-3.5622,-3.5622,-3.5622,-3.5622,-3.5622,-3.5622,-3.5622,-3.5622,-3.5622,0.0,0.0,0.0,0.0,-1.9014,0.0,0.0,0.0,-1.4921,-1.312,0.0,0.0,0.0,0.0,0.0,0.0,0.0,0.0,0.0,0.0,0.0,0.0,0.0,0.0,0.0,-2.0686,-2.0846,-2.2327,-2.182,-2.2067,-2.3444,-2.4205,-2.4915,-2.5592,-2.5693,-2.6048,-2.6691,-2.6691,-2.6691,-2.6691,-2.6691,-2.6691,-2.6691,-2.6691,-2.6742,-2.6826,-2.6826,-2.6877,-2.6996,-2.7689,-2.796,-2.8027,-2.8907,-2.9228,-2.9313,-2.9973,-3.0226,-3.0328,-3.097,-3.119,-3.119,-3.119,-3.119,-3.119,-3.119,-3.119,-3.119,-3.119,-3.119,-3.119,-3.119,-3.119,-3.119,-3.119,-3.119,-3.119,-3.119,-3.119,-3.119,-3.119,-3.1258,-3.1546,-3.229,-3.3034,-3.3744,-3.4387,-3.4573,-3.4861,-3.5537,-3.5622,-3.5622,-3.5622,-3.5622,-3.5622,-3.5622,-3.5622,-3.5622,-3.5622,-3.5622,-3.5622,-3.5622,-3.5622,-3.5622,-3.5622,-3.5622,-3.5622,-3.5622,-3.5622,-3.5622,-3.5622,-3.5622,-3.5622,0.0,0.0,0.0,0.0,0.0,0.0,-1.6041,0.0,-1.4976,0.0,0.0,0.0,0.0,0.0,0.0,0.0,0.0,0.0,0.0,0.0,0.0,0.0,0.0,0.0,0.0,0.0,0.0,0.0,-2.0686,-2.0974,-2.2084,-2.3224,-2.3985,-2.4306,-2.5152,-2.5761,-2.6065,-2.6488,-2.6691,-2.6691,-2.6691,-2.6691,-2.6691,-2.6691,-2.6691,-2.6691,-2.6691,-2.6691,-2.6725,-2.7029,-2.7165,-2.7199,-2.752,-2.8197,-2.9062,-2.9347,-2.9448,-2.9567,-3.0311,-3.0565,-3.0632,-3.1055,-3.119,-3.119,-3.119,-3.119,-3.119,-3.119,-3.119,-3.119,-3.119,-3.119,-3.119,-3.119,-3.119,-3.119,-3.119,-3.119,-3.119,-3.119,-3.119,-3.1292,-3.1596,-3.2256,-3.2865,-3.3169,-3.3947,-3.4607,-3.4928,-3.5351,-3.5622,-3.5622,-3.5622,-3.5622,-3.5622,-3.5622,-3.5622,-3.5622,-3.5622,-3.5622,-3.5622,-3.5622,-3.5622,-3.5622,-3.5622,-3.5622,-3.5622,-3.5622,-3.5622,-3.5622,-3.5622,-3.5622,-1.9913,0.0,0.0,0.0,0.0,0.0,0.0,0.0,0.0,0.0,0.0,0.0,0.0,0.0,0.0,-1.3666,0.0,0.0,0.0,0.0,0.0,0.0,0.0,0.0,0.0,0.0,0.0,0.0,0.0,-1.9804,-2.1207,-2.2248,-2.297,-2.3376,-2.4441,-2.5101,-2.5304,-2.6031,-2.6404,-2.6404,-2.659,-2.6691,-2.6691,-2.6691,-2.6691,-2.6691,-2.6691,-2.6691,-2.6691,-2.6691,-2.6741,-2.6873,-2.6873,-2.7622,-2.8699,-2.8693,-2.867,-2.8772,-2.9533,-2.9939,-3.0226,-3.0954,-3.119,-3.119,-3.119,-3.119,-3.119,-3.119,-3.119,-3.119,-3.119,-3.119,-3.119,-3.119,-3.119,-3.119,-3.119,-3.119,-3.119,-3.119,-3.119,-3.119,-3.119,-3.163,-3.2053,-3.2297,-3.3203,-3.4032,-3.4438,-3.4979,-3.5402,-3.5605,-3.5622,-3.5622,-3.5622,-3.5622,-3.565,-3.5827,-3.581,-3.5898,-3.6054,-3.6054,-3.6054,-3.6054,-3.6054,-3.6054,-3.6054,-3.6054,-3.6054,-3.6054,-3.5898,-3.5739,0.0,0.0,0.0,-1.777,0.0,0.0,0.0,0.0,-1.6615,0.0,0.0,0.0,0.0,0.0,-1.5362,-1.4591,-1.4488,0.0,0.0,0.0,0.0,0.0,0.0,0.0,0.0,0.0,0.0,0.0,0.0,0.0,-2.1332,-2.1335,-2.1904,-2.3342,-2.3444,-2.3799,-2.454,-2.527,-2.5642,-2.5642,-2.6353,-2.6691,-2.6691,-2.6691,-2.6691,-2.6691,-2.6691,-2.6691,-2.6691,-2.6691,-2.6939,-2.7272,-2.7272,-2.7535,-2.7912,-2.7861,-2.7823,-2.7941,-2.8755,-2.9499,-3.0226,-3.0954,-3.119,-3.119,-3.119,-3.119,-3.119,-3.119,-3.119,-3.119,-3.119,-3.119,-3.119,-3.119,-3.119,-3.119,-3.119,-3.119,-3.119,-3.119,-3.119,-3.119,-3.119,-3.1207,-3.1461,-3.2171,-3.2364,-3.2865,-3.4303,-3.4506,-3.481,-3.5537,-3.5622,-3.5622,-3.5622,-3.5622,-3.581,-3.6333,-3.6374,-3.662,-3.7152,-3.7152,-3.7152,-3.7152,-3.7152,-3.7152,-3.7152,-3.7152,-3.7152,-3.7152,-3.662,-3.6097,0.0,0.0,-2.1932,-1.9179,0.0,0.0,0.0,0.0,0.0,0.0,0.0,0.0,0.0,-1.6426,-1.5435,-1.4616,-1.4059,-1.3141,0.0,0.0,0.0,0.0,0.0,0.0,0.0,0.0,0.0,0.0,-1.7569,0.0,0.0,-2.1917,-2.275,-2.3249,-2.3567,-2.3852,-2.411,-2.4598,-2.5118,-2.5609,-2.5862,-2.6234,-2.6691,-2.6691,-2.6691,-2.6725,-2.7004,-2.7083,-2.7115,-2.7378,-2.756,-2.7695,-2.7695,-2.7783,-2.7904,-2.7857,-2.7871,-2.7944,-2.8421,-2.9592,-3.0889,-3.0869,-3.119,-3.1603,-3.1603,-3.1411,-3.1269,-3.1579,-3.1445,-3.1252,-3.1545,-3.1411,-3.119,-3.119,-3.119,-3.119,-3.119,-3.119,-3.119,-3.119,-3.119,-3.119,-3.119,-3.119,-3.1275,-3.1512,-3.1968,-3.2459,-3.2966,-3.3457,-3.4049,-3.4793,-3.4878,-3.5081,-3.5571,-3.5941,-3.6224,-3.6374,-3.6724,-3.702,-3.7173,-3.719,-3.719,-3.719,-3.719,-3.719,-3.719,-3.6843,-3.6684,-3.6684,-3.6498,-3.6291,-2.2299,-2.2611,0.0,-2.028,-1.973,0.0,-1.6683,0.0,0.0,0.0,0.0,0.0,0.0,0.0,-1.6206,-1.5105,-1.4015,-1.2637,0.0,-1.0967,0.0,0.0,0.0,0.0,0.0,0.0,-1.5004,-1.6096,-1.6764,0.0,0.0,0.0,-2.2529,-2.3171,-2.348,-2.365,-2.365,-2.4182,-2.4677,-2.5129,-2.545,-2.5966,-2.6688,-2.6688,-2.6874,-2.7147,-2.7378,-2.75,-2.753,-2.7794,-2.7982,-2.8075,-2.8075,-2.8174,-2.8255,-2.801,-2.7811,-2.7771,-2.839,-2.9266,-3.0122,-3.0525,-3.0922,-3.1259,-3.1517,-3.1411,-3.1269,-3.1579,-3.1445,-3.1252,-3.1507,-3.1372,-3.119,-3.119,-3.119,-3.119,-3.119,-3.119,-3.119,-3.119,-3.119,-3.119,-3.119,-3.119,-3.119,-3.119,-3.1596,-3.1985,-3.2297,-3.2696,-3.3371,-3.4252,-3.4379,-3.4609,-3.5221,-3.5607,-3.5885,-3.6078,-3.6414,-3.6684,-3.6877,-3.7146,-3.7164,-3.6895,-3.7146,-3.7202,-3.7023,-3.669,-3.6562,-3.6684,-3.6684,-3.6563]}]]